<?xml version="1.0" encoding="UTF-8" standalone="no" ?>
<gpx xmlns="http://www.topografix.com/GPX/1/1" xmlns:xsi="http://www.w3.org/2001/XMLSchema-instance" xsi:schemaLocation="http://www.topografix.com/GPX/1/1 http://www.topografix.com/GPX/1/1/gpx.xsd" version="1.1" creator="VisuGPX - https://www.visugpx.com">
  <metadata>
    <name>semur en vallon</name>
    <desc><![CDATA[semur en va[url][img][b][/b][/img][/url]llon]]></desc>
  </metadata>
  <trk>
    <name><![CDATA[Semur-en-Vallon Course à pied]]></name>
    <trkseg>
      <trkpt lat="48.02036" lon="0.64629">
        <ele>137.3</ele>
        <time>2015-06-14T05:48:22.000Z</time>
      </trkpt>
      <trkpt lat="48.02037" lon="0.64638">
        <ele>137</ele>
        <time>2015-06-14T05:48:28.000Z</time>
      </trkpt>
      <trkpt lat="48.02035" lon="0.64647">
        <ele>136.8</ele>
        <time>2015-06-14T05:48:33.000Z</time>
      </trkpt>
      <trkpt lat="48.02028" lon="0.6465">
        <ele>136.6</ele>
        <time>2015-06-14T05:48:38.000Z</time>
      </trkpt>
      <trkpt lat="48.02024" lon="0.64652">
        <ele>136.5</ele>
        <time>2015-06-14T05:48:41.000Z</time>
      </trkpt>
      <trkpt lat="48.02009" lon="0.64659">
        <ele>136</ele>
        <time>2015-06-14T05:48:51.000Z</time>
      </trkpt>
      <trkpt lat="48.01998" lon="0.64667">
        <ele>135.1</ele>
        <time>2015-06-14T05:48:59.000Z</time>
      </trkpt>
      <trkpt lat="48.01974" lon="0.64694">
        <ele>134.1</ele>
        <time>2015-06-14T05:49:19.000Z</time>
      </trkpt>
      <trkpt lat="48.01973" lon="0.64696">
        <ele>134</ele>
        <time>2015-06-14T05:49:20.000Z</time>
      </trkpt>
      <trkpt lat="48.01974" lon="0.64715">
        <ele>133.4</ele>
        <time>2015-06-14T05:49:29.000Z</time>
      </trkpt>
      <trkpt lat="48.01974" lon="0.64717">
        <ele>133.3</ele>
        <time>2015-06-14T05:49:30.000Z</time>
      </trkpt>
      <trkpt lat="48.01976" lon="0.64729">
        <ele>133.2</ele>
        <time>2015-06-14T05:49:36.000Z</time>
      </trkpt>
      <trkpt lat="48.01978" lon="0.64743">
        <ele>133.4</ele>
        <time>2015-06-14T05:49:43.000Z</time>
      </trkpt>
      <trkpt lat="48.01981" lon="0.64762">
        <ele>133.5</ele>
        <time>2015-06-14T05:49:52.000Z</time>
      </trkpt>
      <trkpt lat="48.01986" lon="0.64783">
        <ele>133.3</ele>
        <time>2015-06-14T05:50:02.000Z</time>
      </trkpt>
      <trkpt lat="48.01988" lon="0.64804">
        <ele>132.6</ele>
        <time>2015-06-14T05:50:11.000Z</time>
      </trkpt>
      <trkpt lat="48.01988" lon="0.64809">
        <ele>132.5</ele>
        <time>2015-06-14T05:50:13.000Z</time>
      </trkpt>
      <trkpt lat="48.01991" lon="0.64825">
        <ele>131.9</ele>
        <time>2015-06-14T05:50:21.000Z</time>
      </trkpt>
      <trkpt lat="48.01994" lon="0.64846">
        <ele>131.2</ele>
        <time>2015-06-14T05:50:31.000Z</time>
      </trkpt>
      <trkpt lat="48.01995" lon="0.64856">
        <ele>130.8</ele>
        <time>2015-06-14T05:50:37.000Z</time>
      </trkpt>
      <trkpt lat="48.01996" lon="0.64863">
        <ele>130.6</ele>
        <time>2015-06-14T05:50:40.000Z</time>
      </trkpt>
      <trkpt lat="48.01998" lon="0.64876">
        <ele>129.8</ele>
        <time>2015-06-14T05:50:47.000Z</time>
      </trkpt>
      <trkpt lat="48.01999" lon="0.64887">
        <ele>129</ele>
        <time>2015-06-14T05:50:54.000Z</time>
      </trkpt>
      <trkpt lat="48.01996" lon="0.64895">
        <ele>128.4</ele>
        <time>2015-06-14T05:50:59.000Z</time>
      </trkpt>
      <trkpt lat="48.01996" lon="0.64902">
        <ele>127.9</ele>
        <time>2015-06-14T05:51:03.000Z</time>
      </trkpt>
      <trkpt lat="48.01999" lon="0.64913">
        <ele>127.2</ele>
        <time>2015-06-14T05:51:09.000Z</time>
      </trkpt>
      <trkpt lat="48.02" lon="0.64916">
        <ele>127</ele>
        <time>2015-06-14T05:51:11.000Z</time>
      </trkpt>
      <trkpt lat="48.02" lon="0.64921">
        <ele>126.9</ele>
        <time>2015-06-14T05:51:13.000Z</time>
      </trkpt>
      <trkpt lat="48.02004" lon="0.64928">
        <ele>126.8</ele>
        <time>2015-06-14T05:51:18.000Z</time>
      </trkpt>
      <trkpt lat="48.02004" lon="0.64928">
        <ele>126.8</ele>
        <time>2015-06-14T05:51:19.000Z</time>
      </trkpt>
      <trkpt lat="48.02009" lon="0.64936">
        <ele>126.7</ele>
        <time>2015-06-14T05:51:25.000Z</time>
      </trkpt>
      <trkpt lat="48.02008" lon="0.64939">
        <ele>126.5</ele>
        <time>2015-06-14T05:51:31.000Z</time>
      </trkpt>
      <trkpt lat="48.02009" lon="0.6494">
        <ele>126.5</ele>
        <time>2015-06-14T05:51:34.000Z</time>
      </trkpt>
      <trkpt lat="48.02011" lon="0.64947">
        <ele>126.3</ele>
        <time>2015-06-14T05:51:39.000Z</time>
      </trkpt>
      <trkpt lat="48.0201" lon="0.64948">
        <ele>126.2</ele>
        <time>2015-06-14T05:51:47.000Z</time>
      </trkpt>
      <trkpt lat="48.0201" lon="0.64955">
        <ele>126</ele>
        <time>2015-06-14T05:51:54.000Z</time>
      </trkpt>
      <trkpt lat="48.0201" lon="0.64957">
        <ele>125.9</ele>
        <time>2015-06-14T05:51:55.000Z</time>
      </trkpt>
      <trkpt lat="48.0201" lon="0.64963">
        <ele>125.7</ele>
        <time>2015-06-14T05:51:58.000Z</time>
      </trkpt>
      <trkpt lat="48.02012" lon="0.64976">
        <ele>125.3</ele>
        <time>2015-06-14T05:52:05.000Z</time>
      </trkpt>
      <trkpt lat="48.02014" lon="0.64989">
        <ele>124.9</ele>
        <time>2015-06-14T05:52:13.000Z</time>
      </trkpt>
      <trkpt lat="48.02016" lon="0.65003">
        <ele>124.4</ele>
        <time>2015-06-14T05:52:20.000Z</time>
      </trkpt>
      <trkpt lat="48.02015" lon="0.65005">
        <ele>124.3</ele>
        <time>2015-06-14T05:52:31.000Z</time>
      </trkpt>
      <trkpt lat="48.02017" lon="0.65011">
        <ele>124</ele>
        <time>2015-06-14T05:52:34.000Z</time>
      </trkpt>
      <trkpt lat="48.02024" lon="0.65011">
        <ele>124.1</ele>
        <time>2015-06-14T05:52:41.000Z</time>
      </trkpt>
      <trkpt lat="48.02033" lon="0.65008">
        <ele>124.9</ele>
        <time>2015-06-14T05:52:48.000Z</time>
      </trkpt>
      <trkpt lat="48.02041" lon="0.65006">
        <ele>125.6</ele>
        <time>2015-06-14T05:52:54.000Z</time>
      </trkpt>
      <trkpt lat="48.02048" lon="0.65002">
        <ele>126.4</ele>
        <time>2015-06-14T05:53:01.000Z</time>
      </trkpt>
      <trkpt lat="48.02059" lon="0.64996">
        <ele>127.2</ele>
        <time>2015-06-14T05:53:10.000Z</time>
      </trkpt>
      <trkpt lat="48.02062" lon="0.64994">
        <ele>127.4</ele>
        <time>2015-06-14T05:53:13.000Z</time>
      </trkpt>
      <trkpt lat="48.02064" lon="0.64988">
        <ele>127.8</ele>
        <time>2015-06-14T05:53:17.000Z</time>
      </trkpt>
      <trkpt lat="48.02062" lon="0.64973">
        <ele>128.2</ele>
        <time>2015-06-14T05:53:26.000Z</time>
      </trkpt>
      <trkpt lat="48.02059" lon="0.64951">
        <ele>128.8</ele>
        <time>2015-06-14T05:53:38.000Z</time>
      </trkpt>
      <trkpt lat="48.02057" lon="0.6494">
        <ele>129.2</ele>
        <time>2015-06-14T05:53:44.000Z</time>
      </trkpt>
      <trkpt lat="48.02057" lon="0.64931">
        <ele>129.5</ele>
        <time>2015-06-14T05:53:49.000Z</time>
      </trkpt>
      <trkpt lat="48.02063" lon="0.64924">
        <ele>129.9</ele>
        <time>2015-06-14T05:53:56.000Z</time>
      </trkpt>
      <trkpt lat="48.02071" lon="0.64922">
        <ele>130.3</ele>
        <time>2015-06-14T05:54:02.000Z</time>
      </trkpt>
      <trkpt lat="48.02073" lon="0.64921">
        <ele>130.4</ele>
        <time>2015-06-14T05:54:03.000Z</time>
      </trkpt>
      <trkpt lat="48.02082" lon="0.64916">
        <ele>131</ele>
        <time>2015-06-14T05:54:11.000Z</time>
      </trkpt>
      <trkpt lat="48.02086" lon="0.64914">
        <ele>131</ele>
        <time>2015-06-14T05:54:14.000Z</time>
      </trkpt>
      <trkpt lat="48.02098" lon="0.64912">
        <ele>130.6</ele>
        <time>2015-06-14T05:54:22.000Z</time>
      </trkpt>
      <trkpt lat="48.02108" lon="0.64909">
        <ele>130.4</ele>
        <time>2015-06-14T05:54:29.000Z</time>
      </trkpt>
      <trkpt lat="48.02119" lon="0.64904">
        <ele>130.2</ele>
        <time>2015-06-14T05:54:37.000Z</time>
      </trkpt>
      <trkpt lat="48.02131" lon="0.64898">
        <ele>129.9</ele>
        <time>2015-06-14T05:54:45.000Z</time>
      </trkpt>
      <trkpt lat="48.02145" lon="0.64891">
        <ele>129.9</ele>
        <time>2015-06-14T05:54:54.000Z</time>
      </trkpt>
      <trkpt lat="48.02147" lon="0.64889">
        <ele>130</ele>
        <time>2015-06-14T05:54:56.000Z</time>
      </trkpt>
      <trkpt lat="48.02143" lon="0.64876">
        <ele>130.4</ele>
        <time>2015-06-14T05:55:03.000Z</time>
      </trkpt>
      <trkpt lat="48.02139" lon="0.64869">
        <ele>130.7</ele>
        <time>2015-06-14T05:55:07.000Z</time>
      </trkpt>
      <trkpt lat="48.02135" lon="0.64853">
        <ele>131.4</ele>
        <time>2015-06-14T05:55:15.000Z</time>
      </trkpt>
      <trkpt lat="48.02132" lon="0.64837">
        <ele>131.9</ele>
        <time>2015-06-14T05:55:22.000Z</time>
      </trkpt>
      <trkpt lat="48.02128" lon="0.6482">
        <ele>132.2</ele>
        <time>2015-06-14T05:55:30.000Z</time>
      </trkpt>
      <trkpt lat="48.02127" lon="0.64815">
        <ele>132.3</ele>
        <time>2015-06-14T05:55:32.000Z</time>
      </trkpt>
      <trkpt lat="48.02127" lon="0.64799">
        <ele>132.7</ele>
        <time>2015-06-14T05:55:39.000Z</time>
      </trkpt>
      <trkpt lat="48.02123" lon="0.64783">
        <ele>133.3</ele>
        <time>2015-06-14T05:55:47.000Z</time>
      </trkpt>
      <trkpt lat="48.02118" lon="0.64764">
        <ele>133.6</ele>
        <time>2015-06-14T05:55:56.000Z</time>
      </trkpt>
      <trkpt lat="48.02112" lon="0.64739">
        <ele>134.4</ele>
        <time>2015-06-14T05:56:08.000Z</time>
      </trkpt>
      <trkpt lat="48.02112" lon="0.64735">
        <ele>134.5</ele>
        <time>2015-06-14T05:56:10.000Z</time>
      </trkpt>
      <trkpt lat="48.02127" lon="0.64723">
        <ele>135</ele>
        <time>2015-06-14T05:56:18.000Z</time>
      </trkpt>
      <trkpt lat="48.0214" lon="0.64714">
        <ele>134.9</ele>
        <time>2015-06-14T05:56:24.000Z</time>
      </trkpt>
      <trkpt lat="48.02155" lon="0.64703">
        <ele>134.2</ele>
        <time>2015-06-14T05:56:34.000Z</time>
      </trkpt>
      <trkpt lat="48.02168" lon="0.64695">
        <ele>133.9</ele>
        <time>2015-06-14T05:56:42.000Z</time>
      </trkpt>
      <trkpt lat="48.02181" lon="0.64687">
        <ele>133.8</ele>
        <time>2015-06-14T05:56:51.000Z</time>
      </trkpt>
      <trkpt lat="48.02194" lon="0.64677">
        <ele>133.6</ele>
        <time>2015-06-14T05:57:00.000Z</time>
      </trkpt>
      <trkpt lat="48.02196" lon="0.64677">
        <ele>133.6</ele>
        <time>2015-06-14T05:57:01.000Z</time>
      </trkpt>
      <trkpt lat="48.02198" lon="0.64675">
        <ele>133.6</ele>
        <time>2015-06-14T05:57:03.000Z</time>
      </trkpt>
      <trkpt lat="48.02214" lon="0.64665">
        <ele>133.3</ele>
        <time>2015-06-14T05:57:14.000Z</time>
      </trkpt>
      <trkpt lat="48.02232" lon="0.64653">
        <ele>132.8</ele>
        <time>2015-06-14T05:57:26.000Z</time>
      </trkpt>
      <trkpt lat="48.02244" lon="0.64641">
        <ele>132.9</ele>
        <time>2015-06-14T05:57:36.000Z</time>
      </trkpt>
      <trkpt lat="48.02245" lon="0.64638">
        <ele>133</ele>
        <time>2015-06-14T05:57:37.000Z</time>
      </trkpt>
      <trkpt lat="48.02241" lon="0.64622">
        <ele>133.6</ele>
        <time>2015-06-14T05:57:44.000Z</time>
      </trkpt>
      <trkpt lat="48.02234" lon="0.64604">
        <ele>134.3</ele>
        <time>2015-06-14T05:57:53.000Z</time>
      </trkpt>
      <trkpt lat="48.02229" lon="0.64582">
        <ele>135</ele>
        <time>2015-06-14T05:58:03.000Z</time>
      </trkpt>
      <trkpt lat="48.02227" lon="0.64565">
        <ele>135.7</ele>
        <time>2015-06-14T05:58:11.000Z</time>
      </trkpt>
      <trkpt lat="48.02229" lon="0.64553">
        <ele>136.3</ele>
        <time>2015-06-14T05:58:17.000Z</time>
      </trkpt>
      <trkpt lat="48.02236" lon="0.64548">
        <ele>136.7</ele>
        <time>2015-06-14T05:58:22.000Z</time>
      </trkpt>
      <trkpt lat="48.02254" lon="0.64538">
        <ele>137.2</ele>
        <time>2015-06-14T05:58:34.000Z</time>
      </trkpt>
      <trkpt lat="48.02272" lon="0.64526">
        <ele>137.3</ele>
        <time>2015-06-14T05:58:46.000Z</time>
      </trkpt>
      <trkpt lat="48.02287" lon="0.64511">
        <ele>137.8</ele>
        <time>2015-06-14T05:58:57.000Z</time>
      </trkpt>
      <trkpt lat="48.02298" lon="0.64496">
        <ele>137.7</ele>
        <time>2015-06-14T05:59:06.000Z</time>
      </trkpt>
      <trkpt lat="48.02307" lon="0.64479">
        <ele>137.7</ele>
        <time>2015-06-14T05:59:15.000Z</time>
      </trkpt>
      <trkpt lat="48.02317" lon="0.64474">
        <ele>138</ele>
        <time>2015-06-14T05:59:22.000Z</time>
      </trkpt>
      <trkpt lat="48.02325" lon="0.6447">
        <ele>138</ele>
        <time>2015-06-14T05:59:28.000Z</time>
      </trkpt>
      <trkpt lat="48.02334" lon="0.64468">
        <ele>137.8</ele>
        <time>2015-06-14T05:59:35.000Z</time>
      </trkpt>
      <trkpt lat="48.02343" lon="0.64466">
        <ele>137.1</ele>
        <time>2015-06-14T05:59:43.000Z</time>
      </trkpt>
      <trkpt lat="48.02353" lon="0.64465">
        <ele>136.5</ele>
        <time>2015-06-14T05:59:50.000Z</time>
      </trkpt>
      <trkpt lat="48.02362" lon="0.64466">
        <ele>136</ele>
        <time>2015-06-14T05:59:56.000Z</time>
      </trkpt>
      <trkpt lat="48.02375" lon="0.64479">
        <ele>135.5</ele>
        <time>2015-06-14T06:00:05.000Z</time>
      </trkpt>
      <trkpt lat="48.02391" lon="0.64496">
        <ele>134.9</ele>
        <time>2015-06-14T06:00:16.000Z</time>
      </trkpt>
      <trkpt lat="48.02404" lon="0.64513">
        <ele>134</ele>
        <time>2015-06-14T06:00:26.000Z</time>
      </trkpt>
      <trkpt lat="48.02414" lon="0.64526">
        <ele>133.2</ele>
        <time>2015-06-14T06:00:34.000Z</time>
      </trkpt>
      <trkpt lat="48.02428" lon="0.64543">
        <ele>132</ele>
        <time>2015-06-14T06:00:45.000Z</time>
      </trkpt>
      <trkpt lat="48.02442" lon="0.64561">
        <ele>130.9</ele>
        <time>2015-06-14T06:00:56.000Z</time>
      </trkpt>
      <trkpt lat="48.02454" lon="0.64578">
        <ele>129.8</ele>
        <time>2015-06-14T06:01:06.000Z</time>
      </trkpt>
      <trkpt lat="48.02468" lon="0.64596">
        <ele>128.7</ele>
        <time>2015-06-14T06:01:17.000Z</time>
      </trkpt>
      <trkpt lat="48.02481" lon="0.64615">
        <ele>128</ele>
        <time>2015-06-14T06:01:28.000Z</time>
      </trkpt>
      <trkpt lat="48.02496" lon="0.64634">
        <ele>127.3</ele>
        <time>2015-06-14T06:01:40.000Z</time>
      </trkpt>
      <trkpt lat="48.0251" lon="0.64654">
        <ele>126.3</ele>
        <time>2015-06-14T06:01:52.000Z</time>
      </trkpt>
      <trkpt lat="48.0252" lon="0.64669">
        <ele>125.3</ele>
        <time>2015-06-14T06:02:01.000Z</time>
      </trkpt>
      <trkpt lat="48.02531" lon="0.64685">
        <ele>124.9</ele>
        <time>2015-06-14T06:02:11.000Z</time>
      </trkpt>
      <trkpt lat="48.02545" lon="0.64705">
        <ele>124</ele>
        <time>2015-06-14T06:02:23.000Z</time>
      </trkpt>
      <trkpt lat="48.02558" lon="0.64723">
        <ele>123</ele>
        <time>2015-06-14T06:02:34.000Z</time>
      </trkpt>
      <trkpt lat="48.02569" lon="0.6474">
        <ele>122.7</ele>
        <time>2015-06-14T06:02:44.000Z</time>
      </trkpt>
      <trkpt lat="48.02575" lon="0.64757">
        <ele>122</ele>
        <time>2015-06-14T06:02:52.000Z</time>
      </trkpt>
      <trkpt lat="48.02582" lon="0.64772">
        <ele>121.3</ele>
        <time>2015-06-14T06:03:00.000Z</time>
      </trkpt>
      <trkpt lat="48.02591" lon="0.64796">
        <ele>120.7</ele>
        <time>2015-06-14T06:03:12.000Z</time>
      </trkpt>
      <trkpt lat="48.026" lon="0.64818">
        <ele>120.2</ele>
        <time>2015-06-14T06:03:23.000Z</time>
      </trkpt>
      <trkpt lat="48.02601" lon="0.64833">
        <ele>120</ele>
        <time>2015-06-14T06:03:30.000Z</time>
      </trkpt>
      <trkpt lat="48.02591" lon="0.64849">
        <ele>119.8</ele>
        <time>2015-06-14T06:03:39.000Z</time>
      </trkpt>
      <trkpt lat="48.02581" lon="0.64866">
        <ele>119.8</ele>
        <time>2015-06-14T06:03:48.000Z</time>
      </trkpt>
      <trkpt lat="48.02578" lon="0.64871">
        <ele>119.7</ele>
        <time>2015-06-14T06:03:51.000Z</time>
      </trkpt>
      <trkpt lat="48.02574" lon="0.64876">
        <ele>119.5</ele>
        <time>2015-06-14T06:03:54.000Z</time>
      </trkpt>
      <trkpt lat="48.02556" lon="0.64905">
        <ele>118.4</ele>
        <time>2015-06-14T06:04:11.000Z</time>
      </trkpt>
      <trkpt lat="48.02546" lon="0.6492">
        <ele>118.5</ele>
        <time>2015-06-14T06:04:20.000Z</time>
      </trkpt>
      <trkpt lat="48.02537" lon="0.64935">
        <ele>118.6</ele>
        <time>2015-06-14T06:04:29.000Z</time>
      </trkpt>
      <trkpt lat="48.02528" lon="0.64951">
        <ele>118.7</ele>
        <time>2015-06-14T06:04:38.000Z</time>
      </trkpt>
      <trkpt lat="48.0252" lon="0.64964">
        <ele>119.1</ele>
        <time>2015-06-14T06:04:46.000Z</time>
      </trkpt>
      <trkpt lat="48.02511" lon="0.64977">
        <ele>119.6</ele>
        <time>2015-06-14T06:04:54.000Z</time>
      </trkpt>
      <trkpt lat="48.02508" lon="0.64991">
        <ele>119.2</ele>
        <time>2015-06-14T06:05:01.000Z</time>
      </trkpt>
      <trkpt lat="48.02511" lon="0.65">
        <ele>118.6</ele>
        <time>2015-06-14T06:05:09.000Z</time>
      </trkpt>
      <trkpt lat="48.02511" lon="0.65">
        <ele>118.6</ele>
        <time>2015-06-14T06:05:13.000Z</time>
      </trkpt>
      <trkpt lat="48.0252" lon="0.65015">
        <ele>117.7</ele>
        <time>2015-06-14T06:05:22.000Z</time>
      </trkpt>
      <trkpt lat="48.02531" lon="0.65032">
        <ele>116.7</ele>
        <time>2015-06-14T06:05:33.000Z</time>
      </trkpt>
      <trkpt lat="48.0254" lon="0.65044">
        <ele>116.2</ele>
        <time>2015-06-14T06:05:41.000Z</time>
      </trkpt>
      <trkpt lat="48.02551" lon="0.6506">
        <ele>116</ele>
        <time>2015-06-14T06:05:51.000Z</time>
      </trkpt>
      <trkpt lat="48.02557" lon="0.6507">
        <ele>116</ele>
        <time>2015-06-14T06:05:57.000Z</time>
      </trkpt>
      <trkpt lat="48.02563" lon="0.65079">
        <ele>115.7</ele>
        <time>2015-06-14T06:06:03.000Z</time>
      </trkpt>
      <trkpt lat="48.02569" lon="0.65087">
        <ele>115.5</ele>
        <time>2015-06-14T06:06:08.000Z</time>
      </trkpt>
      <trkpt lat="48.02577" lon="0.65098">
        <ele>115.2</ele>
        <time>2015-06-14T06:06:15.000Z</time>
      </trkpt>
      <trkpt lat="48.02587" lon="0.65111">
        <ele>115.1</ele>
        <time>2015-06-14T06:06:23.000Z</time>
      </trkpt>
      <trkpt lat="48.02593" lon="0.65123">
        <ele>115.8</ele>
        <time>2015-06-14T06:06:30.000Z</time>
      </trkpt>
      <trkpt lat="48.026" lon="0.65135">
        <ele>116.5</ele>
        <time>2015-06-14T06:06:37.000Z</time>
      </trkpt>
      <trkpt lat="48.0261" lon="0.65149">
        <ele>117.3</ele>
        <time>2015-06-14T06:06:46.000Z</time>
      </trkpt>
      <trkpt lat="48.02613" lon="0.65158">
        <ele>117.8</ele>
        <time>2015-06-14T06:06:51.000Z</time>
      </trkpt>
      <trkpt lat="48.02604" lon="0.65174">
        <ele>118</ele>
        <time>2015-06-14T06:06:59.000Z</time>
      </trkpt>
      <trkpt lat="48.02591" lon="0.65191">
        <ele>118.2</ele>
        <time>2015-06-14T06:07:09.000Z</time>
      </trkpt>
      <trkpt lat="48.02581" lon="0.65205">
        <ele>118.2</ele>
        <time>2015-06-14T06:07:18.000Z</time>
      </trkpt>
      <trkpt lat="48.02576" lon="0.65215">
        <ele>118.3</ele>
        <time>2015-06-14T06:07:23.000Z</time>
      </trkpt>
      <trkpt lat="48.02571" lon="0.65225">
        <ele>118.2</ele>
        <time>2015-06-14T06:07:29.000Z</time>
      </trkpt>
      <trkpt lat="48.0256" lon="0.65235">
        <ele>117.7</ele>
        <time>2015-06-14T06:07:38.000Z</time>
      </trkpt>
      <trkpt lat="48.02549" lon="0.65243">
        <ele>117.8</ele>
        <time>2015-06-14T06:07:46.000Z</time>
      </trkpt>
      <trkpt lat="48.0254" lon="0.65253">
        <ele>118</ele>
        <time>2015-06-14T06:07:54.000Z</time>
      </trkpt>
      <trkpt lat="48.0253" lon="0.65266">
        <ele>118</ele>
        <time>2015-06-14T06:08:02.000Z</time>
      </trkpt>
      <trkpt lat="48.02521" lon="0.65285">
        <ele>118</ele>
        <time>2015-06-14T06:08:12.000Z</time>
      </trkpt>
      <trkpt lat="48.02516" lon="0.653">
        <ele>118.4</ele>
        <time>2015-06-14T06:08:19.000Z</time>
      </trkpt>
      <trkpt lat="48.02512" lon="0.6532">
        <ele>118.4</ele>
        <time>2015-06-14T06:08:28.000Z</time>
      </trkpt>
      <trkpt lat="48.02513" lon="0.65337">
        <ele>118.5</ele>
        <time>2015-06-14T06:08:36.000Z</time>
      </trkpt>
      <trkpt lat="48.02513" lon="0.65343">
        <ele>118.5</ele>
        <time>2015-06-14T06:08:41.000Z</time>
      </trkpt>
      <trkpt lat="48.02514" lon="0.65358">
        <ele>118.5</ele>
        <time>2015-06-14T06:08:48.000Z</time>
      </trkpt>
      <trkpt lat="48.02519" lon="0.6537">
        <ele>118.7</ele>
        <time>2015-06-14T06:08:55.000Z</time>
      </trkpt>
      <trkpt lat="48.02529" lon="0.65374">
        <ele>119</ele>
        <time>2015-06-14T06:09:02.000Z</time>
      </trkpt>
      <trkpt lat="48.02546" lon="0.65374">
        <ele>119.7</ele>
        <time>2015-06-14T06:09:14.000Z</time>
      </trkpt>
      <trkpt lat="48.02559" lon="0.65375">
        <ele>120.2</ele>
        <time>2015-06-14T06:09:22.000Z</time>
      </trkpt>
      <trkpt lat="48.02571" lon="0.65381">
        <ele>121</ele>
        <time>2015-06-14T06:09:31.000Z</time>
      </trkpt>
      <trkpt lat="48.02579" lon="0.65388">
        <ele>121.6</ele>
        <time>2015-06-14T06:09:37.000Z</time>
      </trkpt>
      <trkpt lat="48.02579" lon="0.65389">
        <ele>121.7</ele>
        <time>2015-06-14T06:09:38.000Z</time>
      </trkpt>
      <trkpt lat="48.02581" lon="0.65394">
        <ele>121.9</ele>
        <time>2015-06-14T06:09:41.000Z</time>
      </trkpt>
      <trkpt lat="48.0259" lon="0.65403">
        <ele>122.1</ele>
        <time>2015-06-14T06:09:48.000Z</time>
      </trkpt>
      <trkpt lat="48.02591" lon="0.65403">
        <ele>122.1</ele>
        <time>2015-06-14T06:09:49.000Z</time>
      </trkpt>
      <trkpt lat="48.02594" lon="0.65409">
        <ele>122.3</ele>
        <time>2015-06-14T06:09:52.000Z</time>
      </trkpt>
      <trkpt lat="48.026" lon="0.65422">
        <ele>122.6</ele>
        <time>2015-06-14T06:09:59.000Z</time>
      </trkpt>
      <trkpt lat="48.02612" lon="0.6544">
        <ele>123</ele>
        <time>2015-06-14T06:10:09.000Z</time>
      </trkpt>
      <trkpt lat="48.0262" lon="0.6545">
        <ele>123</ele>
        <time>2015-06-14T06:10:16.000Z</time>
      </trkpt>
      <trkpt lat="48.02627" lon="0.65461">
        <ele>123</ele>
        <time>2015-06-14T06:10:23.000Z</time>
      </trkpt>
      <trkpt lat="48.0263" lon="0.65465">
        <ele>123</ele>
        <time>2015-06-14T06:10:25.000Z</time>
      </trkpt>
      <trkpt lat="48.02635" lon="0.65471">
        <ele>123</ele>
        <time>2015-06-14T06:10:30.000Z</time>
      </trkpt>
      <trkpt lat="48.0264" lon="0.65478">
        <ele>123.2</ele>
        <time>2015-06-14T06:10:35.000Z</time>
      </trkpt>
      <trkpt lat="48.02643" lon="0.65481">
        <ele>123.4</ele>
        <time>2015-06-14T06:10:37.000Z</time>
      </trkpt>
      <trkpt lat="48.02654" lon="0.65493">
        <ele>123.9</ele>
        <time>2015-06-14T06:10:46.000Z</time>
      </trkpt>
      <trkpt lat="48.02661" lon="0.65502">
        <ele>124.1</ele>
        <time>2015-06-14T06:10:52.000Z</time>
      </trkpt>
      <trkpt lat="48.02669" lon="0.65514">
        <ele>124.5</ele>
        <time>2015-06-14T06:10:59.000Z</time>
      </trkpt>
      <trkpt lat="48.02678" lon="0.65527">
        <ele>125</ele>
        <time>2015-06-14T06:11:07.000Z</time>
      </trkpt>
      <trkpt lat="48.02687" lon="0.6554">
        <ele>125.3</ele>
        <time>2015-06-14T06:11:15.000Z</time>
      </trkpt>
      <trkpt lat="48.02696" lon="0.65554">
        <ele>126</ele>
        <time>2015-06-14T06:11:23.000Z</time>
      </trkpt>
      <trkpt lat="48.02702" lon="0.65563">
        <ele>126.5</ele>
        <time>2015-06-14T06:11:29.000Z</time>
      </trkpt>
      <trkpt lat="48.02711" lon="0.65575">
        <ele>127.3</ele>
        <time>2015-06-14T06:11:37.000Z</time>
      </trkpt>
      <trkpt lat="48.02722" lon="0.6559">
        <ele>128</ele>
        <time>2015-06-14T06:11:47.000Z</time>
      </trkpt>
      <trkpt lat="48.02731" lon="0.65602">
        <ele>128.3</ele>
        <time>2015-06-14T06:11:55.000Z</time>
      </trkpt>
      <trkpt lat="48.02733" lon="0.65605">
        <ele>128.4</ele>
        <time>2015-06-14T06:11:58.000Z</time>
      </trkpt>
      <trkpt lat="48.02739" lon="0.65612">
        <ele>128.6</ele>
        <time>2015-06-14T06:12:03.000Z</time>
      </trkpt>
      <trkpt lat="48.02747" lon="0.65621">
        <ele>129.2</ele>
        <time>2015-06-14T06:12:10.000Z</time>
      </trkpt>
      <trkpt lat="48.02749" lon="0.65625">
        <ele>129.5</ele>
        <time>2015-06-14T06:12:13.000Z</time>
      </trkpt>
      <trkpt lat="48.02757" lon="0.65638">
        <ele>130.8</ele>
        <time>2015-06-14T06:12:22.000Z</time>
      </trkpt>
      <trkpt lat="48.02767" lon="0.65647">
        <ele>132.3</ele>
        <time>2015-06-14T06:12:29.000Z</time>
      </trkpt>
      <trkpt lat="48.02776" lon="0.65657">
        <ele>134.1</ele>
        <time>2015-06-14T06:12:37.000Z</time>
      </trkpt>
      <trkpt lat="48.02785" lon="0.65668">
        <ele>135.9</ele>
        <time>2015-06-14T06:12:45.000Z</time>
      </trkpt>
      <trkpt lat="48.02794" lon="0.65678">
        <ele>137.3</ele>
        <time>2015-06-14T06:12:53.000Z</time>
      </trkpt>
      <trkpt lat="48.02803" lon="0.65689">
        <ele>138.6</ele>
        <time>2015-06-14T06:13:01.000Z</time>
      </trkpt>
      <trkpt lat="48.02812" lon="0.65701">
        <ele>139.9</ele>
        <time>2015-06-14T06:13:10.000Z</time>
      </trkpt>
      <trkpt lat="48.02819" lon="0.6571">
        <ele>140.8</ele>
        <time>2015-06-14T06:13:17.000Z</time>
      </trkpt>
      <trkpt lat="48.02826" lon="0.65721">
        <ele>141.7</ele>
        <time>2015-06-14T06:13:26.000Z</time>
      </trkpt>
      <trkpt lat="48.02833" lon="0.6573">
        <ele>142.6</ele>
        <time>2015-06-14T06:13:33.000Z</time>
      </trkpt>
      <trkpt lat="48.02844" lon="0.65742">
        <ele>144.2</ele>
        <time>2015-06-14T06:13:43.000Z</time>
      </trkpt>
      <trkpt lat="48.02851" lon="0.65751">
        <ele>145.3</ele>
        <time>2015-06-14T06:13:50.000Z</time>
      </trkpt>
      <trkpt lat="48.02857" lon="0.65758">
        <ele>146.3</ele>
        <time>2015-06-14T06:13:56.000Z</time>
      </trkpt>
      <trkpt lat="48.02863" lon="0.65765">
        <ele>147.2</ele>
        <time>2015-06-14T06:14:02.000Z</time>
      </trkpt>
      <trkpt lat="48.02868" lon="0.65772">
        <ele>148</ele>
        <time>2015-06-14T06:14:08.000Z</time>
      </trkpt>
      <trkpt lat="48.02876" lon="0.65779">
        <ele>149.3</ele>
        <time>2015-06-14T06:14:16.000Z</time>
      </trkpt>
      <trkpt lat="48.02884" lon="0.65788">
        <ele>150.8</ele>
        <time>2015-06-14T06:14:23.000Z</time>
      </trkpt>
      <trkpt lat="48.02895" lon="0.65798">
        <ele>152.4</ele>
        <time>2015-06-14T06:14:32.000Z</time>
      </trkpt>
      <trkpt lat="48.02898" lon="0.65802">
        <ele>152.9</ele>
        <time>2015-06-14T06:14:35.000Z</time>
      </trkpt>
      <trkpt lat="48.02907" lon="0.65809">
        <ele>154.1</ele>
        <time>2015-06-14T06:14:43.000Z</time>
      </trkpt>
      <trkpt lat="48.02913" lon="0.65814">
        <ele>155</ele>
        <time>2015-06-14T06:14:49.000Z</time>
      </trkpt>
      <trkpt lat="48.0292" lon="0.65819">
        <ele>156.1</ele>
        <time>2015-06-14T06:14:55.000Z</time>
      </trkpt>
      <trkpt lat="48.02926" lon="0.65826">
        <ele>157.4</ele>
        <time>2015-06-14T06:15:02.000Z</time>
      </trkpt>
      <trkpt lat="48.02936" lon="0.65835">
        <ele>158.9</ele>
        <time>2015-06-14T06:15:11.000Z</time>
      </trkpt>
      <trkpt lat="48.02942" lon="0.6584">
        <ele>159.9</ele>
        <time>2015-06-14T06:15:16.000Z</time>
      </trkpt>
      <trkpt lat="48.02943" lon="0.65841">
        <ele>160.1</ele>
        <time>2015-06-14T06:15:17.000Z</time>
      </trkpt>
      <trkpt lat="48.02951" lon="0.65849">
        <ele>161.6</ele>
        <time>2015-06-14T06:15:25.000Z</time>
      </trkpt>
      <trkpt lat="48.02959" lon="0.65853">
        <ele>162.7</ele>
        <time>2015-06-14T06:15:31.000Z</time>
      </trkpt>
      <trkpt lat="48.02966" lon="0.65856">
        <ele>163.8</ele>
        <time>2015-06-14T06:15:37.000Z</time>
      </trkpt>
      <trkpt lat="48.02974" lon="0.6586">
        <ele>164.8</ele>
        <time>2015-06-14T06:15:43.000Z</time>
      </trkpt>
      <trkpt lat="48.02983" lon="0.65866">
        <ele>165.7</ele>
        <time>2015-06-14T06:15:51.000Z</time>
      </trkpt>
      <trkpt lat="48.02985" lon="0.65868">
        <ele>166</ele>
        <time>2015-06-14T06:15:53.000Z</time>
      </trkpt>
      <trkpt lat="48.02989" lon="0.65871">
        <ele>166.4</ele>
        <time>2015-06-14T06:15:57.000Z</time>
      </trkpt>
      <trkpt lat="48.02995" lon="0.65876">
        <ele>167.1</ele>
        <time>2015-06-14T06:16:04.000Z</time>
      </trkpt>
      <trkpt lat="48.03014" lon="0.65891">
        <ele>169.2</ele>
        <time>2015-06-14T06:16:21.000Z</time>
      </trkpt>
      <trkpt lat="48.03025" lon="0.65901">
        <ele>169.9</ele>
        <time>2015-06-14T06:16:30.000Z</time>
      </trkpt>
      <trkpt lat="48.03035" lon="0.65908">
        <ele>170.4</ele>
        <time>2015-06-14T06:16:37.000Z</time>
      </trkpt>
      <trkpt lat="48.03043" lon="0.65915">
        <ele>170.9</ele>
        <time>2015-06-14T06:16:44.000Z</time>
      </trkpt>
      <trkpt lat="48.03049" lon="0.65925">
        <ele>171.6</ele>
        <time>2015-06-14T06:16:50.000Z</time>
      </trkpt>
      <trkpt lat="48.03058" lon="0.65942">
        <ele>172.8</ele>
        <time>2015-06-14T06:16:59.000Z</time>
      </trkpt>
      <trkpt lat="48.03066" lon="0.65959">
        <ele>173.5</ele>
        <time>2015-06-14T06:17:08.000Z</time>
      </trkpt>
      <trkpt lat="48.03075" lon="0.65973">
        <ele>174</ele>
        <time>2015-06-14T06:17:16.000Z</time>
      </trkpt>
      <trkpt lat="48.0309" lon="0.65992">
        <ele>174.2</ele>
        <time>2015-06-14T06:17:28.000Z</time>
      </trkpt>
      <trkpt lat="48.03102" lon="0.66007">
        <ele>174.7</ele>
        <time>2015-06-14T06:17:38.000Z</time>
      </trkpt>
      <trkpt lat="48.03102" lon="0.66009">
        <ele>174.7</ele>
        <time>2015-06-14T06:17:39.000Z</time>
      </trkpt>
      <trkpt lat="48.03101" lon="0.66015">
        <ele>174.6</ele>
        <time>2015-06-14T06:17:42.000Z</time>
      </trkpt>
      <trkpt lat="48.03092" lon="0.66024">
        <ele>174.3</ele>
        <time>2015-06-14T06:17:49.000Z</time>
      </trkpt>
      <trkpt lat="48.03084" lon="0.66033">
        <ele>174</ele>
        <time>2015-06-14T06:17:57.000Z</time>
      </trkpt>
      <trkpt lat="48.03077" lon="0.66043">
        <ele>174</ele>
        <time>2015-06-14T06:18:04.000Z</time>
      </trkpt>
      <trkpt lat="48.03072" lon="0.66047">
        <ele>174</ele>
        <time>2015-06-14T06:18:09.000Z</time>
      </trkpt>
      <trkpt lat="48.03062" lon="0.66056">
        <ele>174</ele>
        <time>2015-06-14T06:18:17.000Z</time>
      </trkpt>
      <trkpt lat="48.03057" lon="0.6606">
        <ele>174</ele>
        <time>2015-06-14T06:18:21.000Z</time>
      </trkpt>
      <trkpt lat="48.03055" lon="0.66063">
        <ele>174</ele>
        <time>2015-06-14T06:18:23.000Z</time>
      </trkpt>
      <trkpt lat="48.03051" lon="0.66068">
        <ele>174</ele>
        <time>2015-06-14T06:18:26.000Z</time>
      </trkpt>
      <trkpt lat="48.03046" lon="0.66072">
        <ele>174</ele>
        <time>2015-06-14T06:18:31.000Z</time>
      </trkpt>
      <trkpt lat="48.03042" lon="0.66075">
        <ele>174</ele>
        <time>2015-06-14T06:18:34.000Z</time>
      </trkpt>
      <trkpt lat="48.03038" lon="0.66079">
        <ele>174</ele>
        <time>2015-06-14T06:18:37.000Z</time>
      </trkpt>
      <trkpt lat="48.03029" lon="0.66087">
        <ele>174</ele>
        <time>2015-06-14T06:18:45.000Z</time>
      </trkpt>
      <trkpt lat="48.03026" lon="0.6609">
        <ele>174</ele>
        <time>2015-06-14T06:18:47.000Z</time>
      </trkpt>
      <trkpt lat="48.03017" lon="0.66098">
        <ele>174</ele>
        <time>2015-06-14T06:18:54.000Z</time>
      </trkpt>
      <trkpt lat="48.0301" lon="0.66103">
        <ele>174</ele>
        <time>2015-06-14T06:18:59.000Z</time>
      </trkpt>
      <trkpt lat="48.03006" lon="0.66106">
        <ele>174</ele>
        <time>2015-06-14T06:19:02.000Z</time>
      </trkpt>
      <trkpt lat="48.02999" lon="0.6611">
        <ele>174</ele>
        <time>2015-06-14T06:19:07.000Z</time>
      </trkpt>
      <trkpt lat="48.02988" lon="0.66119">
        <ele>174</ele>
        <time>2015-06-14T06:19:16.000Z</time>
      </trkpt>
      <trkpt lat="48.02982" lon="0.66122">
        <ele>174</ele>
        <time>2015-06-14T06:19:19.000Z</time>
      </trkpt>
      <trkpt lat="48.02975" lon="0.66127">
        <ele>174</ele>
        <time>2015-06-14T06:19:23.000Z</time>
      </trkpt>
      <trkpt lat="48.02965" lon="0.66137">
        <ele>174</ele>
        <time>2015-06-14T06:19:30.000Z</time>
      </trkpt>
      <trkpt lat="48.02961" lon="0.6614">
        <ele>174</ele>
        <time>2015-06-14T06:19:33.000Z</time>
      </trkpt>
      <trkpt lat="48.02957" lon="0.66143">
        <ele>174</ele>
        <time>2015-06-14T06:19:36.000Z</time>
      </trkpt>
      <trkpt lat="48.0295" lon="0.6615">
        <ele>174</ele>
        <time>2015-06-14T06:19:42.000Z</time>
      </trkpt>
      <trkpt lat="48.02943" lon="0.66156">
        <ele>174</ele>
        <time>2015-06-14T06:19:48.000Z</time>
      </trkpt>
      <trkpt lat="48.02937" lon="0.66163">
        <ele>173.7</ele>
        <time>2015-06-14T06:19:53.000Z</time>
      </trkpt>
      <trkpt lat="48.02932" lon="0.66168">
        <ele>173.5</ele>
        <time>2015-06-14T06:19:58.000Z</time>
      </trkpt>
      <trkpt lat="48.02929" lon="0.66171">
        <ele>173.4</ele>
        <time>2015-06-14T06:20:01.000Z</time>
      </trkpt>
      <trkpt lat="48.02927" lon="0.66173">
        <ele>173.3</ele>
        <time>2015-06-14T06:20:03.000Z</time>
      </trkpt>
      <trkpt lat="48.02924" lon="0.66174">
        <ele>173.2</ele>
        <time>2015-06-14T06:20:05.000Z</time>
      </trkpt>
      <trkpt lat="48.02919" lon="0.6618">
        <ele>173</ele>
        <time>2015-06-14T06:20:10.000Z</time>
      </trkpt>
      <trkpt lat="48.02911" lon="0.66187">
        <ele>173</ele>
        <time>2015-06-14T06:20:16.000Z</time>
      </trkpt>
      <trkpt lat="48.02908" lon="0.66188">
        <ele>173</ele>
        <time>2015-06-14T06:20:18.000Z</time>
      </trkpt>
      <trkpt lat="48.02906" lon="0.6619">
        <ele>173</ele>
        <time>2015-06-14T06:20:20.000Z</time>
      </trkpt>
      <trkpt lat="48.02892" lon="0.66196">
        <ele>173</ele>
        <time>2015-06-14T06:20:29.000Z</time>
      </trkpt>
      <trkpt lat="48.0289" lon="0.66195">
        <ele>173</ele>
        <time>2015-06-14T06:20:30.000Z</time>
      </trkpt>
      <trkpt lat="48.02879" lon="0.66196">
        <ele>172.6</ele>
        <time>2015-06-14T06:20:36.000Z</time>
      </trkpt>
      <trkpt lat="48.02863" lon="0.66199">
        <ele>171.9</ele>
        <time>2015-06-14T06:20:44.000Z</time>
      </trkpt>
      <trkpt lat="48.02851" lon="0.66207">
        <ele>171.2</ele>
        <time>2015-06-14T06:20:51.000Z</time>
      </trkpt>
      <trkpt lat="48.02846" lon="0.6621">
        <ele>170.9</ele>
        <time>2015-06-14T06:20:54.000Z</time>
      </trkpt>
      <trkpt lat="48.02817" lon="0.66233">
        <ele>168.4</ele>
        <time>2015-06-14T06:21:15.000Z</time>
      </trkpt>
      <trkpt lat="48.02806" lon="0.66242">
        <ele>167.3</ele>
        <time>2015-06-14T06:21:23.000Z</time>
      </trkpt>
      <trkpt lat="48.02797" lon="0.66253">
        <ele>165.8</ele>
        <time>2015-06-14T06:21:31.000Z</time>
      </trkpt>
      <trkpt lat="48.0279" lon="0.66261">
        <ele>164.7</ele>
        <time>2015-06-14T06:21:37.000Z</time>
      </trkpt>
      <trkpt lat="48.02786" lon="0.66266">
        <ele>164.3</ele>
        <time>2015-06-14T06:21:40.000Z</time>
      </trkpt>
      <trkpt lat="48.02785" lon="0.66276">
        <ele>164.1</ele>
        <time>2015-06-14T06:21:46.000Z</time>
      </trkpt>
      <trkpt lat="48.02785" lon="0.66277">
        <ele>164</ele>
        <time>2015-06-14T06:21:47.000Z</time>
      </trkpt>
      <trkpt lat="48.0278" lon="0.66291">
        <ele>163.7</ele>
        <time>2015-06-14T06:21:54.000Z</time>
      </trkpt>
      <trkpt lat="48.02773" lon="0.66302">
        <ele>163</ele>
        <time>2015-06-14T06:22:01.000Z</time>
      </trkpt>
      <trkpt lat="48.02772" lon="0.66318">
        <ele>162.9</ele>
        <time>2015-06-14T06:22:08.000Z</time>
      </trkpt>
      <trkpt lat="48.02771" lon="0.66335">
        <ele>162.8</ele>
        <time>2015-06-14T06:22:16.000Z</time>
      </trkpt>
      <trkpt lat="48.0277" lon="0.66357">
        <ele>162.6</ele>
        <time>2015-06-14T06:22:26.000Z</time>
      </trkpt>
      <trkpt lat="48.02769" lon="0.66376">
        <ele>162.3</ele>
        <time>2015-06-14T06:22:35.000Z</time>
      </trkpt>
      <trkpt lat="48.02764" lon="0.66393">
        <ele>161.5</ele>
        <time>2015-06-14T06:22:43.000Z</time>
      </trkpt>
      <trkpt lat="48.0276" lon="0.66399">
        <ele>161</ele>
        <time>2015-06-14T06:22:47.000Z</time>
      </trkpt>
      <trkpt lat="48.02756" lon="0.66409">
        <ele>160.6</ele>
        <time>2015-06-14T06:22:53.000Z</time>
      </trkpt>
      <trkpt lat="48.02753" lon="0.66413">
        <ele>160.3</ele>
        <time>2015-06-14T06:22:56.000Z</time>
      </trkpt>
      <trkpt lat="48.02749" lon="0.66423">
        <ele>159.8</ele>
        <time>2015-06-14T06:23:02.000Z</time>
      </trkpt>
      <trkpt lat="48.02755" lon="0.6643">
        <ele>160.8</ele>
        <time>2015-06-14T06:23:10.000Z</time>
      </trkpt>
      <trkpt lat="48.02757" lon="0.66431">
        <ele>161.2</ele>
        <time>2015-06-14T06:23:13.000Z</time>
      </trkpt>
      <trkpt lat="48.02764" lon="0.66434">
        <ele>162.3</ele>
        <time>2015-06-14T06:23:20.000Z</time>
      </trkpt>
      <trkpt lat="48.02769" lon="0.66437">
        <ele>163.3</ele>
        <time>2015-06-14T06:23:26.000Z</time>
      </trkpt>
      <trkpt lat="48.02777" lon="0.66444">
        <ele>164.8</ele>
        <time>2015-06-14T06:23:33.000Z</time>
      </trkpt>
      <trkpt lat="48.0279" lon="0.66451">
        <ele>165.9</ele>
        <time>2015-06-14T06:23:43.000Z</time>
      </trkpt>
      <trkpt lat="48.02796" lon="0.66456">
        <ele>166.3</ele>
        <time>2015-06-14T06:23:49.000Z</time>
      </trkpt>
      <trkpt lat="48.02804" lon="0.66463">
        <ele>166.9</ele>
        <time>2015-06-14T06:23:56.000Z</time>
      </trkpt>
      <trkpt lat="48.02811" lon="0.66463">
        <ele>167.2</ele>
        <time>2015-06-14T06:24:01.000Z</time>
      </trkpt>
      <trkpt lat="48.02815" lon="0.6646">
        <ele>167.3</ele>
        <time>2015-06-14T06:24:07.000Z</time>
      </trkpt>
      <trkpt lat="48.02818" lon="0.66457">
        <ele>167.5</ele>
        <time>2015-06-14T06:24:12.000Z</time>
      </trkpt>
      <trkpt lat="48.02826" lon="0.66456">
        <ele>167.7</ele>
        <time>2015-06-14T06:24:19.000Z</time>
      </trkpt>
      <trkpt lat="48.02828" lon="0.66456">
        <ele>167.8</ele>
        <time>2015-06-14T06:24:21.000Z</time>
      </trkpt>
      <trkpt lat="48.02835" lon="0.66461">
        <ele>168.1</ele>
        <time>2015-06-14T06:24:26.000Z</time>
      </trkpt>
      <trkpt lat="48.02839" lon="0.66466">
        <ele>168.2</ele>
        <time>2015-06-14T06:24:32.000Z</time>
      </trkpt>
      <trkpt lat="48.02841" lon="0.66466">
        <ele>168.3</ele>
        <time>2015-06-14T06:24:36.000Z</time>
      </trkpt>
      <trkpt lat="48.02845" lon="0.66473">
        <ele>168.4</ele>
        <time>2015-06-14T06:24:41.000Z</time>
      </trkpt>
      <trkpt lat="48.0285" lon="0.66487">
        <ele>168.1</ele>
        <time>2015-06-14T06:24:48.000Z</time>
      </trkpt>
      <trkpt lat="48.02853" lon="0.66497">
        <ele>167.8</ele>
        <time>2015-06-14T06:24:53.000Z</time>
      </trkpt>
      <trkpt lat="48.02857" lon="0.66506">
        <ele>167.6</ele>
        <time>2015-06-14T06:24:59.000Z</time>
      </trkpt>
      <trkpt lat="48.02859" lon="0.6651">
        <ele>167.6</ele>
        <time>2015-06-14T06:25:01.000Z</time>
      </trkpt>
      <trkpt lat="48.02865" lon="0.66522">
        <ele>167.2</ele>
        <time>2015-06-14T06:25:07.000Z</time>
      </trkpt>
      <trkpt lat="48.02869" lon="0.66528">
        <ele>167</ele>
        <time>2015-06-14T06:25:14.000Z</time>
      </trkpt>
      <trkpt lat="48.0287" lon="0.66528">
        <ele>167</ele>
        <time>2015-06-14T06:25:15.000Z</time>
      </trkpt>
      <trkpt lat="48.02882" lon="0.66528">
        <ele>167</ele>
        <time>2015-06-14T06:25:25.000Z</time>
      </trkpt>
      <trkpt lat="48.02883" lon="0.66529">
        <ele>167</ele>
        <time>2015-06-14T06:25:26.000Z</time>
      </trkpt>
      <trkpt lat="48.02884" lon="0.6653">
        <ele>166.9</ele>
        <time>2015-06-14T06:25:29.000Z</time>
      </trkpt>
      <trkpt lat="48.02878" lon="0.6653">
        <ele>166.9</ele>
        <time>2015-06-14T06:25:36.000Z</time>
      </trkpt>
      <trkpt lat="48.02873" lon="0.66532">
        <ele>166.8</ele>
        <time>2015-06-14T06:25:41.000Z</time>
      </trkpt>
      <trkpt lat="48.02866" lon="0.66539">
        <ele>166.3</ele>
        <time>2015-06-14T06:25:49.000Z</time>
      </trkpt>
      <trkpt lat="48.02863" lon="0.66541">
        <ele>166.1</ele>
        <time>2015-06-14T06:25:52.000Z</time>
      </trkpt>
      <trkpt lat="48.02863" lon="0.6654">
        <ele>166.2</ele>
        <time>2015-06-14T06:25:55.000Z</time>
      </trkpt>
      <trkpt lat="48.0286" lon="0.66524">
        <ele>167.1</ele>
        <time>2015-06-14T06:26:01.000Z</time>
      </trkpt>
      <trkpt lat="48.02858" lon="0.66515">
        <ele>167.3</ele>
        <time>2015-06-14T06:26:06.000Z</time>
      </trkpt>
      <trkpt lat="48.02858" lon="0.66513">
        <ele>167.4</ele>
        <time>2015-06-14T06:26:07.000Z</time>
      </trkpt>
      <trkpt lat="48.02857" lon="0.6651">
        <ele>167.5</ele>
        <time>2015-06-14T06:26:09.000Z</time>
      </trkpt>
      <trkpt lat="48.02854" lon="0.66499">
        <ele>167.8</ele>
        <time>2015-06-14T06:26:14.000Z</time>
      </trkpt>
      <trkpt lat="48.02853" lon="0.66496">
        <ele>167.9</ele>
        <time>2015-06-14T06:26:16.000Z</time>
      </trkpt>
      <trkpt lat="48.02852" lon="0.66492">
        <ele>168</ele>
        <time>2015-06-14T06:26:18.000Z</time>
      </trkpt>
      <trkpt lat="48.0285" lon="0.66486">
        <ele>168.1</ele>
        <time>2015-06-14T06:26:22.000Z</time>
      </trkpt>
      <trkpt lat="48.02847" lon="0.6648">
        <ele>168.2</ele>
        <time>2015-06-14T06:26:25.000Z</time>
      </trkpt>
      <trkpt lat="48.02838" lon="0.66475">
        <ele>168.1</ele>
        <time>2015-06-14T06:26:31.000Z</time>
      </trkpt>
      <trkpt lat="48.02831" lon="0.66471">
        <ele>167.9</ele>
        <time>2015-06-14T06:26:36.000Z</time>
      </trkpt>
      <trkpt lat="48.02824" lon="0.66471">
        <ele>167.7</ele>
        <time>2015-06-14T06:26:41.000Z</time>
      </trkpt>
      <trkpt lat="48.02823" lon="0.6647">
        <ele>167.6</ele>
        <time>2015-06-14T06:26:42.000Z</time>
      </trkpt>
      <trkpt lat="48.0282" lon="0.66469">
        <ele>167.5</ele>
        <time>2015-06-14T06:26:44.000Z</time>
      </trkpt>
      <trkpt lat="48.02819" lon="0.66453">
        <ele>167.5</ele>
        <time>2015-06-14T06:26:51.000Z</time>
      </trkpt>
      <trkpt lat="48.02823" lon="0.66447">
        <ele>167.6</ele>
        <time>2015-06-14T06:26:55.000Z</time>
      </trkpt>
      <trkpt lat="48.02827" lon="0.66433">
        <ele>167.5</ele>
        <time>2015-06-14T06:27:01.000Z</time>
      </trkpt>
      <trkpt lat="48.02833" lon="0.66414">
        <ele>167</ele>
        <time>2015-06-14T06:27:10.000Z</time>
      </trkpt>
      <trkpt lat="48.02837" lon="0.66405">
        <ele>167.1</ele>
        <time>2015-06-14T06:27:16.000Z</time>
      </trkpt>
      <trkpt lat="48.0284" lon="0.66399">
        <ele>167.2</ele>
        <time>2015-06-14T06:27:19.000Z</time>
      </trkpt>
      <trkpt lat="48.02843" lon="0.66392">
        <ele>167.4</ele>
        <time>2015-06-14T06:27:24.000Z</time>
      </trkpt>
      <trkpt lat="48.02846" lon="0.66389">
        <ele>167.5</ele>
        <time>2015-06-14T06:27:26.000Z</time>
      </trkpt>
      <trkpt lat="48.02851" lon="0.66381">
        <ele>167.6</ele>
        <time>2015-06-14T06:27:32.000Z</time>
      </trkpt>
      <trkpt lat="48.02856" lon="0.66372">
        <ele>167.8</ele>
        <time>2015-06-14T06:27:37.000Z</time>
      </trkpt>
      <trkpt lat="48.02859" lon="0.66367">
        <ele>167.9</ele>
        <time>2015-06-14T06:27:41.000Z</time>
      </trkpt>
      <trkpt lat="48.02865" lon="0.66362">
        <ele>168.3</ele>
        <time>2015-06-14T06:27:46.000Z</time>
      </trkpt>
      <trkpt lat="48.0287" lon="0.66356">
        <ele>168.6</ele>
        <time>2015-06-14T06:27:51.000Z</time>
      </trkpt>
      <trkpt lat="48.02876" lon="0.6635">
        <ele>169.1</ele>
        <time>2015-06-14T06:27:56.000Z</time>
      </trkpt>
      <trkpt lat="48.02877" lon="0.66348">
        <ele>169.1</ele>
        <time>2015-06-14T06:27:57.000Z</time>
      </trkpt>
      <trkpt lat="48.02878" lon="0.66347">
        <ele>169.2</ele>
        <time>2015-06-14T06:27:58.000Z</time>
      </trkpt>
      <trkpt lat="48.02881" lon="0.6634">
        <ele>169.5</ele>
        <time>2015-06-14T06:28:02.000Z</time>
      </trkpt>
      <trkpt lat="48.02886" lon="0.66331">
        <ele>169.8</ele>
        <time>2015-06-14T06:28:06.000Z</time>
      </trkpt>
      <trkpt lat="48.02889" lon="0.66328">
        <ele>170</ele>
        <time>2015-06-14T06:28:07.000Z</time>
      </trkpt>
      <trkpt lat="48.02894" lon="0.6632">
        <ele>170.2</ele>
        <time>2015-06-14T06:28:11.000Z</time>
      </trkpt>
      <trkpt lat="48.029" lon="0.66313">
        <ele>170.4</ele>
        <time>2015-06-14T06:28:15.000Z</time>
      </trkpt>
      <trkpt lat="48.02908" lon="0.66301">
        <ele>170.9</ele>
        <time>2015-06-14T06:28:22.000Z</time>
      </trkpt>
      <trkpt lat="48.02909" lon="0.66299">
        <ele>171</ele>
        <time>2015-06-14T06:28:23.000Z</time>
      </trkpt>
      <trkpt lat="48.02911" lon="0.66295">
        <ele>171.2</ele>
        <time>2015-06-14T06:28:25.000Z</time>
      </trkpt>
      <trkpt lat="48.02919" lon="0.66286">
        <ele>171.7</ele>
        <time>2015-06-14T06:28:32.000Z</time>
      </trkpt>
      <trkpt lat="48.0292" lon="0.66284">
        <ele>171.8</ele>
        <time>2015-06-14T06:28:33.000Z</time>
      </trkpt>
      <trkpt lat="48.02921" lon="0.66282">
        <ele>171.9</ele>
        <time>2015-06-14T06:28:35.000Z</time>
      </trkpt>
      <trkpt lat="48.02926" lon="0.66276">
        <ele>172</ele>
        <time>2015-06-14T06:28:39.000Z</time>
      </trkpt>
      <trkpt lat="48.02931" lon="0.66272">
        <ele>172</ele>
        <time>2015-06-14T06:28:44.000Z</time>
      </trkpt>
      <trkpt lat="48.02933" lon="0.6627">
        <ele>172</ele>
        <time>2015-06-14T06:28:46.000Z</time>
      </trkpt>
      <trkpt lat="48.02933" lon="0.66267">
        <ele>172</ele>
        <time>2015-06-14T06:28:48.000Z</time>
      </trkpt>
      <trkpt lat="48.02935" lon="0.66264">
        <ele>172</ele>
        <time>2015-06-14T06:28:50.000Z</time>
      </trkpt>
      <trkpt lat="48.02939" lon="0.66259">
        <ele>172</ele>
        <time>2015-06-14T06:28:55.000Z</time>
      </trkpt>
      <trkpt lat="48.02942" lon="0.66255">
        <ele>172</ele>
        <time>2015-06-14T06:28:58.000Z</time>
      </trkpt>
      <trkpt lat="48.02948" lon="0.66247">
        <ele>172.2</ele>
        <time>2015-06-14T06:29:03.000Z</time>
      </trkpt>
      <trkpt lat="48.02951" lon="0.66241">
        <ele>172.5</ele>
        <time>2015-06-14T06:29:07.000Z</time>
      </trkpt>
      <trkpt lat="48.02958" lon="0.66233">
        <ele>172.8</ele>
        <time>2015-06-14T06:29:13.000Z</time>
      </trkpt>
      <trkpt lat="48.02964" lon="0.66227">
        <ele>172.9</ele>
        <time>2015-06-14T06:29:17.000Z</time>
      </trkpt>
      <trkpt lat="48.02969" lon="0.66219">
        <ele>173</ele>
        <time>2015-06-14T06:29:22.000Z</time>
      </trkpt>
      <trkpt lat="48.02974" lon="0.66213">
        <ele>173</ele>
        <time>2015-06-14T06:29:26.000Z</time>
      </trkpt>
      <trkpt lat="48.02982" lon="0.66204">
        <ele>173</ele>
        <time>2015-06-14T06:29:32.000Z</time>
      </trkpt>
      <trkpt lat="48.02983" lon="0.66202">
        <ele>173</ele>
        <time>2015-06-14T06:29:33.000Z</time>
      </trkpt>
      <trkpt lat="48.0299" lon="0.66193">
        <ele>173.1</ele>
        <time>2015-06-14T06:29:39.000Z</time>
      </trkpt>
      <trkpt lat="48.02993" lon="0.66191">
        <ele>173.1</ele>
        <time>2015-06-14T06:29:40.000Z</time>
      </trkpt>
      <trkpt lat="48.02997" lon="0.66188">
        <ele>173.2</ele>
        <time>2015-06-14T06:29:43.000Z</time>
      </trkpt>
      <trkpt lat="48.03002" lon="0.66182">
        <ele>173.4</ele>
        <time>2015-06-14T06:29:47.000Z</time>
      </trkpt>
      <trkpt lat="48.03005" lon="0.66179">
        <ele>173.5</ele>
        <time>2015-06-14T06:29:49.000Z</time>
      </trkpt>
      <trkpt lat="48.03007" lon="0.66175">
        <ele>173.5</ele>
        <time>2015-06-14T06:29:51.000Z</time>
      </trkpt>
      <trkpt lat="48.03012" lon="0.66165">
        <ele>173.6</ele>
        <time>2015-06-14T06:29:56.000Z</time>
      </trkpt>
      <trkpt lat="48.03013" lon="0.66164">
        <ele>173.5</ele>
        <time>2015-06-14T06:29:57.000Z</time>
      </trkpt>
      <trkpt lat="48.03016" lon="0.66161">
        <ele>173.4</ele>
        <time>2015-06-14T06:29:59.000Z</time>
      </trkpt>
      <trkpt lat="48.0302" lon="0.66154">
        <ele>173.3</ele>
        <time>2015-06-14T06:30:02.000Z</time>
      </trkpt>
      <trkpt lat="48.03029" lon="0.66145">
        <ele>172.9</ele>
        <time>2015-06-14T06:30:09.000Z</time>
      </trkpt>
      <trkpt lat="48.03033" lon="0.66142">
        <ele>172.8</ele>
        <time>2015-06-14T06:30:11.000Z</time>
      </trkpt>
      <trkpt lat="48.03041" lon="0.66133">
        <ele>172.8</ele>
        <time>2015-06-14T06:30:17.000Z</time>
      </trkpt>
      <trkpt lat="48.03046" lon="0.66125">
        <ele>172.8</ele>
        <time>2015-06-14T06:30:22.000Z</time>
      </trkpt>
      <trkpt lat="48.03053" lon="0.66118">
        <ele>172.8</ele>
        <time>2015-06-14T06:30:26.000Z</time>
      </trkpt>
      <trkpt lat="48.03056" lon="0.66116">
        <ele>172.8</ele>
        <time>2015-06-14T06:30:28.000Z</time>
      </trkpt>
      <trkpt lat="48.03061" lon="0.6611">
        <ele>173</ele>
        <time>2015-06-14T06:30:32.000Z</time>
      </trkpt>
      <trkpt lat="48.03068" lon="0.66101">
        <ele>173.4</ele>
        <time>2015-06-14T06:30:38.000Z</time>
      </trkpt>
      <trkpt lat="48.03074" lon="0.66106">
        <ele>173.2</ele>
        <time>2015-06-14T06:30:43.000Z</time>
      </trkpt>
      <trkpt lat="48.03075" lon="0.66108">
        <ele>173.1</ele>
        <time>2015-06-14T06:30:44.000Z</time>
      </trkpt>
      <trkpt lat="48.03079" lon="0.66124">
        <ele>172.5</ele>
        <time>2015-06-14T06:30:51.000Z</time>
      </trkpt>
      <trkpt lat="48.03079" lon="0.66134">
        <ele>172.2</ele>
        <time>2015-06-14T06:30:56.000Z</time>
      </trkpt>
      <trkpt lat="48.03082" lon="0.66149">
        <ele>172</ele>
        <time>2015-06-14T06:31:03.000Z</time>
      </trkpt>
      <trkpt lat="48.03083" lon="0.66162">
        <ele>172</ele>
        <time>2015-06-14T06:31:09.000Z</time>
      </trkpt>
      <trkpt lat="48.03083" lon="0.66168">
        <ele>171.9</ele>
        <time>2015-06-14T06:31:12.000Z</time>
      </trkpt>
      <trkpt lat="48.0308" lon="0.66175">
        <ele>171.7</ele>
        <time>2015-06-14T06:31:17.000Z</time>
      </trkpt>
      <trkpt lat="48.03074" lon="0.66187">
        <ele>171.5</ele>
        <time>2015-06-14T06:31:24.000Z</time>
      </trkpt>
      <trkpt lat="48.03073" lon="0.66201">
        <ele>171.1</ele>
        <time>2015-06-14T06:31:30.000Z</time>
      </trkpt>
      <trkpt lat="48.03072" lon="0.66207">
        <ele>171</ele>
        <time>2015-06-14T06:31:32.000Z</time>
      </trkpt>
      <trkpt lat="48.03073" lon="0.66225">
        <ele>170.3</ele>
        <time>2015-06-14T06:31:39.000Z</time>
      </trkpt>
      <trkpt lat="48.03072" lon="0.66228">
        <ele>170.3</ele>
        <time>2015-06-14T06:31:40.000Z</time>
      </trkpt>
      <trkpt lat="48.03071" lon="0.66243">
        <ele>170</ele>
        <time>2015-06-14T06:31:47.000Z</time>
      </trkpt>
      <trkpt lat="48.03071" lon="0.66246">
        <ele>170</ele>
        <time>2015-06-14T06:31:48.000Z</time>
      </trkpt>
      <trkpt lat="48.0307" lon="0.66255">
        <ele>169.8</ele>
        <time>2015-06-14T06:31:52.000Z</time>
      </trkpt>
      <trkpt lat="48.03071" lon="0.66271">
        <ele>169.1</ele>
        <time>2015-06-14T06:31:58.000Z</time>
      </trkpt>
      <trkpt lat="48.03071" lon="0.66274">
        <ele>169</ele>
        <time>2015-06-14T06:31:59.000Z</time>
      </trkpt>
      <trkpt lat="48.03075" lon="0.66292">
        <ele>168.1</ele>
        <time>2015-06-14T06:32:06.000Z</time>
      </trkpt>
      <trkpt lat="48.03077" lon="0.663">
        <ele>167.6</ele>
        <time>2015-06-14T06:32:10.000Z</time>
      </trkpt>
      <trkpt lat="48.0308" lon="0.6631">
        <ele>167.1</ele>
        <time>2015-06-14T06:32:15.000Z</time>
      </trkpt>
      <trkpt lat="48.03081" lon="0.66315">
        <ele>166.8</ele>
        <time>2015-06-14T06:32:17.000Z</time>
      </trkpt>
      <trkpt lat="48.03084" lon="0.66326">
        <ele>166.2</ele>
        <time>2015-06-14T06:32:22.000Z</time>
      </trkpt>
      <trkpt lat="48.03086" lon="0.66339">
        <ele>165.8</ele>
        <time>2015-06-14T06:32:28.000Z</time>
      </trkpt>
      <trkpt lat="48.03087" lon="0.66342">
        <ele>165.7</ele>
        <time>2015-06-14T06:32:29.000Z</time>
      </trkpt>
      <trkpt lat="48.03092" lon="0.66361">
        <ele>165.1</ele>
        <time>2015-06-14T06:32:37.000Z</time>
      </trkpt>
      <trkpt lat="48.03094" lon="0.66381">
        <ele>165.2</ele>
        <time>2015-06-14T06:32:45.000Z</time>
      </trkpt>
      <trkpt lat="48.03093" lon="0.66384">
        <ele>165.2</ele>
        <time>2015-06-14T06:32:46.000Z</time>
      </trkpt>
      <trkpt lat="48.03092" lon="0.66394">
        <ele>165.4</ele>
        <time>2015-06-14T06:32:52.000Z</time>
      </trkpt>
      <trkpt lat="48.03091" lon="0.66405">
        <ele>165.4</ele>
        <time>2015-06-14T06:32:57.000Z</time>
      </trkpt>
      <trkpt lat="48.03087" lon="0.66425">
        <ele>166</ele>
        <time>2015-06-14T06:33:06.000Z</time>
      </trkpt>
      <trkpt lat="48.03086" lon="0.66433">
        <ele>166.4</ele>
        <time>2015-06-14T06:33:10.000Z</time>
      </trkpt>
      <trkpt lat="48.03085" lon="0.66452">
        <ele>166.9</ele>
        <time>2015-06-14T06:33:17.000Z</time>
      </trkpt>
      <trkpt lat="48.03088" lon="0.66465">
        <ele>166.7</ele>
        <time>2015-06-14T06:33:22.000Z</time>
      </trkpt>
      <trkpt lat="48.0309" lon="0.66483">
        <ele>166.8</ele>
        <time>2015-06-14T06:33:29.000Z</time>
      </trkpt>
      <trkpt lat="48.03088" lon="0.66498">
        <ele>167.4</ele>
        <time>2015-06-14T06:33:35.000Z</time>
      </trkpt>
      <trkpt lat="48.03087" lon="0.6651">
        <ele>167.6</ele>
        <time>2015-06-14T06:33:41.000Z</time>
      </trkpt>
      <trkpt lat="48.03088" lon="0.66512">
        <ele>167.6</ele>
        <time>2015-06-14T06:33:42.000Z</time>
      </trkpt>
      <trkpt lat="48.0309" lon="0.66521">
        <ele>167.5</ele>
        <time>2015-06-14T06:33:45.000Z</time>
      </trkpt>
      <trkpt lat="48.03092" lon="0.66528">
        <ele>167.3</ele>
        <time>2015-06-14T06:33:49.000Z</time>
      </trkpt>
      <trkpt lat="48.031" lon="0.66542">
        <ele>166.3</ele>
        <time>2015-06-14T06:33:56.000Z</time>
      </trkpt>
      <trkpt lat="48.03105" lon="0.66552">
        <ele>165.6</ele>
        <time>2015-06-14T06:34:02.000Z</time>
      </trkpt>
      <trkpt lat="48.03107" lon="0.66562">
        <ele>165.2</ele>
        <time>2015-06-14T06:34:07.000Z</time>
      </trkpt>
      <trkpt lat="48.03111" lon="0.66579">
        <ele>165</ele>
        <time>2015-06-14T06:34:14.000Z</time>
      </trkpt>
      <trkpt lat="48.03112" lon="0.66583">
        <ele>164.9</ele>
        <time>2015-06-14T06:34:15.000Z</time>
      </trkpt>
      <trkpt lat="48.03116" lon="0.66598">
        <ele>163.3</ele>
        <time>2015-06-14T06:34:22.000Z</time>
      </trkpt>
      <trkpt lat="48.0312" lon="0.66607">
        <ele>162.3</ele>
        <time>2015-06-14T06:34:27.000Z</time>
      </trkpt>
      <trkpt lat="48.03122" lon="0.66618">
        <ele>161.4</ele>
        <time>2015-06-14T06:34:32.000Z</time>
      </trkpt>
      <trkpt lat="48.03123" lon="0.6662">
        <ele>161.2</ele>
        <time>2015-06-14T06:34:33.000Z</time>
      </trkpt>
      <trkpt lat="48.03123" lon="0.66622">
        <ele>161</ele>
        <time>2015-06-14T06:34:34.000Z</time>
      </trkpt>
      <trkpt lat="48.03124" lon="0.66633">
        <ele>160.4</ele>
        <time>2015-06-14T06:34:38.000Z</time>
      </trkpt>
      <trkpt lat="48.03124" lon="0.66638">
        <ele>160.2</ele>
        <time>2015-06-14T06:34:40.000Z</time>
      </trkpt>
      <trkpt lat="48.03124" lon="0.66652">
        <ele>159.8</ele>
        <time>2015-06-14T06:34:46.000Z</time>
      </trkpt>
      <trkpt lat="48.03124" lon="0.66654">
        <ele>159.8</ele>
        <time>2015-06-14T06:34:47.000Z</time>
      </trkpt>
      <trkpt lat="48.03124" lon="0.66664">
        <ele>159.6</ele>
        <time>2015-06-14T06:34:51.000Z</time>
      </trkpt>
      <trkpt lat="48.03124" lon="0.66674">
        <ele>159.1</ele>
        <time>2015-06-14T06:34:56.000Z</time>
      </trkpt>
      <trkpt lat="48.03126" lon="0.66689">
        <ele>158.3</ele>
        <time>2015-06-14T06:35:02.000Z</time>
      </trkpt>
      <trkpt lat="48.03127" lon="0.66692">
        <ele>158.1</ele>
        <time>2015-06-14T06:35:04.000Z</time>
      </trkpt>
      <trkpt lat="48.03132" lon="0.66702">
        <ele>157.7</ele>
        <time>2015-06-14T06:35:08.000Z</time>
      </trkpt>
      <trkpt lat="48.03138" lon="0.66707">
        <ele>157.5</ele>
        <time>2015-06-14T06:35:14.000Z</time>
      </trkpt>
      <trkpt lat="48.03143" lon="0.66707">
        <ele>157</ele>
        <time>2015-06-14T06:35:19.000Z</time>
      </trkpt>
      <trkpt lat="48.03152" lon="0.66704">
        <ele>156.1</ele>
        <time>2015-06-14T06:35:24.000Z</time>
      </trkpt>
      <trkpt lat="48.03153" lon="0.66703">
        <ele>156</ele>
        <time>2015-06-14T06:35:26.000Z</time>
      </trkpt>
      <trkpt lat="48.03163" lon="0.66699">
        <ele>155.1</ele>
        <time>2015-06-14T06:35:31.000Z</time>
      </trkpt>
      <trkpt lat="48.03176" lon="0.66693">
        <ele>153.8</ele>
        <time>2015-06-14T06:35:37.000Z</time>
      </trkpt>
      <trkpt lat="48.03178" lon="0.66691">
        <ele>153.5</ele>
        <time>2015-06-14T06:35:38.000Z</time>
      </trkpt>
      <trkpt lat="48.03181" lon="0.66682">
        <ele>153.5</ele>
        <time>2015-06-14T06:35:43.000Z</time>
      </trkpt>
      <trkpt lat="48.03185" lon="0.66672">
        <ele>153.4</ele>
        <time>2015-06-14T06:35:48.000Z</time>
      </trkpt>
      <trkpt lat="48.03189" lon="0.66667">
        <ele>153</ele>
        <time>2015-06-14T06:35:52.000Z</time>
      </trkpt>
      <trkpt lat="48.03194" lon="0.66662">
        <ele>152.2</ele>
        <time>2015-06-14T06:35:57.000Z</time>
      </trkpt>
      <trkpt lat="48.03198" lon="0.66665">
        <ele>151.8</ele>
        <time>2015-06-14T06:36:02.000Z</time>
      </trkpt>
      <trkpt lat="48.03202" lon="0.66681">
        <ele>151.1</ele>
        <time>2015-06-14T06:36:11.000Z</time>
      </trkpt>
      <trkpt lat="48.03201" lon="0.66694">
        <ele>150.8</ele>
        <time>2015-06-14T06:36:17.000Z</time>
      </trkpt>
      <trkpt lat="48.03199" lon="0.66705">
        <ele>150.7</ele>
        <time>2015-06-14T06:36:23.000Z</time>
      </trkpt>
      <trkpt lat="48.032" lon="0.66714">
        <ele>150.7</ele>
        <time>2015-06-14T06:36:27.000Z</time>
      </trkpt>
      <trkpt lat="48.03199" lon="0.66719">
        <ele>150.5</ele>
        <time>2015-06-14T06:36:29.000Z</time>
      </trkpt>
      <trkpt lat="48.03198" lon="0.66729">
        <ele>150.6</ele>
        <time>2015-06-14T06:36:33.000Z</time>
      </trkpt>
      <trkpt lat="48.03198" lon="0.66731">
        <ele>150.7</ele>
        <time>2015-06-14T06:36:34.000Z</time>
      </trkpt>
      <trkpt lat="48.03198" lon="0.66734">
        <ele>150.8</ele>
        <time>2015-06-14T06:36:35.000Z</time>
      </trkpt>
      <trkpt lat="48.03198" lon="0.66738">
        <ele>150.9</ele>
        <time>2015-06-14T06:36:37.000Z</time>
      </trkpt>
      <trkpt lat="48.03196" lon="0.66751">
        <ele>151.2</ele>
        <time>2015-06-14T06:36:43.000Z</time>
      </trkpt>
      <trkpt lat="48.03196" lon="0.66753">
        <ele>151.3</ele>
        <time>2015-06-14T06:36:44.000Z</time>
      </trkpt>
      <trkpt lat="48.03194" lon="0.66762">
        <ele>151.4</ele>
        <time>2015-06-14T06:36:48.000Z</time>
      </trkpt>
      <trkpt lat="48.03192" lon="0.66774">
        <ele>151.7</ele>
        <time>2015-06-14T06:36:53.000Z</time>
      </trkpt>
      <trkpt lat="48.03191" lon="0.66777">
        <ele>151.6</ele>
        <time>2015-06-14T06:36:54.000Z</time>
      </trkpt>
      <trkpt lat="48.0319" lon="0.66781">
        <ele>151.5</ele>
        <time>2015-06-14T06:36:56.000Z</time>
      </trkpt>
      <trkpt lat="48.03189" lon="0.66789">
        <ele>151.3</ele>
        <time>2015-06-14T06:37:00.000Z</time>
      </trkpt>
      <trkpt lat="48.03188" lon="0.66797">
        <ele>151.1</ele>
        <time>2015-06-14T06:37:03.000Z</time>
      </trkpt>
      <trkpt lat="48.03186" lon="0.66802">
        <ele>150.9</ele>
        <time>2015-06-14T06:37:06.000Z</time>
      </trkpt>
      <trkpt lat="48.03185" lon="0.66817">
        <ele>150.6</ele>
        <time>2015-06-14T06:37:12.000Z</time>
      </trkpt>
      <trkpt lat="48.03182" lon="0.66826">
        <ele>150.3</ele>
        <time>2015-06-14T06:37:16.000Z</time>
      </trkpt>
      <trkpt lat="48.03183" lon="0.66838">
        <ele>150.2</ele>
        <time>2015-06-14T06:37:21.000Z</time>
      </trkpt>
      <trkpt lat="48.03183" lon="0.6684">
        <ele>150.2</ele>
        <time>2015-06-14T06:37:22.000Z</time>
      </trkpt>
      <trkpt lat="48.03183" lon="0.66846">
        <ele>150.1</ele>
        <time>2015-06-14T06:37:26.000Z</time>
      </trkpt>
      <trkpt lat="48.03183" lon="0.66851">
        <ele>150</ele>
        <time>2015-06-14T06:37:27.000Z</time>
      </trkpt>
      <trkpt lat="48.03182" lon="0.66855">
        <ele>149.8</ele>
        <time>2015-06-14T06:37:30.000Z</time>
      </trkpt>
      <trkpt lat="48.03181" lon="0.66871">
        <ele>149.2</ele>
        <time>2015-06-14T06:37:35.000Z</time>
      </trkpt>
      <trkpt lat="48.03181" lon="0.66886">
        <ele>148.6</ele>
        <time>2015-06-14T06:37:42.000Z</time>
      </trkpt>
      <trkpt lat="48.03182" lon="0.6689">
        <ele>148.6</ele>
        <time>2015-06-14T06:37:45.000Z</time>
      </trkpt>
      <trkpt lat="48.03178" lon="0.66885">
        <ele>148.4</ele>
        <time>2015-06-14T06:37:54.000Z</time>
      </trkpt>
      <trkpt lat="48.03177" lon="0.66879">
        <ele>148.5</ele>
        <time>2015-06-14T06:37:57.000Z</time>
      </trkpt>
      <trkpt lat="48.03178" lon="0.66866">
        <ele>149</ele>
        <time>2015-06-14T06:38:02.000Z</time>
      </trkpt>
      <trkpt lat="48.03177" lon="0.66861">
        <ele>149.1</ele>
        <time>2015-06-14T06:38:06.000Z</time>
      </trkpt>
      <trkpt lat="48.03177" lon="0.66863">
        <ele>149</ele>
        <time>2015-06-14T06:38:07.000Z</time>
      </trkpt>
      <trkpt lat="48.03179" lon="0.66871">
        <ele>149</ele>
        <time>2015-06-14T06:38:11.000Z</time>
      </trkpt>
      <trkpt lat="48.03186" lon="0.66876">
        <ele>149.5</ele>
        <time>2015-06-14T06:38:18.000Z</time>
      </trkpt>
      <trkpt lat="48.03187" lon="0.66877">
        <ele>149.6</ele>
        <time>2015-06-14T06:38:19.000Z</time>
      </trkpt>
      <trkpt lat="48.03194" lon="0.66884">
        <ele>150.1</ele>
        <time>2015-06-14T06:38:29.000Z</time>
      </trkpt>
      <trkpt lat="48.032" lon="0.66884">
        <ele>150.8</ele>
        <time>2015-06-14T06:38:33.000Z</time>
      </trkpt>
      <trkpt lat="48.03206" lon="0.66886">
        <ele>151.4</ele>
        <time>2015-06-14T06:38:39.000Z</time>
      </trkpt>
      <trkpt lat="48.03212" lon="0.6689">
        <ele>151.8</ele>
        <time>2015-06-14T06:38:44.000Z</time>
      </trkpt>
      <trkpt lat="48.03214" lon="0.66892">
        <ele>151.8</ele>
        <time>2015-06-14T06:38:47.000Z</time>
      </trkpt>
      <trkpt lat="48.03222" lon="0.66896">
        <ele>152.3</ele>
        <time>2015-06-14T06:38:53.000Z</time>
      </trkpt>
      <trkpt lat="48.03229" lon="0.66901">
        <ele>152.5</ele>
        <time>2015-06-14T06:38:58.000Z</time>
      </trkpt>
      <trkpt lat="48.0323" lon="0.66902">
        <ele>152.6</ele>
        <time>2015-06-14T06:39:00.000Z</time>
      </trkpt>
      <trkpt lat="48.03236" lon="0.66908">
        <ele>152.8</ele>
        <time>2015-06-14T06:39:06.000Z</time>
      </trkpt>
      <trkpt lat="48.03239" lon="0.66909">
        <ele>153.1</ele>
        <time>2015-06-14T06:39:07.000Z</time>
      </trkpt>
      <trkpt lat="48.03242" lon="0.66913">
        <ele>153.2</ele>
        <time>2015-06-14T06:39:12.000Z</time>
      </trkpt>
      <trkpt lat="48.03253" lon="0.66926">
        <ele>153.2</ele>
        <time>2015-06-14T06:39:21.000Z</time>
      </trkpt>
      <trkpt lat="48.03255" lon="0.6693">
        <ele>153</ele>
        <time>2015-06-14T06:39:22.000Z</time>
      </trkpt>
      <trkpt lat="48.03257" lon="0.6694">
        <ele>151.9</ele>
        <time>2015-06-14T06:39:30.000Z</time>
      </trkpt>
      <trkpt lat="48.03256" lon="0.66951">
        <ele>151.2</ele>
        <time>2015-06-14T06:39:38.000Z</time>
      </trkpt>
      <trkpt lat="48.03255" lon="0.66953">
        <ele>151.1</ele>
        <time>2015-06-14T06:39:39.000Z</time>
      </trkpt>
      <trkpt lat="48.03253" lon="0.66959">
        <ele>150.7</ele>
        <time>2015-06-14T06:39:44.000Z</time>
      </trkpt>
      <trkpt lat="48.03254" lon="0.66966">
        <ele>150.5</ele>
        <time>2015-06-14T06:39:48.000Z</time>
      </trkpt>
      <trkpt lat="48.03264" lon="0.66968">
        <ele>151.2</ele>
        <time>2015-06-14T06:39:55.000Z</time>
      </trkpt>
      <trkpt lat="48.03269" lon="0.6697">
        <ele>151.5</ele>
        <time>2015-06-14T06:40:01.000Z</time>
      </trkpt>
      <trkpt lat="48.03273" lon="0.66983">
        <ele>151.7</ele>
        <time>2015-06-14T06:40:07.000Z</time>
      </trkpt>
      <trkpt lat="48.03273" lon="0.66986">
        <ele>151.7</ele>
        <time>2015-06-14T06:40:09.000Z</time>
      </trkpt>
      <trkpt lat="48.03281" lon="0.66997">
        <ele>152.2</ele>
        <time>2015-06-14T06:40:18.000Z</time>
      </trkpt>
      <trkpt lat="48.03288" lon="0.67001">
        <ele>152.7</ele>
        <time>2015-06-14T06:40:24.000Z</time>
      </trkpt>
      <trkpt lat="48.03288" lon="0.67011">
        <ele>152.7</ele>
        <time>2015-06-14T06:40:29.000Z</time>
      </trkpt>
      <trkpt lat="48.03288" lon="0.67015">
        <ele>152.7</ele>
        <time>2015-06-14T06:40:30.000Z</time>
      </trkpt>
      <trkpt lat="48.03288" lon="0.67022">
        <ele>152.7</ele>
        <time>2015-06-14T06:40:34.000Z</time>
      </trkpt>
      <trkpt lat="48.03295" lon="0.67032">
        <ele>153.3</ele>
        <time>2015-06-14T06:40:40.000Z</time>
      </trkpt>
      <trkpt lat="48.03299" lon="0.67044">
        <ele>153.7</ele>
        <time>2015-06-14T06:40:45.000Z</time>
      </trkpt>
      <trkpt lat="48.03299" lon="0.67055">
        <ele>153.7</ele>
        <time>2015-06-14T06:40:52.000Z</time>
      </trkpt>
      <trkpt lat="48.03295" lon="0.67066">
        <ele>153.6</ele>
        <time>2015-06-14T06:40:57.000Z</time>
      </trkpt>
      <trkpt lat="48.03296" lon="0.67076">
        <ele>153.6</ele>
        <time>2015-06-14T06:41:03.000Z</time>
      </trkpt>
      <trkpt lat="48.033" lon="0.67094">
        <ele>153.9</ele>
        <time>2015-06-14T06:41:12.000Z</time>
      </trkpt>
      <trkpt lat="48.03304" lon="0.67102">
        <ele>154</ele>
        <time>2015-06-14T06:41:15.000Z</time>
      </trkpt>
      <trkpt lat="48.03305" lon="0.67109">
        <ele>154</ele>
        <time>2015-06-14T06:41:20.000Z</time>
      </trkpt>
      <trkpt lat="48.03308" lon="0.67119">
        <ele>154.2</ele>
        <time>2015-06-14T06:41:25.000Z</time>
      </trkpt>
      <trkpt lat="48.03313" lon="0.67128">
        <ele>154.4</ele>
        <time>2015-06-14T06:41:30.000Z</time>
      </trkpt>
      <trkpt lat="48.03318" lon="0.67135">
        <ele>154.5</ele>
        <time>2015-06-14T06:41:35.000Z</time>
      </trkpt>
      <trkpt lat="48.03324" lon="0.67145">
        <ele>154.7</ele>
        <time>2015-06-14T06:41:41.000Z</time>
      </trkpt>
      <trkpt lat="48.03324" lon="0.67149">
        <ele>154.7</ele>
        <time>2015-06-14T06:41:43.000Z</time>
      </trkpt>
      <trkpt lat="48.03324" lon="0.67154">
        <ele>154.7</ele>
        <time>2015-06-14T06:41:45.000Z</time>
      </trkpt>
      <trkpt lat="48.03324" lon="0.67162">
        <ele>154.7</ele>
        <time>2015-06-14T06:41:50.000Z</time>
      </trkpt>
      <trkpt lat="48.03327" lon="0.67174">
        <ele>154.8</ele>
        <time>2015-06-14T06:41:56.000Z</time>
      </trkpt>
      <trkpt lat="48.03332" lon="0.67187">
        <ele>155</ele>
        <time>2015-06-14T06:42:02.000Z</time>
      </trkpt>
      <trkpt lat="48.03335" lon="0.67195">
        <ele>155.2</ele>
        <time>2015-06-14T06:42:06.000Z</time>
      </trkpt>
      <trkpt lat="48.03341" lon="0.67208">
        <ele>156.6</ele>
        <time>2015-06-14T06:42:13.000Z</time>
      </trkpt>
      <trkpt lat="48.03343" lon="0.67218">
        <ele>157.2</ele>
        <time>2015-06-14T06:42:18.000Z</time>
      </trkpt>
      <trkpt lat="48.03347" lon="0.67229">
        <ele>158.2</ele>
        <time>2015-06-14T06:42:25.000Z</time>
      </trkpt>
      <trkpt lat="48.03347" lon="0.67231">
        <ele>158.2</ele>
        <time>2015-06-14T06:42:30.000Z</time>
      </trkpt>
      <trkpt lat="48.0335" lon="0.67237">
        <ele>159</ele>
        <time>2015-06-14T06:42:36.000Z</time>
      </trkpt>
      <trkpt lat="48.03352" lon="0.67248">
        <ele>159.7</ele>
        <time>2015-06-14T06:42:42.000Z</time>
      </trkpt>
      <trkpt lat="48.03352" lon="0.67254">
        <ele>159.9</ele>
        <time>2015-06-14T06:42:45.000Z</time>
      </trkpt>
      <trkpt lat="48.03353" lon="0.67264">
        <ele>160.3</ele>
        <time>2015-06-14T06:42:50.000Z</time>
      </trkpt>
      <trkpt lat="48.03355" lon="0.67271">
        <ele>160.9</ele>
        <time>2015-06-14T06:42:54.000Z</time>
      </trkpt>
      <trkpt lat="48.03356" lon="0.67278">
        <ele>161.2</ele>
        <time>2015-06-14T06:42:57.000Z</time>
      </trkpt>
      <trkpt lat="48.03356" lon="0.67281">
        <ele>161.2</ele>
        <time>2015-06-14T06:43:00.000Z</time>
      </trkpt>
      <trkpt lat="48.0336" lon="0.67292">
        <ele>161.9</ele>
        <time>2015-06-14T06:43:06.000Z</time>
      </trkpt>
      <trkpt lat="48.03362" lon="0.67298">
        <ele>162.1</ele>
        <time>2015-06-14T06:43:09.000Z</time>
      </trkpt>
      <trkpt lat="48.03366" lon="0.67309">
        <ele>162.5</ele>
        <time>2015-06-14T06:43:17.000Z</time>
      </trkpt>
      <trkpt lat="48.03366" lon="0.67313">
        <ele>162.6</ele>
        <time>2015-06-14T06:43:20.000Z</time>
      </trkpt>
      <trkpt lat="48.03365" lon="0.67321">
        <ele>162.8</ele>
        <time>2015-06-14T06:43:25.000Z</time>
      </trkpt>
      <trkpt lat="48.03363" lon="0.67325">
        <ele>162.8</ele>
        <time>2015-06-14T06:43:29.000Z</time>
      </trkpt>
      <trkpt lat="48.03367" lon="0.67335">
        <ele>163.5</ele>
        <time>2015-06-14T06:43:35.000Z</time>
      </trkpt>
      <trkpt lat="48.03369" lon="0.67338">
        <ele>163.7</ele>
        <time>2015-06-14T06:43:37.000Z</time>
      </trkpt>
      <trkpt lat="48.03371" lon="0.67347">
        <ele>164</ele>
        <time>2015-06-14T06:43:42.000Z</time>
      </trkpt>
      <trkpt lat="48.03372" lon="0.6735">
        <ele>164.2</ele>
        <time>2015-06-14T06:43:45.000Z</time>
      </trkpt>
      <trkpt lat="48.03374" lon="0.67363">
        <ele>164.5</ele>
        <time>2015-06-14T06:43:51.000Z</time>
      </trkpt>
      <trkpt lat="48.03375" lon="0.67366">
        <ele>164.7</ele>
        <time>2015-06-14T06:43:52.000Z</time>
      </trkpt>
      <trkpt lat="48.03378" lon="0.67375">
        <ele>165.1</ele>
        <time>2015-06-14T06:43:57.000Z</time>
      </trkpt>
      <trkpt lat="48.0338" lon="0.67385">
        <ele>165.5</ele>
        <time>2015-06-14T06:44:02.000Z</time>
      </trkpt>
      <trkpt lat="48.03381" lon="0.67387">
        <ele>165.6</ele>
        <time>2015-06-14T06:44:03.000Z</time>
      </trkpt>
      <trkpt lat="48.03388" lon="0.67405">
        <ele>166.6</ele>
        <time>2015-06-14T06:44:14.000Z</time>
      </trkpt>
      <trkpt lat="48.03394" lon="0.67409">
        <ele>166.8</ele>
        <time>2015-06-14T06:44:21.000Z</time>
      </trkpt>
      <trkpt lat="48.03398" lon="0.67409">
        <ele>166.8</ele>
        <time>2015-06-14T06:44:25.000Z</time>
      </trkpt>
      <trkpt lat="48.03401" lon="0.67408">
        <ele>166.8</ele>
        <time>2015-06-14T06:44:27.000Z</time>
      </trkpt>
      <trkpt lat="48.03411" lon="0.67406">
        <ele>166.9</ele>
        <time>2015-06-14T06:44:33.000Z</time>
      </trkpt>
      <trkpt lat="48.03418" lon="0.67403">
        <ele>167</ele>
        <time>2015-06-14T06:44:38.000Z</time>
      </trkpt>
      <trkpt lat="48.03425" lon="0.674">
        <ele>167.3</ele>
        <time>2015-06-14T06:44:46.000Z</time>
      </trkpt>
      <trkpt lat="48.03426" lon="0.67399">
        <ele>167.3</ele>
        <time>2015-06-14T06:44:47.000Z</time>
      </trkpt>
      <trkpt lat="48.03426" lon="0.67396">
        <ele>167.3</ele>
        <time>2015-06-14T06:44:49.000Z</time>
      </trkpt>
      <trkpt lat="48.03427" lon="0.67389">
        <ele>167.4</ele>
        <time>2015-06-14T06:44:52.000Z</time>
      </trkpt>
      <trkpt lat="48.03429" lon="0.67382">
        <ele>167.3</ele>
        <time>2015-06-14T06:44:57.000Z</time>
      </trkpt>
      <trkpt lat="48.03426" lon="0.67372">
        <ele>166.9</ele>
        <time>2015-06-14T06:45:02.000Z</time>
      </trkpt>
      <trkpt lat="48.03419" lon="0.67361">
        <ele>166.1</ele>
        <time>2015-06-14T06:45:10.000Z</time>
      </trkpt>
      <trkpt lat="48.03418" lon="0.67359">
        <ele>166.1</ele>
        <time>2015-06-14T06:45:12.000Z</time>
      </trkpt>
      <trkpt lat="48.03411" lon="0.67348">
        <ele>165.8</ele>
        <time>2015-06-14T06:45:18.000Z</time>
      </trkpt>
      <trkpt lat="48.03409" lon="0.67344">
        <ele>165.7</ele>
        <time>2015-06-14T06:45:21.000Z</time>
      </trkpt>
      <trkpt lat="48.03403" lon="0.67338">
        <ele>165.5</ele>
        <time>2015-06-14T06:45:27.000Z</time>
      </trkpt>
      <trkpt lat="48.03398" lon="0.67331">
        <ele>165.3</ele>
        <time>2015-06-14T06:45:32.000Z</time>
      </trkpt>
      <trkpt lat="48.03393" lon="0.67322">
        <ele>164.8</ele>
        <time>2015-06-14T06:45:37.000Z</time>
      </trkpt>
      <trkpt lat="48.03392" lon="0.6732">
        <ele>164.7</ele>
        <time>2015-06-14T06:45:38.000Z</time>
      </trkpt>
      <trkpt lat="48.03388" lon="0.67309">
        <ele>164.1</ele>
        <time>2015-06-14T06:45:44.000Z</time>
      </trkpt>
      <trkpt lat="48.03385" lon="0.673">
        <ele>163.7</ele>
        <time>2015-06-14T06:45:49.000Z</time>
      </trkpt>
      <trkpt lat="48.03384" lon="0.67298">
        <ele>163.7</ele>
        <time>2015-06-14T06:45:50.000Z</time>
      </trkpt>
      <trkpt lat="48.03383" lon="0.67296">
        <ele>163.6</ele>
        <time>2015-06-14T06:45:51.000Z</time>
      </trkpt>
      <trkpt lat="48.0338" lon="0.6729">
        <ele>163.3</ele>
        <time>2015-06-14T06:45:57.000Z</time>
      </trkpt>
      <trkpt lat="48.03378" lon="0.6728">
        <ele>163.2</ele>
        <time>2015-06-14T06:46:02.000Z</time>
      </trkpt>
      <trkpt lat="48.03374" lon="0.67269">
        <ele>162.8</ele>
        <time>2015-06-14T06:46:06.000Z</time>
      </trkpt>
      <trkpt lat="48.03369" lon="0.67261">
        <ele>162.1</ele>
        <time>2015-06-14T06:46:12.000Z</time>
      </trkpt>
      <trkpt lat="48.03362" lon="0.6725">
        <ele>161.1</ele>
        <time>2015-06-14T06:46:19.000Z</time>
      </trkpt>
      <trkpt lat="48.03361" lon="0.67247">
        <ele>160.8</ele>
        <time>2015-06-14T06:46:21.000Z</time>
      </trkpt>
      <trkpt lat="48.03359" lon="0.67242">
        <ele>160.4</ele>
        <time>2015-06-14T06:46:33.000Z</time>
      </trkpt>
      <trkpt lat="48.03354" lon="0.67234">
        <ele>159.4</ele>
        <time>2015-06-14T06:46:48.000Z</time>
      </trkpt>
      <trkpt lat="48.03352" lon="0.67231">
        <ele>159</ele>
        <time>2015-06-14T06:46:50.000Z</time>
      </trkpt>
      <trkpt lat="48.03349" lon="0.67219">
        <ele>158.1</ele>
        <time>2015-06-14T06:46:56.000Z</time>
      </trkpt>
      <trkpt lat="48.03347" lon="0.67208">
        <ele>157.4</ele>
        <time>2015-06-14T06:47:01.000Z</time>
      </trkpt>
      <trkpt lat="48.03345" lon="0.67202">
        <ele>157</ele>
        <time>2015-06-14T06:47:03.000Z</time>
      </trkpt>
      <trkpt lat="48.0334" lon="0.67184">
        <ele>155.9</ele>
        <time>2015-06-14T06:47:12.000Z</time>
      </trkpt>
      <trkpt lat="48.03336" lon="0.67169">
        <ele>155.4</ele>
        <time>2015-06-14T06:47:18.000Z</time>
      </trkpt>
      <trkpt lat="48.03335" lon="0.67167">
        <ele>155.3</ele>
        <time>2015-06-14T06:47:19.000Z</time>
      </trkpt>
      <trkpt lat="48.03333" lon="0.67157">
        <ele>155</ele>
        <time>2015-06-14T06:47:23.000Z</time>
      </trkpt>
      <trkpt lat="48.03329" lon="0.67147">
        <ele>154.8</ele>
        <time>2015-06-14T06:47:29.000Z</time>
      </trkpt>
      <trkpt lat="48.03323" lon="0.67142">
        <ele>154.6</ele>
        <time>2015-06-14T06:47:33.000Z</time>
      </trkpt>
      <trkpt lat="48.03321" lon="0.67136">
        <ele>154.6</ele>
        <time>2015-06-14T06:47:37.000Z</time>
      </trkpt>
      <trkpt lat="48.03318" lon="0.67127">
        <ele>154.6</ele>
        <time>2015-06-14T06:47:41.000Z</time>
      </trkpt>
      <trkpt lat="48.03317" lon="0.67125">
        <ele>154.6</ele>
        <time>2015-06-14T06:47:42.000Z</time>
      </trkpt>
      <trkpt lat="48.03316" lon="0.6711">
        <ele>154.8</ele>
        <time>2015-06-14T06:47:48.000Z</time>
      </trkpt>
      <trkpt lat="48.03316" lon="0.67108">
        <ele>154.8</ele>
        <time>2015-06-14T06:47:49.000Z</time>
      </trkpt>
      <trkpt lat="48.03319" lon="0.67096">
        <ele>155.5</ele>
        <time>2015-06-14T06:47:53.000Z</time>
      </trkpt>
      <trkpt lat="48.03323" lon="0.67086">
        <ele>156.4</ele>
        <time>2015-06-14T06:48:00.000Z</time>
      </trkpt>
      <trkpt lat="48.03324" lon="0.67085">
        <ele>156.6</ele>
        <time>2015-06-14T06:48:01.000Z</time>
      </trkpt>
      <trkpt lat="48.03326" lon="0.67081">
        <ele>157</ele>
        <time>2015-06-14T06:48:04.000Z</time>
      </trkpt>
      <trkpt lat="48.03328" lon="0.67078">
        <ele>157.3</ele>
        <time>2015-06-14T06:48:07.000Z</time>
      </trkpt>
      <trkpt lat="48.03333" lon="0.67066">
        <ele>158.6</ele>
        <time>2015-06-14T06:48:16.000Z</time>
      </trkpt>
      <trkpt lat="48.03333" lon="0.67064">
        <ele>158.6</ele>
        <time>2015-06-14T06:48:17.000Z</time>
      </trkpt>
      <trkpt lat="48.03336" lon="0.67055">
        <ele>159.4</ele>
        <time>2015-06-14T06:48:22.000Z</time>
      </trkpt>
      <trkpt lat="48.03336" lon="0.67044">
        <ele>159.3</ele>
        <time>2015-06-14T06:48:27.000Z</time>
      </trkpt>
      <trkpt lat="48.0333" lon="0.67031">
        <ele>158.5</ele>
        <time>2015-06-14T06:48:34.000Z</time>
      </trkpt>
      <trkpt lat="48.03327" lon="0.67021">
        <ele>157.7</ele>
        <time>2015-06-14T06:48:40.000Z</time>
      </trkpt>
      <trkpt lat="48.03325" lon="0.67011">
        <ele>157</ele>
        <time>2015-06-14T06:48:46.000Z</time>
      </trkpt>
      <trkpt lat="48.03323" lon="0.67004">
        <ele>156.6</ele>
        <time>2015-06-14T06:48:48.000Z</time>
      </trkpt>
      <trkpt lat="48.03321" lon="0.67">
        <ele>156.2</ele>
        <time>2015-06-14T06:48:51.000Z</time>
      </trkpt>
      <trkpt lat="48.03316" lon="0.66992">
        <ele>155.4</ele>
        <time>2015-06-14T06:48:55.000Z</time>
      </trkpt>
      <trkpt lat="48.03314" lon="0.66984">
        <ele>155</ele>
        <time>2015-06-14T06:49:00.000Z</time>
      </trkpt>
      <trkpt lat="48.03312" lon="0.66976">
        <ele>154.8</ele>
        <time>2015-06-14T06:49:05.000Z</time>
      </trkpt>
      <trkpt lat="48.03312" lon="0.66974">
        <ele>154.8</ele>
        <time>2015-06-14T06:49:06.000Z</time>
      </trkpt>
      <trkpt lat="48.03312" lon="0.66971">
        <ele>154.7</ele>
        <time>2015-06-14T06:49:09.000Z</time>
      </trkpt>
      <trkpt lat="48.0331" lon="0.66957">
        <ele>154.4</ele>
        <time>2015-06-14T06:49:16.000Z</time>
      </trkpt>
      <trkpt lat="48.03308" lon="0.66946">
        <ele>154.2</ele>
        <time>2015-06-14T06:49:21.000Z</time>
      </trkpt>
      <trkpt lat="48.03304" lon="0.66939">
        <ele>154.4</ele>
        <time>2015-06-14T06:49:27.000Z</time>
      </trkpt>
      <trkpt lat="48.03303" lon="0.66935">
        <ele>154.6</ele>
        <time>2015-06-14T06:49:28.000Z</time>
      </trkpt>
      <trkpt lat="48.03301" lon="0.6693">
        <ele>155</ele>
        <time>2015-06-14T06:49:34.000Z</time>
      </trkpt>
      <trkpt lat="48.033" lon="0.66922">
        <ele>155.6</ele>
        <time>2015-06-14T06:49:40.000Z</time>
      </trkpt>
      <trkpt lat="48.03301" lon="0.66921">
        <ele>155.7</ele>
        <time>2015-06-14T06:49:41.000Z</time>
      </trkpt>
      <trkpt lat="48.03303" lon="0.66915">
        <ele>156.1</ele>
        <time>2015-06-14T06:49:46.000Z</time>
      </trkpt>
      <trkpt lat="48.03303" lon="0.66907">
        <ele>156.7</ele>
        <time>2015-06-14T06:49:52.000Z</time>
      </trkpt>
      <trkpt lat="48.03302" lon="0.669">
        <ele>157.2</ele>
        <time>2015-06-14T06:49:55.000Z</time>
      </trkpt>
      <trkpt lat="48.03304" lon="0.66892">
        <ele>157.8</ele>
        <time>2015-06-14T06:49:59.000Z</time>
      </trkpt>
      <trkpt lat="48.03306" lon="0.66886">
        <ele>158.3</ele>
        <time>2015-06-14T06:50:04.000Z</time>
      </trkpt>
      <trkpt lat="48.03306" lon="0.66882">
        <ele>158.8</ele>
        <time>2015-06-14T06:50:06.000Z</time>
      </trkpt>
      <trkpt lat="48.03311" lon="0.66864">
        <ele>160.7</ele>
        <time>2015-06-14T06:50:13.000Z</time>
      </trkpt>
      <trkpt lat="48.03315" lon="0.66846">
        <ele>161.9</ele>
        <time>2015-06-14T06:50:21.000Z</time>
      </trkpt>
      <trkpt lat="48.03316" lon="0.66843">
        <ele>162.1</ele>
        <time>2015-06-14T06:50:23.000Z</time>
      </trkpt>
      <trkpt lat="48.03326" lon="0.66834">
        <ele>163.4</ele>
        <time>2015-06-14T06:50:31.000Z</time>
      </trkpt>
      <trkpt lat="48.03336" lon="0.66825">
        <ele>164.3</ele>
        <time>2015-06-14T06:50:38.000Z</time>
      </trkpt>
      <trkpt lat="48.03342" lon="0.66821">
        <ele>164.6</ele>
        <time>2015-06-14T06:50:43.000Z</time>
      </trkpt>
      <trkpt lat="48.0335" lon="0.66817">
        <ele>164.9</ele>
        <time>2015-06-14T06:50:48.000Z</time>
      </trkpt>
      <trkpt lat="48.03356" lon="0.66813">
        <ele>165.4</ele>
        <time>2015-06-14T06:50:53.000Z</time>
      </trkpt>
      <trkpt lat="48.03363" lon="0.66807">
        <ele>165.8</ele>
        <time>2015-06-14T06:50:58.000Z</time>
      </trkpt>
      <trkpt lat="48.0337" lon="0.66803">
        <ele>165.8</ele>
        <time>2015-06-14T06:51:02.000Z</time>
      </trkpt>
      <trkpt lat="48.03376" lon="0.66799">
        <ele>165.8</ele>
        <time>2015-06-14T06:51:06.000Z</time>
      </trkpt>
      <trkpt lat="48.03386" lon="0.66795">
        <ele>165.9</ele>
        <time>2015-06-14T06:51:12.000Z</time>
      </trkpt>
      <trkpt lat="48.0339" lon="0.66793">
        <ele>165.9</ele>
        <time>2015-06-14T06:51:15.000Z</time>
      </trkpt>
      <trkpt lat="48.03398" lon="0.66787">
        <ele>166.3</ele>
        <time>2015-06-14T06:51:21.000Z</time>
      </trkpt>
      <trkpt lat="48.03399" lon="0.66786">
        <ele>166.4</ele>
        <time>2015-06-14T06:51:22.000Z</time>
      </trkpt>
      <trkpt lat="48.03409" lon="0.66781">
        <ele>166.8</ele>
        <time>2015-06-14T06:51:28.000Z</time>
      </trkpt>
      <trkpt lat="48.03416" lon="0.66777">
        <ele>167</ele>
        <time>2015-06-14T06:51:33.000Z</time>
      </trkpt>
      <trkpt lat="48.03417" lon="0.66776">
        <ele>167.1</ele>
        <time>2015-06-14T06:51:34.000Z</time>
      </trkpt>
      <trkpt lat="48.03424" lon="0.66773">
        <ele>167.6</ele>
        <time>2015-06-14T06:51:39.000Z</time>
      </trkpt>
      <trkpt lat="48.03432" lon="0.66769">
        <ele>168.2</ele>
        <time>2015-06-14T06:51:44.000Z</time>
      </trkpt>
      <trkpt lat="48.03442" lon="0.66762">
        <ele>169</ele>
        <time>2015-06-14T06:51:51.000Z</time>
      </trkpt>
      <trkpt lat="48.03452" lon="0.66757">
        <ele>169.6</ele>
        <time>2015-06-14T06:51:58.000Z</time>
      </trkpt>
      <trkpt lat="48.0346" lon="0.66755">
        <ele>169.8</ele>
        <time>2015-06-14T06:52:03.000Z</time>
      </trkpt>
      <trkpt lat="48.03468" lon="0.6675">
        <ele>170</ele>
        <time>2015-06-14T06:52:09.000Z</time>
      </trkpt>
      <trkpt lat="48.03474" lon="0.66744">
        <ele>170.4</ele>
        <time>2015-06-14T06:52:14.000Z</time>
      </trkpt>
      <trkpt lat="48.03481" lon="0.66738">
        <ele>171.1</ele>
        <time>2015-06-14T06:52:20.000Z</time>
      </trkpt>
      <trkpt lat="48.0349" lon="0.6673">
        <ele>171.6</ele>
        <time>2015-06-14T06:52:27.000Z</time>
      </trkpt>
      <trkpt lat="48.03501" lon="0.66727">
        <ele>171.9</ele>
        <time>2015-06-14T06:52:33.000Z</time>
      </trkpt>
      <trkpt lat="48.03511" lon="0.66723">
        <ele>172.4</ele>
        <time>2015-06-14T06:52:39.000Z</time>
      </trkpt>
      <trkpt lat="48.03512" lon="0.66722">
        <ele>172.5</ele>
        <time>2015-06-14T06:52:41.000Z</time>
      </trkpt>
      <trkpt lat="48.03514" lon="0.66715">
        <ele>172.8</ele>
        <time>2015-06-14T06:52:47.000Z</time>
      </trkpt>
      <trkpt lat="48.03513" lon="0.66711">
        <ele>172.9</ele>
        <time>2015-06-14T06:52:49.000Z</time>
      </trkpt>
      <trkpt lat="48.03504" lon="0.66693">
        <ele>173.2</ele>
        <time>2015-06-14T06:52:55.000Z</time>
      </trkpt>
      <trkpt lat="48.03497" lon="0.66682">
        <ele>173.4</ele>
        <time>2015-06-14T06:52:59.000Z</time>
      </trkpt>
      <trkpt lat="48.03494" lon="0.66676">
        <ele>173.5</ele>
        <time>2015-06-14T06:53:02.000Z</time>
      </trkpt>
      <trkpt lat="48.03491" lon="0.66666">
        <ele>173.7</ele>
        <time>2015-06-14T06:53:06.000Z</time>
      </trkpt>
      <trkpt lat="48.03489" lon="0.66664">
        <ele>173.7</ele>
        <time>2015-06-14T06:53:07.000Z</time>
      </trkpt>
      <trkpt lat="48.03485" lon="0.66657">
        <ele>173.8</ele>
        <time>2015-06-14T06:53:12.000Z</time>
      </trkpt>
      <trkpt lat="48.03477" lon="0.6664">
        <ele>174.1</ele>
        <time>2015-06-14T06:53:20.000Z</time>
      </trkpt>
      <trkpt lat="48.03467" lon="0.66626">
        <ele>173.7</ele>
        <time>2015-06-14T06:53:26.000Z</time>
      </trkpt>
      <trkpt lat="48.03462" lon="0.66616">
        <ele>173.6</ele>
        <time>2015-06-14T06:53:31.000Z</time>
      </trkpt>
      <trkpt lat="48.03461" lon="0.66613">
        <ele>173.6</ele>
        <time>2015-06-14T06:53:32.000Z</time>
      </trkpt>
      <trkpt lat="48.03456" lon="0.66603">
        <ele>173.6</ele>
        <time>2015-06-14T06:53:37.000Z</time>
      </trkpt>
      <trkpt lat="48.03451" lon="0.66593">
        <ele>173.4</ele>
        <time>2015-06-14T06:53:42.000Z</time>
      </trkpt>
      <trkpt lat="48.03446" lon="0.66581">
        <ele>173.2</ele>
        <time>2015-06-14T06:53:47.000Z</time>
      </trkpt>
      <trkpt lat="48.0344" lon="0.66569">
        <ele>173.2</ele>
        <time>2015-06-14T06:53:53.000Z</time>
      </trkpt>
      <trkpt lat="48.03435" lon="0.66556">
        <ele>173.3</ele>
        <time>2015-06-14T06:54:00.000Z</time>
      </trkpt>
      <trkpt lat="48.03429" lon="0.66544">
        <ele>173.1</ele>
        <time>2015-06-14T06:54:06.000Z</time>
      </trkpt>
      <trkpt lat="48.03422" lon="0.66531">
        <ele>173.1</ele>
        <time>2015-06-14T06:54:12.000Z</time>
      </trkpt>
      <trkpt lat="48.03416" lon="0.66519">
        <ele>173.3</ele>
        <time>2015-06-14T06:54:19.000Z</time>
      </trkpt>
      <trkpt lat="48.03411" lon="0.66503">
        <ele>173.2</ele>
        <time>2015-06-14T06:54:26.000Z</time>
      </trkpt>
      <trkpt lat="48.03404" lon="0.6649">
        <ele>172.8</ele>
        <time>2015-06-14T06:54:32.000Z</time>
      </trkpt>
      <trkpt lat="48.03398" lon="0.6648">
        <ele>172.5</ele>
        <time>2015-06-14T06:54:37.000Z</time>
      </trkpt>
      <trkpt lat="48.03396" lon="0.66474">
        <ele>172.5</ele>
        <time>2015-06-14T06:54:40.000Z</time>
      </trkpt>
      <trkpt lat="48.03392" lon="0.66466">
        <ele>172.4</ele>
        <time>2015-06-14T06:54:44.000Z</time>
      </trkpt>
      <trkpt lat="48.03388" lon="0.66456">
        <ele>172.5</ele>
        <time>2015-06-14T06:54:50.000Z</time>
      </trkpt>
      <trkpt lat="48.03381" lon="0.66445">
        <ele>172.4</ele>
        <time>2015-06-14T06:54:56.000Z</time>
      </trkpt>
      <trkpt lat="48.03376" lon="0.6643">
        <ele>172.3</ele>
        <time>2015-06-14T06:55:02.000Z</time>
      </trkpt>
      <trkpt lat="48.0337" lon="0.66417">
        <ele>172.3</ele>
        <time>2015-06-14T06:55:07.000Z</time>
      </trkpt>
      <trkpt lat="48.03365" lon="0.66403">
        <ele>172.7</ele>
        <time>2015-06-14T06:55:12.000Z</time>
      </trkpt>
      <trkpt lat="48.03362" lon="0.66394">
        <ele>172.8</ele>
        <time>2015-06-14T06:55:17.000Z</time>
      </trkpt>
      <trkpt lat="48.03356" lon="0.66377">
        <ele>172.7</ele>
        <time>2015-06-14T06:55:23.000Z</time>
      </trkpt>
      <trkpt lat="48.03355" lon="0.66375">
        <ele>172.7</ele>
        <time>2015-06-14T06:55:25.000Z</time>
      </trkpt>
      <trkpt lat="48.03346" lon="0.66367">
        <ele>172.3</ele>
        <time>2015-06-14T06:55:29.000Z</time>
      </trkpt>
      <trkpt lat="48.03343" lon="0.66362">
        <ele>172.3</ele>
        <time>2015-06-14T06:55:32.000Z</time>
      </trkpt>
      <trkpt lat="48.03338" lon="0.66354">
        <ele>172.2</ele>
        <time>2015-06-14T06:55:37.000Z</time>
      </trkpt>
      <trkpt lat="48.03333" lon="0.66344">
        <ele>172</ele>
        <time>2015-06-14T06:55:42.000Z</time>
      </trkpt>
      <trkpt lat="48.0333" lon="0.66335">
        <ele>171.9</ele>
        <time>2015-06-14T06:55:44.000Z</time>
      </trkpt>
      <trkpt lat="48.03324" lon="0.66321">
        <ele>172.1</ele>
        <time>2015-06-14T06:55:50.000Z</time>
      </trkpt>
      <trkpt lat="48.03319" lon="0.66307">
        <ele>172.4</ele>
        <time>2015-06-14T06:55:55.000Z</time>
      </trkpt>
      <trkpt lat="48.03315" lon="0.66297">
        <ele>172.6</ele>
        <time>2015-06-14T06:55:59.000Z</time>
      </trkpt>
      <trkpt lat="48.0331" lon="0.66281">
        <ele>173.1</ele>
        <time>2015-06-14T06:56:05.000Z</time>
      </trkpt>
      <trkpt lat="48.03309" lon="0.66278">
        <ele>173.1</ele>
        <time>2015-06-14T06:56:07.000Z</time>
      </trkpt>
      <trkpt lat="48.03304" lon="0.66264">
        <ele>173.4</ele>
        <time>2015-06-14T06:56:12.000Z</time>
      </trkpt>
      <trkpt lat="48.03297" lon="0.66243">
        <ele>173.9</ele>
        <time>2015-06-14T06:56:20.000Z</time>
      </trkpt>
      <trkpt lat="48.03291" lon="0.66229">
        <ele>174.2</ele>
        <time>2015-06-14T06:56:26.000Z</time>
      </trkpt>
      <trkpt lat="48.03286" lon="0.6621">
        <ele>174.6</ele>
        <time>2015-06-14T06:56:34.000Z</time>
      </trkpt>
      <trkpt lat="48.03281" lon="0.66196">
        <ele>175</ele>
        <time>2015-06-14T06:56:40.000Z</time>
      </trkpt>
      <trkpt lat="48.03277" lon="0.66175">
        <ele>175.7</ele>
        <time>2015-06-14T06:56:47.000Z</time>
      </trkpt>
      <trkpt lat="48.03274" lon="0.66155">
        <ele>175.9</ele>
        <time>2015-06-14T06:56:55.000Z</time>
      </trkpt>
      <trkpt lat="48.03271" lon="0.66136">
        <ele>176</ele>
        <time>2015-06-14T06:57:02.000Z</time>
      </trkpt>
      <trkpt lat="48.03266" lon="0.66118">
        <ele>176</ele>
        <time>2015-06-14T06:57:10.000Z</time>
      </trkpt>
      <trkpt lat="48.03263" lon="0.66101">
        <ele>176.4</ele>
        <time>2015-06-14T06:57:17.000Z</time>
      </trkpt>
      <trkpt lat="48.03261" lon="0.66077">
        <ele>177</ele>
        <time>2015-06-14T06:57:26.000Z</time>
      </trkpt>
      <trkpt lat="48.03258" lon="0.66056">
        <ele>177</ele>
        <time>2015-06-14T06:57:34.000Z</time>
      </trkpt>
      <trkpt lat="48.03257" lon="0.66042">
        <ele>177</ele>
        <time>2015-06-14T06:57:40.000Z</time>
      </trkpt>
      <trkpt lat="48.03254" lon="0.66024">
        <ele>177</ele>
        <time>2015-06-14T06:57:47.000Z</time>
      </trkpt>
      <trkpt lat="48.03251" lon="0.66006">
        <ele>177</ele>
        <time>2015-06-14T06:57:53.000Z</time>
      </trkpt>
      <trkpt lat="48.03249" lon="0.65994">
        <ele>177</ele>
        <time>2015-06-14T06:57:59.000Z</time>
      </trkpt>
      <trkpt lat="48.03246" lon="0.65974">
        <ele>177</ele>
        <time>2015-06-14T06:58:07.000Z</time>
      </trkpt>
      <trkpt lat="48.03243" lon="0.65958">
        <ele>176.9</ele>
        <time>2015-06-14T06:58:14.000Z</time>
      </trkpt>
      <trkpt lat="48.0324" lon="0.65939">
        <ele>176.7</ele>
        <time>2015-06-14T06:58:21.000Z</time>
      </trkpt>
      <trkpt lat="48.03238" lon="0.65922">
        <ele>176.6</ele>
        <time>2015-06-14T06:58:28.000Z</time>
      </trkpt>
      <trkpt lat="48.03236" lon="0.65903">
        <ele>176.3</ele>
        <time>2015-06-14T06:58:36.000Z</time>
      </trkpt>
      <trkpt lat="48.03235" lon="0.65882">
        <ele>175.9</ele>
        <time>2015-06-14T06:58:44.000Z</time>
      </trkpt>
      <trkpt lat="48.03235" lon="0.65864">
        <ele>175.5</ele>
        <time>2015-06-14T06:58:50.000Z</time>
      </trkpt>
      <trkpt lat="48.03235" lon="0.6585">
        <ele>175.2</ele>
        <time>2015-06-14T06:58:56.000Z</time>
      </trkpt>
      <trkpt lat="48.03233" lon="0.65808">
        <ele>174.4</ele>
        <time>2015-06-14T06:59:12.000Z</time>
      </trkpt>
      <trkpt lat="48.0323" lon="0.6579">
        <ele>173.7</ele>
        <time>2015-06-14T06:59:20.000Z</time>
      </trkpt>
      <trkpt lat="48.03227" lon="0.65771">
        <ele>173</ele>
        <time>2015-06-14T06:59:28.000Z</time>
      </trkpt>
      <trkpt lat="48.03227" lon="0.65758">
        <ele>172.6</ele>
        <time>2015-06-14T06:59:35.000Z</time>
      </trkpt>
      <trkpt lat="48.03226" lon="0.65744">
        <ele>172.2</ele>
        <time>2015-06-14T06:59:38.000Z</time>
      </trkpt>
      <trkpt lat="48.03223" lon="0.65717">
        <ele>171.9</ele>
        <time>2015-06-14T06:59:44.000Z</time>
      </trkpt>
      <trkpt lat="48.03223" lon="0.65694">
        <ele>171</ele>
        <time>2015-06-14T06:59:49.000Z</time>
      </trkpt>
      <trkpt lat="48.03218" lon="0.65678">
        <ele>170.5</ele>
        <time>2015-06-14T06:59:55.000Z</time>
      </trkpt>
      <trkpt lat="48.03209" lon="0.65668">
        <ele>169.5</ele>
        <time>2015-06-14T07:00:00.000Z</time>
      </trkpt>
      <trkpt lat="48.03197" lon="0.65655">
        <ele>168.7</ele>
        <time>2015-06-14T07:00:05.000Z</time>
      </trkpt>
      <trkpt lat="48.03193" lon="0.65649">
        <ele>168.4</ele>
        <time>2015-06-14T07:00:07.000Z</time>
      </trkpt>
      <trkpt lat="48.03186" lon="0.65641">
        <ele>167.7</ele>
        <time>2015-06-14T07:00:14.000Z</time>
      </trkpt>
      <trkpt lat="48.03184" lon="0.65638">
        <ele>167.5</ele>
        <time>2015-06-14T07:00:16.000Z</time>
      </trkpt>
      <trkpt lat="48.03178" lon="0.65624">
        <ele>167.4</ele>
        <time>2015-06-14T07:00:22.000Z</time>
      </trkpt>
      <trkpt lat="48.03174" lon="0.65619">
        <ele>167.3</ele>
        <time>2015-06-14T07:00:26.000Z</time>
      </trkpt>
      <trkpt lat="48.03166" lon="0.65604">
        <ele>167.4</ele>
        <time>2015-06-14T07:00:34.000Z</time>
      </trkpt>
      <trkpt lat="48.03157" lon="0.65593">
        <ele>167.1</ele>
        <time>2015-06-14T07:00:41.000Z</time>
      </trkpt>
      <trkpt lat="48.03156" lon="0.65591">
        <ele>167.2</ele>
        <time>2015-06-14T07:00:42.000Z</time>
      </trkpt>
      <trkpt lat="48.0315" lon="0.65582">
        <ele>167.3</ele>
        <time>2015-06-14T07:00:47.000Z</time>
      </trkpt>
      <trkpt lat="48.03144" lon="0.65573">
        <ele>167.2</ele>
        <time>2015-06-14T07:00:53.000Z</time>
      </trkpt>
      <trkpt lat="48.03141" lon="0.65569">
        <ele>167.2</ele>
        <time>2015-06-14T07:00:56.000Z</time>
      </trkpt>
      <trkpt lat="48.03132" lon="0.65562">
        <ele>166.8</ele>
        <time>2015-06-14T07:01:02.000Z</time>
      </trkpt>
      <trkpt lat="48.03124" lon="0.65555">
        <ele>166.4</ele>
        <time>2015-06-14T07:01:10.000Z</time>
      </trkpt>
      <trkpt lat="48.03115" lon="0.65549">
        <ele>166.3</ele>
        <time>2015-06-14T07:01:17.000Z</time>
      </trkpt>
      <trkpt lat="48.03105" lon="0.65544">
        <ele>166.2</ele>
        <time>2015-06-14T07:01:23.000Z</time>
      </trkpt>
      <trkpt lat="48.031" lon="0.65542">
        <ele>165.9</ele>
        <time>2015-06-14T07:01:27.000Z</time>
      </trkpt>
      <trkpt lat="48.03095" lon="0.65543">
        <ele>165.4</ele>
        <time>2015-06-14T07:01:31.000Z</time>
      </trkpt>
      <trkpt lat="48.03089" lon="0.65543">
        <ele>164.8</ele>
        <time>2015-06-14T07:01:37.000Z</time>
      </trkpt>
      <trkpt lat="48.03085" lon="0.65543">
        <ele>164.5</ele>
        <time>2015-06-14T07:01:41.000Z</time>
      </trkpt>
      <trkpt lat="48.03081" lon="0.6554">
        <ele>164.4</ele>
        <time>2015-06-14T07:01:44.000Z</time>
      </trkpt>
      <trkpt lat="48.03076" lon="0.6554">
        <ele>163.8</ele>
        <time>2015-06-14T07:01:49.000Z</time>
      </trkpt>
      <trkpt lat="48.03075" lon="0.6554">
        <ele>163.6</ele>
        <time>2015-06-14T07:01:50.000Z</time>
      </trkpt>
      <trkpt lat="48.03068" lon="0.65539">
        <ele>162.8</ele>
        <time>2015-06-14T07:01:55.000Z</time>
      </trkpt>
      <trkpt lat="48.03067" lon="0.65539">
        <ele>162.7</ele>
        <time>2015-06-14T07:01:56.000Z</time>
      </trkpt>
      <trkpt lat="48.03065" lon="0.65538">
        <ele>162.5</ele>
        <time>2015-06-14T07:01:58.000Z</time>
      </trkpt>
      <trkpt lat="48.03055" lon="0.65536">
        <ele>161.3</ele>
        <time>2015-06-14T07:02:04.000Z</time>
      </trkpt>
      <trkpt lat="48.03053" lon="0.65535">
        <ele>161.2</ele>
        <time>2015-06-14T07:02:05.000Z</time>
      </trkpt>
      <trkpt lat="48.03044" lon="0.65534">
        <ele>159.9</ele>
        <time>2015-06-14T07:02:09.000Z</time>
      </trkpt>
      <trkpt lat="48.03039" lon="0.65528">
        <ele>159.5</ele>
        <time>2015-06-14T07:02:14.000Z</time>
      </trkpt>
      <trkpt lat="48.03036" lon="0.65527">
        <ele>159.2</ele>
        <time>2015-06-14T07:02:16.000Z</time>
      </trkpt>
      <trkpt lat="48.03031" lon="0.65523">
        <ele>158.7</ele>
        <time>2015-06-14T07:02:19.000Z</time>
      </trkpt>
      <trkpt lat="48.03024" lon="0.65517">
        <ele>157.9</ele>
        <time>2015-06-14T07:02:24.000Z</time>
      </trkpt>
      <trkpt lat="48.03015" lon="0.65513">
        <ele>156.8</ele>
        <time>2015-06-14T07:02:29.000Z</time>
      </trkpt>
      <trkpt lat="48.03009" lon="0.65508">
        <ele>156.2</ele>
        <time>2015-06-14T07:02:34.000Z</time>
      </trkpt>
      <trkpt lat="48.03005" lon="0.65506">
        <ele>155.7</ele>
        <time>2015-06-14T07:02:37.000Z</time>
      </trkpt>
      <trkpt lat="48.02999" lon="0.65502">
        <ele>154.7</ele>
        <time>2015-06-14T07:02:41.000Z</time>
      </trkpt>
      <trkpt lat="48.02997" lon="0.65501">
        <ele>154.4</ele>
        <time>2015-06-14T07:02:42.000Z</time>
      </trkpt>
      <trkpt lat="48.02987" lon="0.65498">
        <ele>152.1</ele>
        <time>2015-06-14T07:02:47.000Z</time>
      </trkpt>
      <trkpt lat="48.02978" lon="0.65492">
        <ele>150.2</ele>
        <time>2015-06-14T07:02:52.000Z</time>
      </trkpt>
      <trkpt lat="48.02977" lon="0.65492">
        <ele>149.9</ele>
        <time>2015-06-14T07:02:53.000Z</time>
      </trkpt>
      <trkpt lat="48.02971" lon="0.65489">
        <ele>148.9</ele>
        <time>2015-06-14T07:02:56.000Z</time>
      </trkpt>
      <trkpt lat="48.02965" lon="0.65486">
        <ele>148.1</ele>
        <time>2015-06-14T07:02:57.000Z</time>
      </trkpt>
      <trkpt lat="48.02954" lon="0.65477">
        <ele>146.5</ele>
        <time>2015-06-14T07:03:02.000Z</time>
      </trkpt>
      <trkpt lat="48.02945" lon="0.65466">
        <ele>145.1</ele>
        <time>2015-06-14T07:03:07.000Z</time>
      </trkpt>
      <trkpt lat="48.0294" lon="0.65463">
        <ele>144.5</ele>
        <time>2015-06-14T07:03:08.000Z</time>
      </trkpt>
      <trkpt lat="48.02921" lon="0.65452">
        <ele>142.4</ele>
        <time>2015-06-14T07:03:16.000Z</time>
      </trkpt>
      <trkpt lat="48.02913" lon="0.65444">
        <ele>141.6</ele>
        <time>2015-06-14T07:03:21.000Z</time>
      </trkpt>
      <trkpt lat="48.02905" lon="0.65437">
        <ele>140.5</ele>
        <time>2015-06-14T07:03:26.000Z</time>
      </trkpt>
      <trkpt lat="48.02896" lon="0.65428">
        <ele>139.6</ele>
        <time>2015-06-14T07:03:31.000Z</time>
      </trkpt>
      <trkpt lat="48.02891" lon="0.65421">
        <ele>139.1</ele>
        <time>2015-06-14T07:03:35.000Z</time>
      </trkpt>
      <trkpt lat="48.02882" lon="0.65413">
        <ele>138.2</ele>
        <time>2015-06-14T07:03:41.000Z</time>
      </trkpt>
      <trkpt lat="48.0288" lon="0.65413">
        <ele>138</ele>
        <time>2015-06-14T07:03:42.000Z</time>
      </trkpt>
      <trkpt lat="48.02873" lon="0.65404">
        <ele>137.1</ele>
        <time>2015-06-14T07:03:47.000Z</time>
      </trkpt>
      <trkpt lat="48.02871" lon="0.65399">
        <ele>136.9</ele>
        <time>2015-06-14T07:03:49.000Z</time>
      </trkpt>
      <trkpt lat="48.02873" lon="0.65388">
        <ele>136.8</ele>
        <time>2015-06-14T07:03:53.000Z</time>
      </trkpt>
      <trkpt lat="48.02877" lon="0.65377">
        <ele>136.7</ele>
        <time>2015-06-14T07:03:58.000Z</time>
      </trkpt>
      <trkpt lat="48.02885" lon="0.65358">
        <ele>136.7</ele>
        <time>2015-06-14T07:04:07.000Z</time>
      </trkpt>
      <trkpt lat="48.02887" lon="0.65351">
        <ele>136.9</ele>
        <time>2015-06-14T07:04:10.000Z</time>
      </trkpt>
      <trkpt lat="48.0289" lon="0.65341">
        <ele>137.1</ele>
        <time>2015-06-14T07:04:15.000Z</time>
      </trkpt>
      <trkpt lat="48.02894" lon="0.65332">
        <ele>137.3</ele>
        <time>2015-06-14T07:04:19.000Z</time>
      </trkpt>
      <trkpt lat="48.02898" lon="0.65323">
        <ele>137.1</ele>
        <time>2015-06-14T07:04:23.000Z</time>
      </trkpt>
      <trkpt lat="48.02899" lon="0.65317">
        <ele>137</ele>
        <time>2015-06-14T07:04:26.000Z</time>
      </trkpt>
      <trkpt lat="48.029" lon="0.65315">
        <ele>137</ele>
        <time>2015-06-14T07:04:27.000Z</time>
      </trkpt>
      <trkpt lat="48.02905" lon="0.65302">
        <ele>137.1</ele>
        <time>2015-06-14T07:04:32.000Z</time>
      </trkpt>
      <trkpt lat="48.02906" lon="0.653">
        <ele>137.1</ele>
        <time>2015-06-14T07:04:34.000Z</time>
      </trkpt>
      <trkpt lat="48.02906" lon="0.65298">
        <ele>137</ele>
        <time>2015-06-14T07:04:35.000Z</time>
      </trkpt>
      <trkpt lat="48.02911" lon="0.65284">
        <ele>136.8</ele>
        <time>2015-06-14T07:04:42.000Z</time>
      </trkpt>
      <trkpt lat="48.02918" lon="0.65261">
        <ele>136.6</ele>
        <time>2015-06-14T07:04:52.000Z</time>
      </trkpt>
      <trkpt lat="48.02926" lon="0.65244">
        <ele>137</ele>
        <time>2015-06-14T07:05:00.000Z</time>
      </trkpt>
      <trkpt lat="48.02928" lon="0.6524">
        <ele>137</ele>
        <time>2015-06-14T07:05:02.000Z</time>
      </trkpt>
      <trkpt lat="48.02926" lon="0.65233">
        <ele>136.3</ele>
        <time>2015-06-14T07:05:06.000Z</time>
      </trkpt>
      <trkpt lat="48.02925" lon="0.65228">
        <ele>135.8</ele>
        <time>2015-06-14T07:05:08.000Z</time>
      </trkpt>
      <trkpt lat="48.02932" lon="0.65214">
        <ele>136.7</ele>
        <time>2015-06-14T07:05:15.000Z</time>
      </trkpt>
      <trkpt lat="48.02939" lon="0.65204">
        <ele>137.5</ele>
        <time>2015-06-14T07:05:22.000Z</time>
      </trkpt>
      <trkpt lat="48.02949" lon="0.65182">
        <ele>138.9</ele>
        <time>2015-06-14T07:05:35.000Z</time>
      </trkpt>
      <trkpt lat="48.02955" lon="0.65172">
        <ele>140.3</ele>
        <time>2015-06-14T07:05:41.000Z</time>
      </trkpt>
      <trkpt lat="48.0296" lon="0.65155">
        <ele>141.1</ele>
        <time>2015-06-14T07:05:49.000Z</time>
      </trkpt>
      <trkpt lat="48.02968" lon="0.65141">
        <ele>142.3</ele>
        <time>2015-06-14T07:05:58.000Z</time>
      </trkpt>
      <trkpt lat="48.02976" lon="0.65127">
        <ele>143.1</ele>
        <time>2015-06-14T07:06:06.000Z</time>
      </trkpt>
      <trkpt lat="48.02984" lon="0.65116">
        <ele>143.8</ele>
        <time>2015-06-14T07:06:13.000Z</time>
      </trkpt>
      <trkpt lat="48.02991" lon="0.651">
        <ele>143.9</ele>
        <time>2015-06-14T07:06:21.000Z</time>
      </trkpt>
      <trkpt lat="48.03" lon="0.65086">
        <ele>144.1</ele>
        <time>2015-06-14T07:06:29.000Z</time>
      </trkpt>
      <trkpt lat="48.03005" lon="0.65069">
        <ele>141.6</ele>
        <time>2015-06-14T07:06:37.000Z</time>
      </trkpt>
      <trkpt lat="48.03004" lon="0.65058">
        <ele>140</ele>
        <time>2015-06-14T07:06:43.000Z</time>
      </trkpt>
      <trkpt lat="48.03" lon="0.65047">
        <ele>138.4</ele>
        <time>2015-06-14T07:06:49.000Z</time>
      </trkpt>
      <trkpt lat="48.02998" lon="0.65046">
        <ele>138.2</ele>
        <time>2015-06-14T07:06:50.000Z</time>
      </trkpt>
      <trkpt lat="48.02995" lon="0.6504">
        <ele>136.7</ele>
        <time>2015-06-14T07:06:54.000Z</time>
      </trkpt>
      <trkpt lat="48.02994" lon="0.65038">
        <ele>136.3</ele>
        <time>2015-06-14T07:06:55.000Z</time>
      </trkpt>
      <trkpt lat="48.02989" lon="0.65026">
        <ele>134</ele>
        <time>2015-06-14T07:07:02.000Z</time>
      </trkpt>
      <trkpt lat="48.02985" lon="0.65018">
        <ele>132.5</ele>
        <time>2015-06-14T07:07:07.000Z</time>
      </trkpt>
      <trkpt lat="48.02988" lon="0.65015">
        <ele>132.2</ele>
        <time>2015-06-14T07:07:11.000Z</time>
      </trkpt>
      <trkpt lat="48.02992" lon="0.65017">
        <ele>132.7</ele>
        <time>2015-06-14T07:07:18.000Z</time>
      </trkpt>
      <trkpt lat="48.02992" lon="0.65009">
        <ele>131.5</ele>
        <time>2015-06-14T07:07:21.000Z</time>
      </trkpt>
      <trkpt lat="48.02996" lon="0.64997">
        <ele>129.7</ele>
        <time>2015-06-14T07:07:27.000Z</time>
      </trkpt>
      <trkpt lat="48.03004" lon="0.64987">
        <ele>129.4</ele>
        <time>2015-06-14T07:07:32.000Z</time>
      </trkpt>
      <trkpt lat="48.03015" lon="0.64974">
        <ele>129.7</ele>
        <time>2015-06-14T07:07:42.000Z</time>
      </trkpt>
      <trkpt lat="48.03024" lon="0.64964">
        <ele>130.6</ele>
        <time>2015-06-14T07:07:50.000Z</time>
      </trkpt>
      <trkpt lat="48.03026" lon="0.64962">
        <ele>130.8</ele>
        <time>2015-06-14T07:07:53.000Z</time>
      </trkpt>
      <trkpt lat="48.03029" lon="0.64967">
        <ele>131.1</ele>
        <time>2015-06-14T07:07:58.000Z</time>
      </trkpt>
      <trkpt lat="48.03028" lon="0.64969">
        <ele>131.1</ele>
        <time>2015-06-14T07:07:59.000Z</time>
      </trkpt>
      <trkpt lat="48.03027" lon="0.64976">
        <ele>130.9</ele>
        <time>2015-06-14T07:08:04.000Z</time>
      </trkpt>
      <trkpt lat="48.03027" lon="0.64977">
        <ele>130.9</ele>
        <time>2015-06-14T07:08:06.000Z</time>
      </trkpt>
      <trkpt lat="48.03027" lon="0.64978">
        <ele>130.9</ele>
        <time>2015-06-14T07:08:07.000Z</time>
      </trkpt>
      <trkpt lat="48.03027" lon="0.6498">
        <ele>130.9</ele>
        <time>2015-06-14T07:08:16.000Z</time>
      </trkpt>
      <trkpt lat="48.03028" lon="0.64979">
        <ele>131</ele>
        <time>2015-06-14T07:08:31.000Z</time>
      </trkpt>
      <trkpt lat="48.03033" lon="0.64978">
        <ele>131.7</ele>
        <time>2015-06-14T07:10:47.000Z</time>
      </trkpt>
      <trkpt lat="48.03035" lon="0.6497">
        <ele>132</ele>
        <time>2015-06-14T07:10:52.000Z</time>
      </trkpt>
      <trkpt lat="48.03034" lon="0.64969">
        <ele>131.9</ele>
        <time>2015-06-14T07:10:53.000Z</time>
      </trkpt>
      <trkpt lat="48.03026" lon="0.64957">
        <ele>130.7</ele>
        <time>2015-06-14T07:11:00.000Z</time>
      </trkpt>
      <trkpt lat="48.03025" lon="0.64955">
        <ele>130.6</ele>
        <time>2015-06-14T07:11:01.000Z</time>
      </trkpt>
      <trkpt lat="48.03018" lon="0.64946">
        <ele>129.6</ele>
        <time>2015-06-14T07:11:06.000Z</time>
      </trkpt>
      <trkpt lat="48.03011" lon="0.64937">
        <ele>128.6</ele>
        <time>2015-06-14T07:11:12.000Z</time>
      </trkpt>
      <trkpt lat="48.03" lon="0.64921">
        <ele>126.1</ele>
        <time>2015-06-14T07:11:21.000Z</time>
      </trkpt>
      <trkpt lat="48.02992" lon="0.64907">
        <ele>124.7</ele>
        <time>2015-06-14T07:11:30.000Z</time>
      </trkpt>
      <trkpt lat="48.02985" lon="0.64895">
        <ele>123.2</ele>
        <time>2015-06-14T07:11:37.000Z</time>
      </trkpt>
      <trkpt lat="48.02976" lon="0.64879">
        <ele>121.1</ele>
        <time>2015-06-14T07:11:46.000Z</time>
      </trkpt>
      <trkpt lat="48.02968" lon="0.64865">
        <ele>119.7</ele>
        <time>2015-06-14T07:11:54.000Z</time>
      </trkpt>
      <trkpt lat="48.02964" lon="0.64855">
        <ele>118.8</ele>
        <time>2015-06-14T07:11:59.000Z</time>
      </trkpt>
      <trkpt lat="48.02982" lon="0.64832">
        <ele>118.9</ele>
        <time>2015-06-14T07:12:12.000Z</time>
      </trkpt>
      <trkpt lat="48.02994" lon="0.64817">
        <ele>118.8</ele>
        <time>2015-06-14T07:12:21.000Z</time>
      </trkpt>
      <trkpt lat="48.03008" lon="0.64801">
        <ele>118.6</ele>
        <time>2015-06-14T07:12:31.000Z</time>
      </trkpt>
      <trkpt lat="48.03017" lon="0.64789">
        <ele>118.5</ele>
        <time>2015-06-14T07:12:38.000Z</time>
      </trkpt>
      <trkpt lat="48.03027" lon="0.64776">
        <ele>117.9</ele>
        <time>2015-06-14T07:12:46.000Z</time>
      </trkpt>
      <trkpt lat="48.03035" lon="0.64764">
        <ele>117.7</ele>
        <time>2015-06-14T07:12:53.000Z</time>
      </trkpt>
      <trkpt lat="48.03043" lon="0.64758">
        <ele>117.8</ele>
        <time>2015-06-14T07:12:58.000Z</time>
      </trkpt>
      <trkpt lat="48.03046" lon="0.64755">
        <ele>117.8</ele>
        <time>2015-06-14T07:13:01.000Z</time>
      </trkpt>
      <trkpt lat="48.03065" lon="0.64741">
        <ele>118</ele>
        <time>2015-06-14T07:13:14.000Z</time>
      </trkpt>
      <trkpt lat="48.03069" lon="0.64737">
        <ele>118</ele>
        <time>2015-06-14T07:13:17.000Z</time>
      </trkpt>
      <trkpt lat="48.03072" lon="0.6473">
        <ele>117.7</ele>
        <time>2015-06-14T07:13:21.000Z</time>
      </trkpt>
      <trkpt lat="48.03078" lon="0.64716">
        <ele>116.9</ele>
        <time>2015-06-14T07:13:28.000Z</time>
      </trkpt>
      <trkpt lat="48.03079" lon="0.64714">
        <ele>116.8</ele>
        <time>2015-06-14T07:13:29.000Z</time>
      </trkpt>
      <trkpt lat="48.03086" lon="0.64701">
        <ele>115.8</ele>
        <time>2015-06-14T07:13:35.000Z</time>
      </trkpt>
      <trkpt lat="48.03088" lon="0.64698">
        <ele>115.5</ele>
        <time>2015-06-14T07:13:37.000Z</time>
      </trkpt>
      <trkpt lat="48.03092" lon="0.64688">
        <ele>114.9</ele>
        <time>2015-06-14T07:13:42.000Z</time>
      </trkpt>
      <trkpt lat="48.03099" lon="0.64677">
        <ele>114.3</ele>
        <time>2015-06-14T07:13:48.000Z</time>
      </trkpt>
      <trkpt lat="48.03104" lon="0.64668">
        <ele>113.8</ele>
        <time>2015-06-14T07:13:53.000Z</time>
      </trkpt>
      <trkpt lat="48.03111" lon="0.64656">
        <ele>113.2</ele>
        <time>2015-06-14T07:13:59.000Z</time>
      </trkpt>
      <trkpt lat="48.03118" lon="0.64629">
        <ele>111.8</ele>
        <time>2015-06-14T07:14:10.000Z</time>
      </trkpt>
      <trkpt lat="48.03121" lon="0.64619">
        <ele>111.4</ele>
        <time>2015-06-14T07:14:14.000Z</time>
      </trkpt>
      <trkpt lat="48.03123" lon="0.64607">
        <ele>110.9</ele>
        <time>2015-06-14T07:14:19.000Z</time>
      </trkpt>
      <trkpt lat="48.03125" lon="0.64588">
        <ele>110.2</ele>
        <time>2015-06-14T07:14:26.000Z</time>
      </trkpt>
      <trkpt lat="48.03125" lon="0.64583">
        <ele>110</ele>
        <time>2015-06-14T07:14:28.000Z</time>
      </trkpt>
      <trkpt lat="48.03126" lon="0.64565">
        <ele>110</ele>
        <time>2015-06-14T07:14:36.000Z</time>
      </trkpt>
      <trkpt lat="48.03126" lon="0.64562">
        <ele>110</ele>
        <time>2015-06-14T07:14:37.000Z</time>
      </trkpt>
      <trkpt lat="48.03126" lon="0.64551">
        <ele>110</ele>
        <time>2015-06-14T07:14:42.000Z</time>
      </trkpt>
      <trkpt lat="48.03127" lon="0.64549">
        <ele>110</ele>
        <time>2015-06-14T07:14:43.000Z</time>
      </trkpt>
      <trkpt lat="48.03125" lon="0.6454">
        <ele>110</ele>
        <time>2015-06-14T07:14:47.000Z</time>
      </trkpt>
      <trkpt lat="48.03121" lon="0.64524">
        <ele>110</ele>
        <time>2015-06-14T07:14:54.000Z</time>
      </trkpt>
      <trkpt lat="48.03115" lon="0.64505">
        <ele>110</ele>
        <time>2015-06-14T07:15:02.000Z</time>
      </trkpt>
      <trkpt lat="48.03107" lon="0.64478">
        <ele>110</ele>
        <time>2015-06-14T07:15:15.000Z</time>
      </trkpt>
      <trkpt lat="48.03104" lon="0.6446">
        <ele>110.1</ele>
        <time>2015-06-14T07:15:23.000Z</time>
      </trkpt>
      <trkpt lat="48.03101" lon="0.64447">
        <ele>110.3</ele>
        <time>2015-06-14T07:15:30.000Z</time>
      </trkpt>
      <trkpt lat="48.03101" lon="0.64444">
        <ele>110.4</ele>
        <time>2015-06-14T07:15:31.000Z</time>
      </trkpt>
      <trkpt lat="48.03106" lon="0.64432">
        <ele>110.5</ele>
        <time>2015-06-14T07:15:37.000Z</time>
      </trkpt>
      <trkpt lat="48.03107" lon="0.6443">
        <ele>110.6</ele>
        <time>2015-06-14T07:15:38.000Z</time>
      </trkpt>
      <trkpt lat="48.03115" lon="0.6442">
        <ele>110.8</ele>
        <time>2015-06-14T07:15:44.000Z</time>
      </trkpt>
      <trkpt lat="48.03123" lon="0.64405">
        <ele>110.7</ele>
        <time>2015-06-14T07:15:52.000Z</time>
      </trkpt>
      <trkpt lat="48.03124" lon="0.64403">
        <ele>110.8</ele>
        <time>2015-06-14T07:15:53.000Z</time>
      </trkpt>
      <trkpt lat="48.03132" lon="0.64389">
        <ele>111</ele>
        <time>2015-06-14T07:16:00.000Z</time>
      </trkpt>
      <trkpt lat="48.03134" lon="0.64386">
        <ele>111</ele>
        <time>2015-06-14T07:16:02.000Z</time>
      </trkpt>
      <trkpt lat="48.03138" lon="0.64378">
        <ele>111</ele>
        <time>2015-06-14T07:16:06.000Z</time>
      </trkpt>
      <trkpt lat="48.03142" lon="0.64368">
        <ele>110.9</ele>
        <time>2015-06-14T07:16:12.000Z</time>
      </trkpt>
      <trkpt lat="48.03147" lon="0.6436">
        <ele>110.7</ele>
        <time>2015-06-14T07:16:17.000Z</time>
      </trkpt>
      <trkpt lat="48.03153" lon="0.64348">
        <ele>110.7</ele>
        <time>2015-06-14T07:16:24.000Z</time>
      </trkpt>
      <trkpt lat="48.03161" lon="0.64333">
        <ele>111</ele>
        <time>2015-06-14T07:16:30.000Z</time>
      </trkpt>
      <trkpt lat="48.03168" lon="0.64322">
        <ele>111</ele>
        <time>2015-06-14T07:16:36.000Z</time>
      </trkpt>
      <trkpt lat="48.03174" lon="0.64307">
        <ele>110.7</ele>
        <time>2015-06-14T07:16:43.000Z</time>
      </trkpt>
      <trkpt lat="48.03177" lon="0.643">
        <ele>110.6</ele>
        <time>2015-06-14T07:16:47.000Z</time>
      </trkpt>
      <trkpt lat="48.03183" lon="0.64287">
        <ele>110.4</ele>
        <time>2015-06-14T07:16:53.000Z</time>
      </trkpt>
      <trkpt lat="48.03189" lon="0.64276">
        <ele>110.3</ele>
        <time>2015-06-14T07:16:58.000Z</time>
      </trkpt>
      <trkpt lat="48.03192" lon="0.64266">
        <ele>110.5</ele>
        <time>2015-06-14T07:17:02.000Z</time>
      </trkpt>
      <trkpt lat="48.03195" lon="0.64256">
        <ele>110.8</ele>
        <time>2015-06-14T07:17:07.000Z</time>
      </trkpt>
      <trkpt lat="48.03205" lon="0.64236">
        <ele>110.6</ele>
        <time>2015-06-14T07:17:16.000Z</time>
      </trkpt>
      <trkpt lat="48.03214" lon="0.64216">
        <ele>110.5</ele>
        <time>2015-06-14T07:17:25.000Z</time>
      </trkpt>
      <trkpt lat="48.03223" lon="0.64198">
        <ele>110.8</ele>
        <time>2015-06-14T07:17:34.000Z</time>
      </trkpt>
      <trkpt lat="48.03232" lon="0.64183">
        <ele>110.9</ele>
        <time>2015-06-14T07:17:42.000Z</time>
      </trkpt>
      <trkpt lat="48.0324" lon="0.64167">
        <ele>110.7</ele>
        <time>2015-06-14T07:17:50.000Z</time>
      </trkpt>
      <trkpt lat="48.03249" lon="0.64149">
        <ele>110.7</ele>
        <time>2015-06-14T07:17:59.000Z</time>
      </trkpt>
      <trkpt lat="48.03257" lon="0.64133">
        <ele>110.9</ele>
        <time>2015-06-14T07:18:07.000Z</time>
      </trkpt>
      <trkpt lat="48.03262" lon="0.6412">
        <ele>110.9</ele>
        <time>2015-06-14T07:18:13.000Z</time>
      </trkpt>
      <trkpt lat="48.03269" lon="0.64104">
        <ele>110.6</ele>
        <time>2015-06-14T07:18:20.000Z</time>
      </trkpt>
      <trkpt lat="48.03276" lon="0.64086">
        <ele>110.1</ele>
        <time>2015-06-14T07:18:28.000Z</time>
      </trkpt>
      <trkpt lat="48.03283" lon="0.64066">
        <ele>110.3</ele>
        <time>2015-06-14T07:18:37.000Z</time>
      </trkpt>
      <trkpt lat="48.0329" lon="0.6404">
        <ele>109.8</ele>
        <time>2015-06-14T07:18:48.000Z</time>
      </trkpt>
      <trkpt lat="48.03297" lon="0.64018">
        <ele>109.3</ele>
        <time>2015-06-14T07:18:58.000Z</time>
      </trkpt>
      <trkpt lat="48.03307" lon="0.63993">
        <ele>109</ele>
        <time>2015-06-14T07:19:10.000Z</time>
      </trkpt>
      <trkpt lat="48.03317" lon="0.63971">
        <ele>109.1</ele>
        <time>2015-06-14T07:19:20.000Z</time>
      </trkpt>
      <trkpt lat="48.03326" lon="0.63947">
        <ele>109.9</ele>
        <time>2015-06-14T07:19:32.000Z</time>
      </trkpt>
      <trkpt lat="48.03335" lon="0.63928">
        <ele>110</ele>
        <time>2015-06-14T07:19:42.000Z</time>
      </trkpt>
      <trkpt lat="48.03342" lon="0.63909">
        <ele>110.3</ele>
        <time>2015-06-14T07:19:51.000Z</time>
      </trkpt>
      <trkpt lat="48.03345" lon="0.63901">
        <ele>110.6</ele>
        <time>2015-06-14T07:19:55.000Z</time>
      </trkpt>
      <trkpt lat="48.03351" lon="0.63886">
        <ele>111.1</ele>
        <time>2015-06-14T07:20:02.000Z</time>
      </trkpt>
      <trkpt lat="48.03359" lon="0.63865">
        <ele>111.1</ele>
        <time>2015-06-14T07:20:12.000Z</time>
      </trkpt>
      <trkpt lat="48.0336" lon="0.63864">
        <ele>111.1</ele>
        <time>2015-06-14T07:20:13.000Z</time>
      </trkpt>
      <trkpt lat="48.03366" lon="0.63851">
        <ele>111.7</ele>
        <time>2015-06-14T07:20:20.000Z</time>
      </trkpt>
      <trkpt lat="48.03371" lon="0.63838">
        <ele>112.4</ele>
        <time>2015-06-14T07:20:26.000Z</time>
      </trkpt>
      <trkpt lat="48.03375" lon="0.63826">
        <ele>112.6</ele>
        <time>2015-06-14T07:20:32.000Z</time>
      </trkpt>
      <trkpt lat="48.03381" lon="0.63813">
        <ele>112.5</ele>
        <time>2015-06-14T07:20:38.000Z</time>
      </trkpt>
      <trkpt lat="48.03388" lon="0.63796">
        <ele>112.4</ele>
        <time>2015-06-14T07:20:46.000Z</time>
      </trkpt>
      <trkpt lat="48.03398" lon="0.63775">
        <ele>112.8</ele>
        <time>2015-06-14T07:20:56.000Z</time>
      </trkpt>
      <trkpt lat="48.03405" lon="0.6376">
        <ele>112.7</ele>
        <time>2015-06-14T07:21:02.000Z</time>
      </trkpt>
      <trkpt lat="48.03408" lon="0.63751">
        <ele>112.6</ele>
        <time>2015-06-14T07:21:07.000Z</time>
      </trkpt>
      <trkpt lat="48.03416" lon="0.63732">
        <ele>112.7</ele>
        <time>2015-06-14T07:21:16.000Z</time>
      </trkpt>
      <trkpt lat="48.03425" lon="0.63712">
        <ele>112.6</ele>
        <time>2015-06-14T07:21:26.000Z</time>
      </trkpt>
      <trkpt lat="48.03434" lon="0.63692">
        <ele>112.2</ele>
        <time>2015-06-14T07:21:36.000Z</time>
      </trkpt>
      <trkpt lat="48.0344" lon="0.63677">
        <ele>112</ele>
        <time>2015-06-14T07:21:43.000Z</time>
      </trkpt>
      <trkpt lat="48.03448" lon="0.63659">
        <ele>111.7</ele>
        <time>2015-06-14T07:21:52.000Z</time>
      </trkpt>
      <trkpt lat="48.03454" lon="0.63642">
        <ele>111</ele>
        <time>2015-06-14T07:22:00.000Z</time>
      </trkpt>
      <trkpt lat="48.03462" lon="0.63623">
        <ele>109.9</ele>
        <time>2015-06-14T07:22:08.000Z</time>
      </trkpt>
      <trkpt lat="48.03467" lon="0.63606">
        <ele>109.3</ele>
        <time>2015-06-14T07:22:17.000Z</time>
      </trkpt>
      <trkpt lat="48.03468" lon="0.63591">
        <ele>109.3</ele>
        <time>2015-06-14T07:22:23.000Z</time>
      </trkpt>
      <trkpt lat="48.03465" lon="0.63586">
        <ele>109.5</ele>
        <time>2015-06-14T07:22:27.000Z</time>
      </trkpt>
      <trkpt lat="48.03458" lon="0.63589">
        <ele>110.1</ele>
        <time>2015-06-14T07:22:32.000Z</time>
      </trkpt>
      <trkpt lat="48.03449" lon="0.63596">
        <ele>110.6</ele>
        <time>2015-06-14T07:22:38.000Z</time>
      </trkpt>
      <trkpt lat="48.03437" lon="0.63605">
        <ele>112.1</ele>
        <time>2015-06-14T07:22:48.000Z</time>
      </trkpt>
      <trkpt lat="48.03427" lon="0.6361">
        <ele>113.4</ele>
        <time>2015-06-14T07:22:54.000Z</time>
      </trkpt>
      <trkpt lat="48.03411" lon="0.63622">
        <ele>115.7</ele>
        <time>2015-06-14T07:23:05.000Z</time>
      </trkpt>
      <trkpt lat="48.03394" lon="0.63633">
        <ele>117.6</ele>
        <time>2015-06-14T07:23:17.000Z</time>
      </trkpt>
      <trkpt lat="48.03379" lon="0.63642">
        <ele>118.6</ele>
        <time>2015-06-14T07:23:27.000Z</time>
      </trkpt>
      <trkpt lat="48.03372" lon="0.63647">
        <ele>118.9</ele>
        <time>2015-06-14T07:23:32.000Z</time>
      </trkpt>
      <trkpt lat="48.03364" lon="0.63653">
        <ele>119.3</ele>
        <time>2015-06-14T07:23:38.000Z</time>
      </trkpt>
      <trkpt lat="48.03354" lon="0.63659">
        <ele>119.6</ele>
        <time>2015-06-14T07:23:46.000Z</time>
      </trkpt>
      <trkpt lat="48.03344" lon="0.63664">
        <ele>119.8</ele>
        <time>2015-06-14T07:23:53.000Z</time>
      </trkpt>
      <trkpt lat="48.03333" lon="0.6367">
        <ele>119.9</ele>
        <time>2015-06-14T07:24:01.000Z</time>
      </trkpt>
      <trkpt lat="48.03326" lon="0.63674">
        <ele>120</ele>
        <time>2015-06-14T07:24:07.000Z</time>
      </trkpt>
      <trkpt lat="48.03319" lon="0.63679">
        <ele>120.1</ele>
        <time>2015-06-14T07:24:13.000Z</time>
      </trkpt>
      <trkpt lat="48.03313" lon="0.63683">
        <ele>120.2</ele>
        <time>2015-06-14T07:24:19.000Z</time>
      </trkpt>
      <trkpt lat="48.03311" lon="0.63683">
        <ele>120.2</ele>
        <time>2015-06-14T07:24:20.000Z</time>
      </trkpt>
      <trkpt lat="48.03303" lon="0.63677">
        <ele>120.7</ele>
        <time>2015-06-14T07:24:25.000Z</time>
      </trkpt>
      <trkpt lat="48.03296" lon="0.63676">
        <ele>120.9</ele>
        <time>2015-06-14T07:24:30.000Z</time>
      </trkpt>
      <trkpt lat="48.03294" lon="0.63675">
        <ele>121</ele>
        <time>2015-06-14T07:24:31.000Z</time>
      </trkpt>
      <trkpt lat="48.03292" lon="0.63674">
        <ele>121.1</ele>
        <time>2015-06-14T07:24:33.000Z</time>
      </trkpt>
      <trkpt lat="48.03287" lon="0.63675">
        <ele>121.1</ele>
        <time>2015-06-14T07:24:35.000Z</time>
      </trkpt>
      <trkpt lat="48.03281" lon="0.6367">
        <ele>121.7</ele>
        <time>2015-06-14T07:24:41.000Z</time>
      </trkpt>
      <trkpt lat="48.03279" lon="0.63669">
        <ele>121.8</ele>
        <time>2015-06-14T07:24:43.000Z</time>
      </trkpt>
      <trkpt lat="48.03276" lon="0.63668">
        <ele>121.9</ele>
        <time>2015-06-14T07:24:45.000Z</time>
      </trkpt>
      <trkpt lat="48.03273" lon="0.63666">
        <ele>122.3</ele>
        <time>2015-06-14T07:24:48.000Z</time>
      </trkpt>
      <trkpt lat="48.03269" lon="0.63662">
        <ele>122.7</ele>
        <time>2015-06-14T07:24:52.000Z</time>
      </trkpt>
      <trkpt lat="48.03268" lon="0.63661">
        <ele>122.9</ele>
        <time>2015-06-14T07:24:54.000Z</time>
      </trkpt>
      <trkpt lat="48.03261" lon="0.63659">
        <ele>123.3</ele>
        <time>2015-06-14T07:24:59.000Z</time>
      </trkpt>
      <trkpt lat="48.03255" lon="0.63652">
        <ele>123.9</ele>
        <time>2015-06-14T07:25:04.000Z</time>
      </trkpt>
      <trkpt lat="48.03253" lon="0.63648">
        <ele>124.3</ele>
        <time>2015-06-14T07:25:08.000Z</time>
      </trkpt>
      <trkpt lat="48.03251" lon="0.63646">
        <ele>124.5</ele>
        <time>2015-06-14T07:25:10.000Z</time>
      </trkpt>
      <trkpt lat="48.03244" lon="0.63641">
        <ele>124.8</ele>
        <time>2015-06-14T07:25:15.000Z</time>
      </trkpt>
      <trkpt lat="48.03244" lon="0.63638">
        <ele>125.1</ele>
        <time>2015-06-14T07:25:16.000Z</time>
      </trkpt>
      <trkpt lat="48.03242" lon="0.63634">
        <ele>125.5</ele>
        <time>2015-06-14T07:25:18.000Z</time>
      </trkpt>
      <trkpt lat="48.0324" lon="0.63629">
        <ele>126.1</ele>
        <time>2015-06-14T07:25:21.000Z</time>
      </trkpt>
      <trkpt lat="48.03237" lon="0.63614">
        <ele>127.7</ele>
        <time>2015-06-14T07:25:28.000Z</time>
      </trkpt>
      <trkpt lat="48.03234" lon="0.63609">
        <ele>128.1</ele>
        <time>2015-06-14T07:25:31.000Z</time>
      </trkpt>
      <trkpt lat="48.03232" lon="0.63606">
        <ele>128.4</ele>
        <time>2015-06-14T07:25:33.000Z</time>
      </trkpt>
      <trkpt lat="48.03228" lon="0.63599">
        <ele>128.9</ele>
        <time>2015-06-14T07:25:37.000Z</time>
      </trkpt>
      <trkpt lat="48.03225" lon="0.63597">
        <ele>129.1</ele>
        <time>2015-06-14T07:25:38.000Z</time>
      </trkpt>
      <trkpt lat="48.03219" lon="0.63589">
        <ele>129.6</ele>
        <time>2015-06-14T07:25:44.000Z</time>
      </trkpt>
      <trkpt lat="48.03217" lon="0.63584">
        <ele>129.9</ele>
        <time>2015-06-14T07:25:46.000Z</time>
      </trkpt>
      <trkpt lat="48.03216" lon="0.63581">
        <ele>130.2</ele>
        <time>2015-06-14T07:25:48.000Z</time>
      </trkpt>
      <trkpt lat="48.03213" lon="0.63573">
        <ele>130.8</ele>
        <time>2015-06-14T07:25:53.000Z</time>
      </trkpt>
      <trkpt lat="48.03208" lon="0.63567">
        <ele>131.2</ele>
        <time>2015-06-14T07:25:57.000Z</time>
      </trkpt>
      <trkpt lat="48.03202" lon="0.6356">
        <ele>131.7</ele>
        <time>2015-06-14T07:26:02.000Z</time>
      </trkpt>
      <trkpt lat="48.03197" lon="0.63556">
        <ele>132</ele>
        <time>2015-06-14T07:26:06.000Z</time>
      </trkpt>
      <trkpt lat="48.03194" lon="0.63552">
        <ele>132.1</ele>
        <time>2015-06-14T07:26:09.000Z</time>
      </trkpt>
      <trkpt lat="48.0319" lon="0.63549">
        <ele>132</ele>
        <time>2015-06-14T07:26:11.000Z</time>
      </trkpt>
      <trkpt lat="48.03183" lon="0.63544">
        <ele>131.7</ele>
        <time>2015-06-14T07:26:17.000Z</time>
      </trkpt>
      <trkpt lat="48.03181" lon="0.63543">
        <ele>131.7</ele>
        <time>2015-06-14T07:26:18.000Z</time>
      </trkpt>
      <trkpt lat="48.0318" lon="0.63539">
        <ele>131.9</ele>
        <time>2015-06-14T07:26:20.000Z</time>
      </trkpt>
      <trkpt lat="48.03173" lon="0.63535">
        <ele>131.8</ele>
        <time>2015-06-14T07:26:23.000Z</time>
      </trkpt>
      <trkpt lat="48.03172" lon="0.63533">
        <ele>131.8</ele>
        <time>2015-06-14T07:26:25.000Z</time>
      </trkpt>
      <trkpt lat="48.03166" lon="0.6353">
        <ele>131.8</ele>
        <time>2015-06-14T07:26:30.000Z</time>
      </trkpt>
      <trkpt lat="48.03163" lon="0.63528">
        <ele>131.7</ele>
        <time>2015-06-14T07:26:32.000Z</time>
      </trkpt>
      <trkpt lat="48.03153" lon="0.63523">
        <ele>131.2</ele>
        <time>2015-06-14T07:26:39.000Z</time>
      </trkpt>
      <trkpt lat="48.03152" lon="0.63521">
        <ele>131.1</ele>
        <time>2015-06-14T07:26:40.000Z</time>
      </trkpt>
      <trkpt lat="48.0315" lon="0.6352">
        <ele>131.1</ele>
        <time>2015-06-14T07:26:41.000Z</time>
      </trkpt>
      <trkpt lat="48.03146" lon="0.63513">
        <ele>131</ele>
        <time>2015-06-14T07:26:46.000Z</time>
      </trkpt>
      <trkpt lat="48.03145" lon="0.63512">
        <ele>131</ele>
        <time>2015-06-14T07:26:48.000Z</time>
      </trkpt>
      <trkpt lat="48.03139" lon="0.63505">
        <ele>130.8</ele>
        <time>2015-06-14T07:26:52.000Z</time>
      </trkpt>
      <trkpt lat="48.03132" lon="0.63501">
        <ele>130.7</ele>
        <time>2015-06-14T07:26:55.000Z</time>
      </trkpt>
      <trkpt lat="48.03125" lon="0.635">
        <ele>130.5</ele>
        <time>2015-06-14T07:26:58.000Z</time>
      </trkpt>
      <trkpt lat="48.03122" lon="0.63498">
        <ele>130.5</ele>
        <time>2015-06-14T07:27:00.000Z</time>
      </trkpt>
      <trkpt lat="48.03114" lon="0.63491">
        <ele>130.8</ele>
        <time>2015-06-14T07:27:06.000Z</time>
      </trkpt>
      <trkpt lat="48.0311" lon="0.63487">
        <ele>130.9</ele>
        <time>2015-06-14T07:27:09.000Z</time>
      </trkpt>
      <trkpt lat="48.03099" lon="0.63473">
        <ele>131.1</ele>
        <time>2015-06-14T07:27:17.000Z</time>
      </trkpt>
      <trkpt lat="48.03099" lon="0.63465">
        <ele>131.5</ele>
        <time>2015-06-14T07:27:20.000Z</time>
      </trkpt>
      <trkpt lat="48.03096" lon="0.63451">
        <ele>132.1</ele>
        <time>2015-06-14T07:27:26.000Z</time>
      </trkpt>
      <trkpt lat="48.03093" lon="0.63444">
        <ele>132.4</ele>
        <time>2015-06-14T07:27:29.000Z</time>
      </trkpt>
      <trkpt lat="48.03092" lon="0.63435">
        <ele>132.6</ele>
        <time>2015-06-14T07:27:33.000Z</time>
      </trkpt>
      <trkpt lat="48.03091" lon="0.63422">
        <ele>133.1</ele>
        <time>2015-06-14T07:27:38.000Z</time>
      </trkpt>
      <trkpt lat="48.0309" lon="0.63408">
        <ele>133.3</ele>
        <time>2015-06-14T07:27:43.000Z</time>
      </trkpt>
      <trkpt lat="48.03091" lon="0.63398">
        <ele>133.3</ele>
        <time>2015-06-14T07:27:46.000Z</time>
      </trkpt>
      <trkpt lat="48.0309" lon="0.63395">
        <ele>133.3</ele>
        <time>2015-06-14T07:27:48.000Z</time>
      </trkpt>
      <trkpt lat="48.03092" lon="0.63377">
        <ele>133.3</ele>
        <time>2015-06-14T07:27:55.000Z</time>
      </trkpt>
      <trkpt lat="48.03095" lon="0.63373">
        <ele>133.4</ele>
        <time>2015-06-14T07:27:57.000Z</time>
      </trkpt>
      <trkpt lat="48.03099" lon="0.63369">
        <ele>133.6</ele>
        <time>2015-06-14T07:28:00.000Z</time>
      </trkpt>
      <trkpt lat="48.03105" lon="0.63363">
        <ele>133.8</ele>
        <time>2015-06-14T07:28:08.000Z</time>
      </trkpt>
      <trkpt lat="48.03108" lon="0.63362">
        <ele>133.9</ele>
        <time>2015-06-14T07:28:12.000Z</time>
      </trkpt>
      <trkpt lat="48.0311" lon="0.63363">
        <ele>134</ele>
        <time>2015-06-14T07:28:14.000Z</time>
      </trkpt>
      <trkpt lat="48.0311" lon="0.6337">
        <ele>134</ele>
        <time>2015-06-14T07:28:19.000Z</time>
      </trkpt>
      <trkpt lat="48.03111" lon="0.63377">
        <ele>134</ele>
        <time>2015-06-14T07:28:23.000Z</time>
      </trkpt>
      <trkpt lat="48.03118" lon="0.63375">
        <ele>134.1</ele>
        <time>2015-06-14T07:28:29.000Z</time>
      </trkpt>
      <trkpt lat="48.03121" lon="0.63373">
        <ele>134.2</ele>
        <time>2015-06-14T07:28:31.000Z</time>
      </trkpt>
      <trkpt lat="48.03126" lon="0.63369">
        <ele>134.2</ele>
        <time>2015-06-14T07:28:36.000Z</time>
      </trkpt>
      <trkpt lat="48.03127" lon="0.63369">
        <ele>134.2</ele>
        <time>2015-06-14T07:28:37.000Z</time>
      </trkpt>
      <trkpt lat="48.03134" lon="0.63365">
        <ele>134.1</ele>
        <time>2015-06-14T07:28:43.000Z</time>
      </trkpt>
      <trkpt lat="48.03137" lon="0.63363">
        <ele>134.1</ele>
        <time>2015-06-14T07:28:45.000Z</time>
      </trkpt>
      <trkpt lat="48.03145" lon="0.63357">
        <ele>133.9</ele>
        <time>2015-06-14T07:28:52.000Z</time>
      </trkpt>
      <trkpt lat="48.03151" lon="0.63361">
        <ele>134</ele>
        <time>2015-06-14T07:28:57.000Z</time>
      </trkpt>
      <trkpt lat="48.03151" lon="0.63367">
        <ele>134.2</ele>
        <time>2015-06-14T07:29:01.000Z</time>
      </trkpt>
      <trkpt lat="48.03153" lon="0.63375">
        <ele>134.5</ele>
        <time>2015-06-14T07:29:05.000Z</time>
      </trkpt>
      <trkpt lat="48.03156" lon="0.63388">
        <ele>135</ele>
        <time>2015-06-14T07:29:11.000Z</time>
      </trkpt>
      <trkpt lat="48.03161" lon="0.63396">
        <ele>135</ele>
        <time>2015-06-14T07:29:17.000Z</time>
      </trkpt>
      <trkpt lat="48.03166" lon="0.63402">
        <ele>135</ele>
        <time>2015-06-14T07:29:21.000Z</time>
      </trkpt>
      <trkpt lat="48.03175" lon="0.63408">
        <ele>134.6</ele>
        <time>2015-06-14T07:29:27.000Z</time>
      </trkpt>
      <trkpt lat="48.03176" lon="0.63409">
        <ele>134.6</ele>
        <time>2015-06-14T07:29:28.000Z</time>
      </trkpt>
      <trkpt lat="48.03177" lon="0.63409">
        <ele>134.5</ele>
        <time>2015-06-14T07:29:29.000Z</time>
      </trkpt>
      <trkpt lat="48.03184" lon="0.63412">
        <ele>134.3</ele>
        <time>2015-06-14T07:29:34.000Z</time>
      </trkpt>
      <trkpt lat="48.03191" lon="0.63418">
        <ele>134.1</ele>
        <time>2015-06-14T07:29:39.000Z</time>
      </trkpt>
      <trkpt lat="48.03198" lon="0.63422">
        <ele>133.9</ele>
        <time>2015-06-14T07:29:44.000Z</time>
      </trkpt>
      <trkpt lat="48.03207" lon="0.63431">
        <ele>133.5</ele>
        <time>2015-06-14T07:29:52.000Z</time>
      </trkpt>
      <trkpt lat="48.03209" lon="0.63432">
        <ele>133.5</ele>
        <time>2015-06-14T07:29:53.000Z</time>
      </trkpt>
      <trkpt lat="48.03212" lon="0.63434">
        <ele>133.4</ele>
        <time>2015-06-14T07:29:56.000Z</time>
      </trkpt>
      <trkpt lat="48.03215" lon="0.63436">
        <ele>133.3</ele>
        <time>2015-06-14T07:29:58.000Z</time>
      </trkpt>
      <trkpt lat="48.03219" lon="0.63442">
        <ele>133.1</ele>
        <time>2015-06-14T07:30:02.000Z</time>
      </trkpt>
      <trkpt lat="48.03228" lon="0.63452">
        <ele>133</ele>
        <time>2015-06-14T07:30:09.000Z</time>
      </trkpt>
      <trkpt lat="48.03232" lon="0.63454">
        <ele>132.9</ele>
        <time>2015-06-14T07:30:12.000Z</time>
      </trkpt>
      <trkpt lat="48.03241" lon="0.63447">
        <ele>132.4</ele>
        <time>2015-06-14T07:30:19.000Z</time>
      </trkpt>
      <trkpt lat="48.03245" lon="0.63443">
        <ele>132.2</ele>
        <time>2015-06-14T07:30:23.000Z</time>
      </trkpt>
      <trkpt lat="48.03253" lon="0.63436">
        <ele>131.7</ele>
        <time>2015-06-14T07:30:29.000Z</time>
      </trkpt>
      <trkpt lat="48.03257" lon="0.63433">
        <ele>131.4</ele>
        <time>2015-06-14T07:30:32.000Z</time>
      </trkpt>
      <trkpt lat="48.03264" lon="0.63427">
        <ele>130.6</ele>
        <time>2015-06-14T07:30:37.000Z</time>
      </trkpt>
      <trkpt lat="48.03266" lon="0.63427">
        <ele>130.5</ele>
        <time>2015-06-14T07:30:38.000Z</time>
      </trkpt>
      <trkpt lat="48.03266" lon="0.63426">
        <ele>130.4</ele>
        <time>2015-06-14T07:30:39.000Z</time>
      </trkpt>
      <trkpt lat="48.03271" lon="0.63422">
        <ele>129.9</ele>
        <time>2015-06-14T07:30:43.000Z</time>
      </trkpt>
      <trkpt lat="48.03276" lon="0.63411">
        <ele>129.2</ele>
        <time>2015-06-14T07:30:49.000Z</time>
      </trkpt>
      <trkpt lat="48.03276" lon="0.634">
        <ele>129.2</ele>
        <time>2015-06-14T07:30:55.000Z</time>
      </trkpt>
      <trkpt lat="48.03276" lon="0.63398">
        <ele>129.2</ele>
        <time>2015-06-14T07:30:56.000Z</time>
      </trkpt>
      <trkpt lat="48.03275" lon="0.63396">
        <ele>129.2</ele>
        <time>2015-06-14T07:30:57.000Z</time>
      </trkpt>
      <trkpt lat="48.03272" lon="0.63384">
        <ele>129.2</ele>
        <time>2015-06-14T07:31:04.000Z</time>
      </trkpt>
      <trkpt lat="48.0327" lon="0.63381">
        <ele>129.3</ele>
        <time>2015-06-14T07:31:06.000Z</time>
      </trkpt>
      <trkpt lat="48.03267" lon="0.63374">
        <ele>129.3</ele>
        <time>2015-06-14T07:31:12.000Z</time>
      </trkpt>
      <trkpt lat="48.03265" lon="0.63373">
        <ele>129.3</ele>
        <time>2015-06-14T07:31:13.000Z</time>
      </trkpt>
      <trkpt lat="48.03263" lon="0.63367">
        <ele>129.3</ele>
        <time>2015-06-14T07:31:18.000Z</time>
      </trkpt>
      <trkpt lat="48.03259" lon="0.63362">
        <ele>129.4</ele>
        <time>2015-06-14T07:31:22.000Z</time>
      </trkpt>
      <trkpt lat="48.03254" lon="0.6335">
        <ele>129.4</ele>
        <time>2015-06-14T07:31:30.000Z</time>
      </trkpt>
      <trkpt lat="48.03252" lon="0.63347">
        <ele>129.4</ele>
        <time>2015-06-14T07:31:33.000Z</time>
      </trkpt>
      <trkpt lat="48.03249" lon="0.63336">
        <ele>129.1</ele>
        <time>2015-06-14T07:31:38.000Z</time>
      </trkpt>
      <trkpt lat="48.03247" lon="0.63325">
        <ele>128.9</ele>
        <time>2015-06-14T07:31:42.000Z</time>
      </trkpt>
      <trkpt lat="48.03247" lon="0.63323">
        <ele>128.8</ele>
        <time>2015-06-14T07:31:43.000Z</time>
      </trkpt>
      <trkpt lat="48.03245" lon="0.63315">
        <ele>128.7</ele>
        <time>2015-06-14T07:31:47.000Z</time>
      </trkpt>
      <trkpt lat="48.03245" lon="0.63312">
        <ele>128.6</ele>
        <time>2015-06-14T07:31:49.000Z</time>
      </trkpt>
      <trkpt lat="48.03244" lon="0.633">
        <ele>128.4</ele>
        <time>2015-06-14T07:31:55.000Z</time>
      </trkpt>
      <trkpt lat="48.03243" lon="0.63291">
        <ele>128.4</ele>
        <time>2015-06-14T07:31:59.000Z</time>
      </trkpt>
      <trkpt lat="48.03243" lon="0.63287">
        <ele>128.3</ele>
        <time>2015-06-14T07:32:01.000Z</time>
      </trkpt>
      <trkpt lat="48.03242" lon="0.63279">
        <ele>128.3</ele>
        <time>2015-06-14T07:32:04.000Z</time>
      </trkpt>
      <trkpt lat="48.03242" lon="0.63273">
        <ele>128.1</ele>
        <time>2015-06-14T07:32:07.000Z</time>
      </trkpt>
      <trkpt lat="48.0324" lon="0.63258">
        <ele>127.7</ele>
        <time>2015-06-14T07:32:14.000Z</time>
      </trkpt>
      <trkpt lat="48.0324" lon="0.63254">
        <ele>127.5</ele>
        <time>2015-06-14T07:32:15.000Z</time>
      </trkpt>
      <trkpt lat="48.03239" lon="0.63251">
        <ele>127.4</ele>
        <time>2015-06-14T07:32:17.000Z</time>
      </trkpt>
      <trkpt lat="48.03237" lon="0.63236">
        <ele>127</ele>
        <time>2015-06-14T07:32:24.000Z</time>
      </trkpt>
      <trkpt lat="48.03237" lon="0.63233">
        <ele>126.9</ele>
        <time>2015-06-14T07:32:25.000Z</time>
      </trkpt>
      <trkpt lat="48.03236" lon="0.63229">
        <ele>126.8</ele>
        <time>2015-06-14T07:32:27.000Z</time>
      </trkpt>
      <trkpt lat="48.03234" lon="0.63219">
        <ele>126.4</ele>
        <time>2015-06-14T07:32:31.000Z</time>
      </trkpt>
      <trkpt lat="48.03232" lon="0.63208">
        <ele>126.1</ele>
        <time>2015-06-14T07:32:36.000Z</time>
      </trkpt>
      <trkpt lat="48.03226" lon="0.63203">
        <ele>126.2</ele>
        <time>2015-06-14T07:32:43.000Z</time>
      </trkpt>
      <trkpt lat="48.03223" lon="0.63202">
        <ele>126.2</ele>
        <time>2015-06-14T07:32:46.000Z</time>
      </trkpt>
      <trkpt lat="48.0322" lon="0.63203">
        <ele>126.4</ele>
        <time>2015-06-14T07:32:49.000Z</time>
      </trkpt>
      <trkpt lat="48.03214" lon="0.63202">
        <ele>126.6</ele>
        <time>2015-06-14T07:32:55.000Z</time>
      </trkpt>
      <trkpt lat="48.03208" lon="0.63206">
        <ele>126.9</ele>
        <time>2015-06-14T07:33:01.000Z</time>
      </trkpt>
      <trkpt lat="48.03206" lon="0.63207">
        <ele>127</ele>
        <time>2015-06-14T07:33:02.000Z</time>
      </trkpt>
      <trkpt lat="48.03203" lon="0.63207">
        <ele>127.1</ele>
        <time>2015-06-14T07:33:03.000Z</time>
      </trkpt>
      <trkpt lat="48.03194" lon="0.6321">
        <ele>127.5</ele>
        <time>2015-06-14T07:33:10.000Z</time>
      </trkpt>
      <trkpt lat="48.03176" lon="0.63216">
        <ele>127.8</ele>
        <time>2015-06-14T07:33:21.000Z</time>
      </trkpt>
      <trkpt lat="48.03168" lon="0.63221">
        <ele>127.9</ele>
        <time>2015-06-14T07:33:26.000Z</time>
      </trkpt>
      <trkpt lat="48.03161" lon="0.63224">
        <ele>128.1</ele>
        <time>2015-06-14T07:33:30.000Z</time>
      </trkpt>
      <trkpt lat="48.0316" lon="0.63224">
        <ele>128.1</ele>
        <time>2015-06-14T07:33:31.000Z</time>
      </trkpt>
      <trkpt lat="48.03153" lon="0.63227">
        <ele>128.2</ele>
        <time>2015-06-14T07:33:36.000Z</time>
      </trkpt>
      <trkpt lat="48.03151" lon="0.63229">
        <ele>128.2</ele>
        <time>2015-06-14T07:33:38.000Z</time>
      </trkpt>
      <trkpt lat="48.03147" lon="0.6323">
        <ele>128.3</ele>
        <time>2015-06-14T07:33:42.000Z</time>
      </trkpt>
      <trkpt lat="48.03145" lon="0.63231">
        <ele>128.3</ele>
        <time>2015-06-14T07:33:44.000Z</time>
      </trkpt>
      <trkpt lat="48.03143" lon="0.63233">
        <ele>128.4</ele>
        <time>2015-06-14T07:33:47.000Z</time>
      </trkpt>
      <trkpt lat="48.03136" lon="0.63237">
        <ele>128.5</ele>
        <time>2015-06-14T07:33:51.000Z</time>
      </trkpt>
      <trkpt lat="48.03132" lon="0.6324">
        <ele>128.5</ele>
        <time>2015-06-14T07:33:54.000Z</time>
      </trkpt>
      <trkpt lat="48.03124" lon="0.63245">
        <ele>128.7</ele>
        <time>2015-06-14T07:34:00.000Z</time>
      </trkpt>
      <trkpt lat="48.03122" lon="0.63246">
        <ele>128.8</ele>
        <time>2015-06-14T07:34:02.000Z</time>
      </trkpt>
      <trkpt lat="48.03115" lon="0.6325">
        <ele>129</ele>
        <time>2015-06-14T07:34:06.000Z</time>
      </trkpt>
      <trkpt lat="48.03104" lon="0.63259">
        <ele>129.1</ele>
        <time>2015-06-14T07:34:14.000Z</time>
      </trkpt>
      <trkpt lat="48.03099" lon="0.63266">
        <ele>129.4</ele>
        <time>2015-06-14T07:34:19.000Z</time>
      </trkpt>
      <trkpt lat="48.03089" lon="0.63273">
        <ele>129.7</ele>
        <time>2015-06-14T07:34:27.000Z</time>
      </trkpt>
      <trkpt lat="48.03085" lon="0.63276">
        <ele>129.8</ele>
        <time>2015-06-14T07:34:30.000Z</time>
      </trkpt>
      <trkpt lat="48.03079" lon="0.63276">
        <ele>129.7</ele>
        <time>2015-06-14T07:34:34.000Z</time>
      </trkpt>
      <trkpt lat="48.03077" lon="0.63276">
        <ele>129.6</ele>
        <time>2015-06-14T07:34:35.000Z</time>
      </trkpt>
      <trkpt lat="48.03072" lon="0.63278">
        <ele>129.6</ele>
        <time>2015-06-14T07:34:39.000Z</time>
      </trkpt>
      <trkpt lat="48.03066" lon="0.63279">
        <ele>129.4</ele>
        <time>2015-06-14T07:34:43.000Z</time>
      </trkpt>
      <trkpt lat="48.03055" lon="0.63282">
        <ele>129.1</ele>
        <time>2015-06-14T07:34:49.000Z</time>
      </trkpt>
      <trkpt lat="48.03047" lon="0.63285">
        <ele>129</ele>
        <time>2015-06-14T07:34:54.000Z</time>
      </trkpt>
      <trkpt lat="48.03042" lon="0.63288">
        <ele>128.9</ele>
        <time>2015-06-14T07:34:57.000Z</time>
      </trkpt>
      <trkpt lat="48.03038" lon="0.63289">
        <ele>128.8</ele>
        <time>2015-06-14T07:34:59.000Z</time>
      </trkpt>
      <trkpt lat="48.03035" lon="0.63291">
        <ele>128.7</ele>
        <time>2015-06-14T07:35:02.000Z</time>
      </trkpt>
      <trkpt lat="48.03033" lon="0.6329">
        <ele>128.6</ele>
        <time>2015-06-14T07:35:04.000Z</time>
      </trkpt>
      <trkpt lat="48.0303" lon="0.63294">
        <ele>128.7</ele>
        <time>2015-06-14T07:35:07.000Z</time>
      </trkpt>
      <trkpt lat="48.03028" lon="0.63306">
        <ele>129</ele>
        <time>2015-06-14T07:35:13.000Z</time>
      </trkpt>
      <trkpt lat="48.03027" lon="0.6331">
        <ele>129.1</ele>
        <time>2015-06-14T07:35:15.000Z</time>
      </trkpt>
      <trkpt lat="48.03029" lon="0.63312">
        <ele>129.3</ele>
        <time>2015-06-14T07:35:17.000Z</time>
      </trkpt>
      <trkpt lat="48.03026" lon="0.63323">
        <ele>129.6</ele>
        <time>2015-06-14T07:35:22.000Z</time>
      </trkpt>
      <trkpt lat="48.03025" lon="0.63333">
        <ele>129.9</ele>
        <time>2015-06-14T07:35:27.000Z</time>
      </trkpt>
      <trkpt lat="48.03025" lon="0.63343">
        <ele>130.2</ele>
        <time>2015-06-14T07:35:31.000Z</time>
      </trkpt>
      <trkpt lat="48.03026" lon="0.63347">
        <ele>130.4</ele>
        <time>2015-06-14T07:35:33.000Z</time>
      </trkpt>
      <trkpt lat="48.03027" lon="0.63355">
        <ele>130.7</ele>
        <time>2015-06-14T07:35:37.000Z</time>
      </trkpt>
      <trkpt lat="48.03029" lon="0.63359">
        <ele>131</ele>
        <time>2015-06-14T07:35:39.000Z</time>
      </trkpt>
      <trkpt lat="48.03032" lon="0.63364">
        <ele>131.1</ele>
        <time>2015-06-14T07:35:42.000Z</time>
      </trkpt>
      <trkpt lat="48.03032" lon="0.63371">
        <ele>131.1</ele>
        <time>2015-06-14T07:35:45.000Z</time>
      </trkpt>
      <trkpt lat="48.03036" lon="0.63379">
        <ele>131.3</ele>
        <time>2015-06-14T07:35:50.000Z</time>
      </trkpt>
      <trkpt lat="48.03042" lon="0.63392">
        <ele>131.5</ele>
        <time>2015-06-14T07:35:55.000Z</time>
      </trkpt>
      <trkpt lat="48.03042" lon="0.63393">
        <ele>131.5</ele>
        <time>2015-06-14T07:35:56.000Z</time>
      </trkpt>
      <trkpt lat="48.03041" lon="0.63396">
        <ele>131.5</ele>
        <time>2015-06-14T07:35:57.000Z</time>
      </trkpt>
      <trkpt lat="48.03042" lon="0.63403">
        <ele>131.5</ele>
        <time>2015-06-14T07:36:00.000Z</time>
      </trkpt>
      <trkpt lat="48.03043" lon="0.63412">
        <ele>131.5</ele>
        <time>2015-06-14T07:36:04.000Z</time>
      </trkpt>
      <trkpt lat="48.03042" lon="0.63423">
        <ele>131.3</ele>
        <time>2015-06-14T07:36:08.000Z</time>
      </trkpt>
      <trkpt lat="48.03044" lon="0.63432">
        <ele>131</ele>
        <time>2015-06-14T07:36:12.000Z</time>
      </trkpt>
      <trkpt lat="48.03046" lon="0.63445">
        <ele>130.6</ele>
        <time>2015-06-14T07:36:18.000Z</time>
      </trkpt>
      <trkpt lat="48.03046" lon="0.63448">
        <ele>130.5</ele>
        <time>2015-06-14T07:36:19.000Z</time>
      </trkpt>
      <trkpt lat="48.03048" lon="0.63458">
        <ele>130.2</ele>
        <time>2015-06-14T07:36:24.000Z</time>
      </trkpt>
      <trkpt lat="48.03048" lon="0.63467">
        <ele>129.9</ele>
        <time>2015-06-14T07:36:27.000Z</time>
      </trkpt>
      <trkpt lat="48.0305" lon="0.63478">
        <ele>129.5</ele>
        <time>2015-06-14T07:36:32.000Z</time>
      </trkpt>
      <trkpt lat="48.03048" lon="0.63483">
        <ele>129.1</ele>
        <time>2015-06-14T07:36:34.000Z</time>
      </trkpt>
      <trkpt lat="48.03047" lon="0.63492">
        <ele>128.5</ele>
        <time>2015-06-14T07:36:38.000Z</time>
      </trkpt>
      <trkpt lat="48.0305" lon="0.63506">
        <ele>127.8</ele>
        <time>2015-06-14T07:36:44.000Z</time>
      </trkpt>
      <trkpt lat="48.03051" lon="0.63512">
        <ele>127.5</ele>
        <time>2015-06-14T07:36:46.000Z</time>
      </trkpt>
      <trkpt lat="48.03051" lon="0.63514">
        <ele>127.4</ele>
        <time>2015-06-14T07:36:48.000Z</time>
      </trkpt>
      <trkpt lat="48.03054" lon="0.63527">
        <ele>127</ele>
        <time>2015-06-14T07:36:53.000Z</time>
      </trkpt>
      <trkpt lat="48.03054" lon="0.63529">
        <ele>126.8</ele>
        <time>2015-06-14T07:36:54.000Z</time>
      </trkpt>
      <trkpt lat="48.03056" lon="0.63546">
        <ele>125.7</ele>
        <time>2015-06-14T07:37:01.000Z</time>
      </trkpt>
      <trkpt lat="48.03056" lon="0.63548">
        <ele>125.5</ele>
        <time>2015-06-14T07:37:02.000Z</time>
      </trkpt>
      <trkpt lat="48.03058" lon="0.63558">
        <ele>124.9</ele>
        <time>2015-06-14T07:37:06.000Z</time>
      </trkpt>
      <trkpt lat="48.03059" lon="0.63561">
        <ele>124.7</ele>
        <time>2015-06-14T07:37:08.000Z</time>
      </trkpt>
      <trkpt lat="48.03061" lon="0.63571">
        <ele>124.1</ele>
        <time>2015-06-14T07:37:13.000Z</time>
      </trkpt>
      <trkpt lat="48.03062" lon="0.63582">
        <ele>123.3</ele>
        <time>2015-06-14T07:37:18.000Z</time>
      </trkpt>
      <trkpt lat="48.03065" lon="0.63593">
        <ele>122.9</ele>
        <time>2015-06-14T07:37:23.000Z</time>
      </trkpt>
      <trkpt lat="48.03065" lon="0.63603">
        <ele>122.4</ele>
        <time>2015-06-14T07:37:26.000Z</time>
      </trkpt>
      <trkpt lat="48.03065" lon="0.63606">
        <ele>122.3</ele>
        <time>2015-06-14T07:37:28.000Z</time>
      </trkpt>
      <trkpt lat="48.03066" lon="0.63616">
        <ele>121.6</ele>
        <time>2015-06-14T07:37:32.000Z</time>
      </trkpt>
      <trkpt lat="48.03069" lon="0.63632">
        <ele>120.5</ele>
        <time>2015-06-14T07:37:38.000Z</time>
      </trkpt>
      <trkpt lat="48.03069" lon="0.63642">
        <ele>119.8</ele>
        <time>2015-06-14T07:37:42.000Z</time>
      </trkpt>
      <trkpt lat="48.0307" lon="0.63646">
        <ele>119.5</ele>
        <time>2015-06-14T07:37:44.000Z</time>
      </trkpt>
      <trkpt lat="48.03069" lon="0.63663">
        <ele>118.3</ele>
        <time>2015-06-14T07:37:51.000Z</time>
      </trkpt>
      <trkpt lat="48.03069" lon="0.63665">
        <ele>118.1</ele>
        <time>2015-06-14T07:37:52.000Z</time>
      </trkpt>
      <trkpt lat="48.03067" lon="0.63678">
        <ele>117.6</ele>
        <time>2015-06-14T07:37:57.000Z</time>
      </trkpt>
      <trkpt lat="48.03065" lon="0.63689">
        <ele>117.2</ele>
        <time>2015-06-14T07:38:02.000Z</time>
      </trkpt>
      <trkpt lat="48.03065" lon="0.63694">
        <ele>117</ele>
        <time>2015-06-14T07:38:04.000Z</time>
      </trkpt>
      <trkpt lat="48.03066" lon="0.63712">
        <ele>116.1</ele>
        <time>2015-06-14T07:38:11.000Z</time>
      </trkpt>
      <trkpt lat="48.03067" lon="0.63727">
        <ele>115.5</ele>
        <time>2015-06-14T07:38:17.000Z</time>
      </trkpt>
      <trkpt lat="48.03068" lon="0.63751">
        <ele>115</ele>
        <time>2015-06-14T07:38:25.000Z</time>
      </trkpt>
      <trkpt lat="48.03068" lon="0.63754">
        <ele>114.9</ele>
        <time>2015-06-14T07:38:26.000Z</time>
      </trkpt>
      <trkpt lat="48.03066" lon="0.63762">
        <ele>114.8</ele>
        <time>2015-06-14T07:38:29.000Z</time>
      </trkpt>
      <trkpt lat="48.03065" lon="0.6378">
        <ele>114.6</ele>
        <time>2015-06-14T07:38:35.000Z</time>
      </trkpt>
      <trkpt lat="48.03064" lon="0.63799">
        <ele>114.2</ele>
        <time>2015-06-14T07:38:42.000Z</time>
      </trkpt>
      <trkpt lat="48.03064" lon="0.63821">
        <ele>113.8</ele>
        <time>2015-06-14T07:38:50.000Z</time>
      </trkpt>
      <trkpt lat="48.03064" lon="0.63827">
        <ele>113.8</ele>
        <time>2015-06-14T07:38:52.000Z</time>
      </trkpt>
      <trkpt lat="48.03067" lon="0.63841">
        <ele>113.7</ele>
        <time>2015-06-14T07:38:58.000Z</time>
      </trkpt>
      <trkpt lat="48.03071" lon="0.63857">
        <ele>113.9</ele>
        <time>2015-06-14T07:39:06.000Z</time>
      </trkpt>
      <trkpt lat="48.03076" lon="0.63876">
        <ele>114.7</ele>
        <time>2015-06-14T07:39:15.000Z</time>
      </trkpt>
      <trkpt lat="48.03079" lon="0.63891">
        <ele>115.3</ele>
        <time>2015-06-14T07:39:22.000Z</time>
      </trkpt>
      <trkpt lat="48.03082" lon="0.63906">
        <ele>116.3</ele>
        <time>2015-06-14T07:39:29.000Z</time>
      </trkpt>
      <trkpt lat="48.03087" lon="0.63929">
        <ele>117.4</ele>
        <time>2015-06-14T07:39:40.000Z</time>
      </trkpt>
      <trkpt lat="48.0309" lon="0.63952">
        <ele>118</ele>
        <time>2015-06-14T07:39:50.000Z</time>
      </trkpt>
      <trkpt lat="48.03093" lon="0.63968">
        <ele>118</ele>
        <time>2015-06-14T07:39:57.000Z</time>
      </trkpt>
      <trkpt lat="48.03099" lon="0.64014">
        <ele>118</ele>
        <time>2015-06-14T07:40:17.000Z</time>
      </trkpt>
      <trkpt lat="48.03101" lon="0.64028">
        <ele>118</ele>
        <time>2015-06-14T07:40:23.000Z</time>
      </trkpt>
      <trkpt lat="48.031" lon="0.64045">
        <ele>117.6</ele>
        <time>2015-06-14T07:40:30.000Z</time>
      </trkpt>
      <trkpt lat="48.03101" lon="0.64053">
        <ele>117.4</ele>
        <time>2015-06-14T07:40:34.000Z</time>
      </trkpt>
      <trkpt lat="48.03104" lon="0.64066">
        <ele>117.2</ele>
        <time>2015-06-14T07:40:40.000Z</time>
      </trkpt>
      <trkpt lat="48.03105" lon="0.64081">
        <ele>117</ele>
        <time>2015-06-14T07:40:47.000Z</time>
      </trkpt>
      <trkpt lat="48.03106" lon="0.641">
        <ele>116.5</ele>
        <time>2015-06-14T07:40:55.000Z</time>
      </trkpt>
      <trkpt lat="48.03106" lon="0.64104">
        <ele>116.4</ele>
        <time>2015-06-14T07:40:57.000Z</time>
      </trkpt>
      <trkpt lat="48.03109" lon="0.64119">
        <ele>116.1</ele>
        <time>2015-06-14T07:41:01.000Z</time>
      </trkpt>
      <trkpt lat="48.03108" lon="0.64135">
        <ele>116.1</ele>
        <time>2015-06-14T07:41:06.000Z</time>
      </trkpt>
      <trkpt lat="48.03107" lon="0.64155">
        <ele>115.5</ele>
        <time>2015-06-14T07:41:13.000Z</time>
      </trkpt>
      <trkpt lat="48.03108" lon="0.64186">
        <ele>114.5</ele>
        <time>2015-06-14T07:41:22.000Z</time>
      </trkpt>
      <trkpt lat="48.03108" lon="0.64193">
        <ele>114.3</ele>
        <time>2015-06-14T07:41:24.000Z</time>
      </trkpt>
      <trkpt lat="48.0311" lon="0.64216">
        <ele>114</ele>
        <time>2015-06-14T07:41:31.000Z</time>
      </trkpt>
      <trkpt lat="48.03113" lon="0.64243">
        <ele>113.2</ele>
        <time>2015-06-14T07:41:39.000Z</time>
      </trkpt>
      <trkpt lat="48.03115" lon="0.64259">
        <ele>112.9</ele>
        <time>2015-06-14T07:41:43.000Z</time>
      </trkpt>
      <trkpt lat="48.03117" lon="0.64283">
        <ele>112.8</ele>
        <time>2015-06-14T07:41:49.000Z</time>
      </trkpt>
      <trkpt lat="48.03118" lon="0.64305">
        <ele>112.7</ele>
        <time>2015-06-14T07:41:55.000Z</time>
      </trkpt>
      <trkpt lat="48.03118" lon="0.64327">
        <ele>112</ele>
        <time>2015-06-14T07:42:01.000Z</time>
      </trkpt>
      <trkpt lat="48.03118" lon="0.64352">
        <ele>111.7</ele>
        <time>2015-06-14T07:42:09.000Z</time>
      </trkpt>
      <trkpt lat="48.03118" lon="0.64356">
        <ele>111.8</ele>
        <time>2015-06-14T07:42:10.000Z</time>
      </trkpt>
      <trkpt lat="48.03116" lon="0.64376">
        <ele>111.4</ele>
        <time>2015-06-14T07:42:18.000Z</time>
      </trkpt>
      <trkpt lat="48.03116" lon="0.64378">
        <ele>111.3</ele>
        <time>2015-06-14T07:42:19.000Z</time>
      </trkpt>
      <trkpt lat="48.03116" lon="0.64379">
        <ele>111.3</ele>
        <time>2015-06-14T07:42:20.000Z</time>
      </trkpt>
      <trkpt lat="48.03116" lon="0.64395">
        <ele>111</ele>
        <time>2015-06-14T07:42:27.000Z</time>
      </trkpt>
      <trkpt lat="48.03113" lon="0.64414">
        <ele>110.9</ele>
        <time>2015-06-14T07:42:35.000Z</time>
      </trkpt>
      <trkpt lat="48.03113" lon="0.64416">
        <ele>110.9</ele>
        <time>2015-06-14T07:42:36.000Z</time>
      </trkpt>
      <trkpt lat="48.03107" lon="0.64433">
        <ele>110.5</ele>
        <time>2015-06-14T07:42:44.000Z</time>
      </trkpt>
      <trkpt lat="48.03106" lon="0.64435">
        <ele>110.5</ele>
        <time>2015-06-14T07:42:45.000Z</time>
      </trkpt>
      <trkpt lat="48.03094" lon="0.64445">
        <ele>110.6</ele>
        <time>2015-06-14T07:42:53.000Z</time>
      </trkpt>
      <trkpt lat="48.03085" lon="0.64451">
        <ele>110.7</ele>
        <time>2015-06-14T07:42:59.000Z</time>
      </trkpt>
      <trkpt lat="48.03075" lon="0.64459">
        <ele>110.6</ele>
        <time>2015-06-14T07:43:06.000Z</time>
      </trkpt>
      <trkpt lat="48.03059" lon="0.64465">
        <ele>110.9</ele>
        <time>2015-06-14T07:43:15.000Z</time>
      </trkpt>
      <trkpt lat="48.03041" lon="0.64468">
        <ele>111.1</ele>
        <time>2015-06-14T07:43:25.000Z</time>
      </trkpt>
      <trkpt lat="48.03032" lon="0.64469">
        <ele>111.1</ele>
        <time>2015-06-14T07:43:30.000Z</time>
      </trkpt>
      <trkpt lat="48.03021" lon="0.64465">
        <ele>111.7</ele>
        <time>2015-06-14T07:43:37.000Z</time>
      </trkpt>
      <trkpt lat="48.03015" lon="0.64462">
        <ele>112.1</ele>
        <time>2015-06-14T07:43:42.000Z</time>
      </trkpt>
      <trkpt lat="48.03007" lon="0.64455">
        <ele>112.7</ele>
        <time>2015-06-14T07:43:48.000Z</time>
      </trkpt>
      <trkpt lat="48.02999" lon="0.64449">
        <ele>113</ele>
        <time>2015-06-14T07:43:54.000Z</time>
      </trkpt>
      <trkpt lat="48.02989" lon="0.6444">
        <ele>113.9</ele>
        <time>2015-06-14T07:44:01.000Z</time>
      </trkpt>
      <trkpt lat="48.02983" lon="0.64434">
        <ele>114.4</ele>
        <time>2015-06-14T07:44:06.000Z</time>
      </trkpt>
      <trkpt lat="48.02975" lon="0.64427">
        <ele>114.9</ele>
        <time>2015-06-14T07:44:12.000Z</time>
      </trkpt>
      <trkpt lat="48.02973" lon="0.64425">
        <ele>115</ele>
        <time>2015-06-14T07:44:13.000Z</time>
      </trkpt>
      <trkpt lat="48.02967" lon="0.64419">
        <ele>115.4</ele>
        <time>2015-06-14T07:44:18.000Z</time>
      </trkpt>
      <trkpt lat="48.02965" lon="0.64416">
        <ele>115.6</ele>
        <time>2015-06-14T07:44:20.000Z</time>
      </trkpt>
      <trkpt lat="48.0296" lon="0.64407">
        <ele>116.3</ele>
        <time>2015-06-14T07:44:25.000Z</time>
      </trkpt>
      <trkpt lat="48.02959" lon="0.64405">
        <ele>116.4</ele>
        <time>2015-06-14T07:44:26.000Z</time>
      </trkpt>
      <trkpt lat="48.02958" lon="0.64404">
        <ele>116.5</ele>
        <time>2015-06-14T07:44:27.000Z</time>
      </trkpt>
      <trkpt lat="48.02954" lon="0.644">
        <ele>116.9</ele>
        <time>2015-06-14T07:44:31.000Z</time>
      </trkpt>
      <trkpt lat="48.02954" lon="0.64399">
        <ele>117</ele>
        <time>2015-06-14T07:44:32.000Z</time>
      </trkpt>
      <trkpt lat="48.02949" lon="0.64391">
        <ele>117.6</ele>
        <time>2015-06-14T07:44:37.000Z</time>
      </trkpt>
      <trkpt lat="48.02942" lon="0.64383">
        <ele>118.1</ele>
        <time>2015-06-14T07:44:43.000Z</time>
      </trkpt>
      <trkpt lat="48.02941" lon="0.64382">
        <ele>118.1</ele>
        <time>2015-06-14T07:44:44.000Z</time>
      </trkpt>
      <trkpt lat="48.02933" lon="0.64374">
        <ele>118.4</ele>
        <time>2015-06-14T07:44:51.000Z</time>
      </trkpt>
      <trkpt lat="48.02931" lon="0.64373">
        <ele>118.5</ele>
        <time>2015-06-14T07:44:52.000Z</time>
      </trkpt>
      <trkpt lat="48.02924" lon="0.64366">
        <ele>118.7</ele>
        <time>2015-06-14T07:44:57.000Z</time>
      </trkpt>
      <trkpt lat="48.0292" lon="0.64359">
        <ele>118.9</ele>
        <time>2015-06-14T07:45:01.000Z</time>
      </trkpt>
      <trkpt lat="48.02912" lon="0.64351">
        <ele>119.5</ele>
        <time>2015-06-14T07:45:08.000Z</time>
      </trkpt>
      <trkpt lat="48.02905" lon="0.64344">
        <ele>120.1</ele>
        <time>2015-06-14T07:45:14.000Z</time>
      </trkpt>
      <trkpt lat="48.02896" lon="0.64337">
        <ele>120.6</ele>
        <time>2015-06-14T07:45:21.000Z</time>
      </trkpt>
      <trkpt lat="48.02889" lon="0.64333">
        <ele>121</ele>
        <time>2015-06-14T07:45:25.000Z</time>
      </trkpt>
      <trkpt lat="48.02885" lon="0.64332">
        <ele>121.2</ele>
        <time>2015-06-14T07:45:27.000Z</time>
      </trkpt>
      <trkpt lat="48.02883" lon="0.64323">
        <ele>121.6</ele>
        <time>2015-06-14T07:45:31.000Z</time>
      </trkpt>
      <trkpt lat="48.02889" lon="0.64305">
        <ele>122</ele>
        <time>2015-06-14T07:45:39.000Z</time>
      </trkpt>
      <trkpt lat="48.02895" lon="0.64288">
        <ele>121.8</ele>
        <time>2015-06-14T07:45:46.000Z</time>
      </trkpt>
      <trkpt lat="48.02899" lon="0.64273">
        <ele>121.6</ele>
        <time>2015-06-14T07:45:52.000Z</time>
      </trkpt>
      <trkpt lat="48.02903" lon="0.6426">
        <ele>121.5</ele>
        <time>2015-06-14T07:45:58.000Z</time>
      </trkpt>
      <trkpt lat="48.02908" lon="0.64242">
        <ele>121.6</ele>
        <time>2015-06-14T07:46:06.000Z</time>
      </trkpt>
      <trkpt lat="48.02915" lon="0.64223">
        <ele>122</ele>
        <time>2015-06-14T07:46:14.000Z</time>
      </trkpt>
      <trkpt lat="48.02922" lon="0.64204">
        <ele>121.7</ele>
        <time>2015-06-14T07:46:22.000Z</time>
      </trkpt>
      <trkpt lat="48.02928" lon="0.64187">
        <ele>121.7</ele>
        <time>2015-06-14T07:46:30.000Z</time>
      </trkpt>
      <trkpt lat="48.02933" lon="0.64175">
        <ele>121.7</ele>
        <time>2015-06-14T07:46:36.000Z</time>
      </trkpt>
      <trkpt lat="48.02934" lon="0.64169">
        <ele>121.7</ele>
        <time>2015-06-14T07:46:39.000Z</time>
      </trkpt>
      <trkpt lat="48.02939" lon="0.64155">
        <ele>121.7</ele>
        <time>2015-06-14T07:46:45.000Z</time>
      </trkpt>
      <trkpt lat="48.02944" lon="0.6414">
        <ele>122</ele>
        <time>2015-06-14T07:46:52.000Z</time>
      </trkpt>
      <trkpt lat="48.02949" lon="0.64129">
        <ele>121.7</ele>
        <time>2015-06-14T07:46:57.000Z</time>
      </trkpt>
      <trkpt lat="48.02953" lon="0.64114">
        <ele>121.4</ele>
        <time>2015-06-14T07:47:04.000Z</time>
      </trkpt>
      <trkpt lat="48.0296" lon="0.64097">
        <ele>121.4</ele>
        <time>2015-06-14T07:47:11.000Z</time>
      </trkpt>
      <trkpt lat="48.0296" lon="0.64091">
        <ele>121.6</ele>
        <time>2015-06-14T07:47:14.000Z</time>
      </trkpt>
      <trkpt lat="48.02954" lon="0.64085">
        <ele>122.2</ele>
        <time>2015-06-14T07:47:19.000Z</time>
      </trkpt>
      <trkpt lat="48.02946" lon="0.64078">
        <ele>122.9</ele>
        <time>2015-06-14T07:47:26.000Z</time>
      </trkpt>
      <trkpt lat="48.0294" lon="0.64072">
        <ele>123.3</ele>
        <time>2015-06-14T07:47:32.000Z</time>
      </trkpt>
      <trkpt lat="48.02936" lon="0.64066">
        <ele>123.6</ele>
        <time>2015-06-14T07:47:36.000Z</time>
      </trkpt>
      <trkpt lat="48.02931" lon="0.64059">
        <ele>124</ele>
        <time>2015-06-14T07:47:41.000Z</time>
      </trkpt>
      <trkpt lat="48.02931" lon="0.64058">
        <ele>124</ele>
        <time>2015-06-14T07:47:42.000Z</time>
      </trkpt>
      <trkpt lat="48.02927" lon="0.64053">
        <ele>124.3</ele>
        <time>2015-06-14T07:47:46.000Z</time>
      </trkpt>
      <trkpt lat="48.0292" lon="0.6404">
        <ele>124.8</ele>
        <time>2015-06-14T07:47:54.000Z</time>
      </trkpt>
      <trkpt lat="48.02914" lon="0.64032">
        <ele>125.2</ele>
        <time>2015-06-14T07:47:59.000Z</time>
      </trkpt>
      <trkpt lat="48.02914" lon="0.64031">
        <ele>125.2</ele>
        <time>2015-06-14T07:48:00.000Z</time>
      </trkpt>
      <trkpt lat="48.02909" lon="0.64031">
        <ele>125.5</ele>
        <time>2015-06-14T07:48:06.000Z</time>
      </trkpt>
      <trkpt lat="48.02906" lon="0.64028">
        <ele>125.8</ele>
        <time>2015-06-14T07:48:09.000Z</time>
      </trkpt>
      <trkpt lat="48.02906" lon="0.64026">
        <ele>125.7</ele>
        <time>2015-06-14T07:48:11.000Z</time>
      </trkpt>
      <trkpt lat="48.02896" lon="0.64017">
        <ele>126.1</ele>
        <time>2015-06-14T07:48:17.000Z</time>
      </trkpt>
      <trkpt lat="48.02893" lon="0.64007">
        <ele>126</ele>
        <time>2015-06-14T07:48:21.000Z</time>
      </trkpt>
      <trkpt lat="48.02893" lon="0.63993">
        <ele>125.2</ele>
        <time>2015-06-14T07:48:26.000Z</time>
      </trkpt>
      <trkpt lat="48.02891" lon="0.63984">
        <ele>124.7</ele>
        <time>2015-06-14T07:48:30.000Z</time>
      </trkpt>
      <trkpt lat="48.02887" lon="0.63975">
        <ele>124.4</ele>
        <time>2015-06-14T07:48:34.000Z</time>
      </trkpt>
      <trkpt lat="48.02886" lon="0.63972">
        <ele>124.3</ele>
        <time>2015-06-14T07:48:35.000Z</time>
      </trkpt>
      <trkpt lat="48.02885" lon="0.63965">
        <ele>123.9</ele>
        <time>2015-06-14T07:48:39.000Z</time>
      </trkpt>
      <trkpt lat="48.02881" lon="0.63958">
        <ele>123.8</ele>
        <time>2015-06-14T07:48:43.000Z</time>
      </trkpt>
      <trkpt lat="48.02873" lon="0.63948">
        <ele>124</ele>
        <time>2015-06-14T07:48:49.000Z</time>
      </trkpt>
      <trkpt lat="48.0287" lon="0.63941">
        <ele>123.7</ele>
        <time>2015-06-14T07:48:53.000Z</time>
      </trkpt>
      <trkpt lat="48.02864" lon="0.63932">
        <ele>123.3</ele>
        <time>2015-06-14T07:48:59.000Z</time>
      </trkpt>
      <trkpt lat="48.0286" lon="0.63927">
        <ele>123.2</ele>
        <time>2015-06-14T07:49:02.000Z</time>
      </trkpt>
      <trkpt lat="48.02857" lon="0.63924">
        <ele>123</ele>
        <time>2015-06-14T07:49:04.000Z</time>
      </trkpt>
      <trkpt lat="48.0285" lon="0.63915">
        <ele>122.6</ele>
        <time>2015-06-14T07:49:10.000Z</time>
      </trkpt>
      <trkpt lat="48.02844" lon="0.63905">
        <ele>121.7</ele>
        <time>2015-06-14T07:49:15.000Z</time>
      </trkpt>
      <trkpt lat="48.02842" lon="0.63899">
        <ele>121</ele>
        <time>2015-06-14T07:49:19.000Z</time>
      </trkpt>
      <trkpt lat="48.02841" lon="0.63889">
        <ele>119.7</ele>
        <time>2015-06-14T07:49:23.000Z</time>
      </trkpt>
      <trkpt lat="48.02835" lon="0.63884">
        <ele>119.6</ele>
        <time>2015-06-14T07:49:27.000Z</time>
      </trkpt>
      <trkpt lat="48.02833" lon="0.63883">
        <ele>119.6</ele>
        <time>2015-06-14T07:49:29.000Z</time>
      </trkpt>
      <trkpt lat="48.02832" lon="0.63882">
        <ele>119.6</ele>
        <time>2015-06-14T07:49:30.000Z</time>
      </trkpt>
      <trkpt lat="48.02825" lon="0.6388">
        <ele>120</ele>
        <time>2015-06-14T07:49:36.000Z</time>
      </trkpt>
      <trkpt lat="48.02822" lon="0.63879">
        <ele>120.1</ele>
        <time>2015-06-14T07:49:38.000Z</time>
      </trkpt>
      <trkpt lat="48.02817" lon="0.63879">
        <ele>120.5</ele>
        <time>2015-06-14T07:49:42.000Z</time>
      </trkpt>
      <trkpt lat="48.02816" lon="0.63879">
        <ele>120.5</ele>
        <time>2015-06-14T07:49:43.000Z</time>
      </trkpt>
      <trkpt lat="48.02816" lon="0.63879">
        <ele>120.5</ele>
        <time>2015-06-14T07:49:44.000Z</time>
      </trkpt>
      <trkpt lat="48.0281" lon="0.63875">
        <ele>120.6</ele>
        <time>2015-06-14T07:49:48.000Z</time>
      </trkpt>
      <trkpt lat="48.02806" lon="0.63871">
        <ele>120.6</ele>
        <time>2015-06-14T07:49:52.000Z</time>
      </trkpt>
      <trkpt lat="48.02804" lon="0.6387">
        <ele>120.7</ele>
        <time>2015-06-14T07:49:54.000Z</time>
      </trkpt>
      <trkpt lat="48.02801" lon="0.6387">
        <ele>120.8</ele>
        <time>2015-06-14T07:49:56.000Z</time>
      </trkpt>
      <trkpt lat="48.02795" lon="0.63873">
        <ele>121.4</ele>
        <time>2015-06-14T07:50:00.000Z</time>
      </trkpt>
      <trkpt lat="48.02794" lon="0.63874">
        <ele>121.5</ele>
        <time>2015-06-14T07:50:01.000Z</time>
      </trkpt>
      <trkpt lat="48.02791" lon="0.63875">
        <ele>121.8</ele>
        <time>2015-06-14T07:50:04.000Z</time>
      </trkpt>
      <trkpt lat="48.0279" lon="0.63876">
        <ele>121.9</ele>
        <time>2015-06-14T07:50:06.000Z</time>
      </trkpt>
      <trkpt lat="48.02789" lon="0.63876">
        <ele>122</ele>
        <time>2015-06-14T07:50:07.000Z</time>
      </trkpt>
      <trkpt lat="48.0278" lon="0.63873">
        <ele>122.1</ele>
        <time>2015-06-14T07:50:15.000Z</time>
      </trkpt>
      <trkpt lat="48.02777" lon="0.63871">
        <ele>122.1</ele>
        <time>2015-06-14T07:50:17.000Z</time>
      </trkpt>
      <trkpt lat="48.02769" lon="0.63865">
        <ele>122.1</ele>
        <time>2015-06-14T07:50:23.000Z</time>
      </trkpt>
      <trkpt lat="48.02764" lon="0.63862">
        <ele>122.1</ele>
        <time>2015-06-14T07:50:28.000Z</time>
      </trkpt>
      <trkpt lat="48.02763" lon="0.63861">
        <ele>122</ele>
        <time>2015-06-14T07:50:29.000Z</time>
      </trkpt>
      <trkpt lat="48.02758" lon="0.63858">
        <ele>122.1</ele>
        <time>2015-06-14T07:50:34.000Z</time>
      </trkpt>
      <trkpt lat="48.02752" lon="0.63856">
        <ele>122.3</ele>
        <time>2015-06-14T07:50:39.000Z</time>
      </trkpt>
      <trkpt lat="48.02751" lon="0.63855">
        <ele>122.3</ele>
        <time>2015-06-14T07:50:40.000Z</time>
      </trkpt>
      <trkpt lat="48.02747" lon="0.63853">
        <ele>122.2</ele>
        <time>2015-06-14T07:50:44.000Z</time>
      </trkpt>
      <trkpt lat="48.02741" lon="0.63851">
        <ele>122</ele>
        <time>2015-06-14T07:50:49.000Z</time>
      </trkpt>
      <trkpt lat="48.0274" lon="0.6385">
        <ele>122</ele>
        <time>2015-06-14T07:50:50.000Z</time>
      </trkpt>
      <trkpt lat="48.02733" lon="0.63848">
        <ele>121.9</ele>
        <time>2015-06-14T07:50:54.000Z</time>
      </trkpt>
      <trkpt lat="48.02727" lon="0.63845">
        <ele>121.8</ele>
        <time>2015-06-14T07:50:58.000Z</time>
      </trkpt>
      <trkpt lat="48.02726" lon="0.63845">
        <ele>121.7</ele>
        <time>2015-06-14T07:50:59.000Z</time>
      </trkpt>
      <trkpt lat="48.02724" lon="0.63843">
        <ele>121.6</ele>
        <time>2015-06-14T07:51:01.000Z</time>
      </trkpt>
      <trkpt lat="48.02722" lon="0.63842">
        <ele>121.6</ele>
        <time>2015-06-14T07:51:03.000Z</time>
      </trkpt>
      <trkpt lat="48.02716" lon="0.63842">
        <ele>121.8</ele>
        <time>2015-06-14T07:51:08.000Z</time>
      </trkpt>
      <trkpt lat="48.02713" lon="0.63841">
        <ele>121.9</ele>
        <time>2015-06-14T07:51:10.000Z</time>
      </trkpt>
      <trkpt lat="48.02703" lon="0.63839">
        <ele>122.1</ele>
        <time>2015-06-14T07:51:17.000Z</time>
      </trkpt>
      <trkpt lat="48.02699" lon="0.63839">
        <ele>122.2</ele>
        <time>2015-06-14T07:51:20.000Z</time>
      </trkpt>
      <trkpt lat="48.02691" lon="0.63839">
        <ele>122.5</ele>
        <time>2015-06-14T07:51:27.000Z</time>
      </trkpt>
      <trkpt lat="48.02689" lon="0.63838">
        <ele>122.5</ele>
        <time>2015-06-14T07:51:28.000Z</time>
      </trkpt>
      <trkpt lat="48.02683" lon="0.63838">
        <ele>122.7</ele>
        <time>2015-06-14T07:51:32.000Z</time>
      </trkpt>
      <trkpt lat="48.02681" lon="0.63839">
        <ele>122.8</ele>
        <time>2015-06-14T07:51:34.000Z</time>
      </trkpt>
      <trkpt lat="48.02676" lon="0.63843">
        <ele>123.1</ele>
        <time>2015-06-14T07:51:38.000Z</time>
      </trkpt>
      <trkpt lat="48.0267" lon="0.6385">
        <ele>123.5</ele>
        <time>2015-06-14T07:51:43.000Z</time>
      </trkpt>
      <trkpt lat="48.02664" lon="0.63859">
        <ele>124</ele>
        <time>2015-06-14T07:51:50.000Z</time>
      </trkpt>
      <trkpt lat="48.02662" lon="0.63862">
        <ele>124.2</ele>
        <time>2015-06-14T07:51:52.000Z</time>
      </trkpt>
      <trkpt lat="48.02659" lon="0.63869">
        <ele>125.1</ele>
        <time>2015-06-14T07:51:56.000Z</time>
      </trkpt>
      <trkpt lat="48.02654" lon="0.63878">
        <ele>126</ele>
        <time>2015-06-14T07:52:02.000Z</time>
      </trkpt>
      <trkpt lat="48.02653" lon="0.63884">
        <ele>126.6</ele>
        <time>2015-06-14T07:52:06.000Z</time>
      </trkpt>
      <trkpt lat="48.02648" lon="0.63893">
        <ele>127.4</ele>
        <time>2015-06-14T07:52:11.000Z</time>
      </trkpt>
      <trkpt lat="48.02644" lon="0.63901">
        <ele>128.4</ele>
        <time>2015-06-14T07:52:16.000Z</time>
      </trkpt>
      <trkpt lat="48.02642" lon="0.6391">
        <ele>129.4</ele>
        <time>2015-06-14T07:52:21.000Z</time>
      </trkpt>
      <trkpt lat="48.02641" lon="0.63912">
        <ele>129.5</ele>
        <time>2015-06-14T07:52:22.000Z</time>
      </trkpt>
      <trkpt lat="48.0264" lon="0.63913">
        <ele>129.6</ele>
        <time>2015-06-14T07:52:23.000Z</time>
      </trkpt>
      <trkpt lat="48.0264" lon="0.63918">
        <ele>130.2</ele>
        <time>2015-06-14T07:52:27.000Z</time>
      </trkpt>
      <trkpt lat="48.0264" lon="0.63921">
        <ele>130.4</ele>
        <time>2015-06-14T07:52:29.000Z</time>
      </trkpt>
      <trkpt lat="48.0264" lon="0.63925">
        <ele>130.6</ele>
        <time>2015-06-14T07:52:31.000Z</time>
      </trkpt>
      <trkpt lat="48.02641" lon="0.63933">
        <ele>131.3</ele>
        <time>2015-06-14T07:52:36.000Z</time>
      </trkpt>
      <trkpt lat="48.02641" lon="0.63944">
        <ele>132.1</ele>
        <time>2015-06-14T07:52:41.000Z</time>
      </trkpt>
      <trkpt lat="48.02638" lon="0.63957">
        <ele>132.4</ele>
        <time>2015-06-14T07:52:47.000Z</time>
      </trkpt>
      <trkpt lat="48.02638" lon="0.63959">
        <ele>132.5</ele>
        <time>2015-06-14T07:52:48.000Z</time>
      </trkpt>
      <trkpt lat="48.02637" lon="0.63962">
        <ele>132.6</ele>
        <time>2015-06-14T07:52:49.000Z</time>
      </trkpt>
      <trkpt lat="48.02633" lon="0.63973">
        <ele>132.8</ele>
        <time>2015-06-14T07:52:55.000Z</time>
      </trkpt>
      <trkpt lat="48.02631" lon="0.63979">
        <ele>132.7</ele>
        <time>2015-06-14T07:52:58.000Z</time>
      </trkpt>
      <trkpt lat="48.02625" lon="0.63985">
        <ele>132.5</ele>
        <time>2015-06-14T07:53:05.000Z</time>
      </trkpt>
      <trkpt lat="48.02618" lon="0.63995">
        <ele>132.3</ele>
        <time>2015-06-14T07:53:11.000Z</time>
      </trkpt>
      <trkpt lat="48.02618" lon="0.63996">
        <ele>132.2</ele>
        <time>2015-06-14T07:53:12.000Z</time>
      </trkpt>
      <trkpt lat="48.02617" lon="0.63999">
        <ele>132.2</ele>
        <time>2015-06-14T07:53:13.000Z</time>
      </trkpt>
      <trkpt lat="48.02611" lon="0.64012">
        <ele>131.6</ele>
        <time>2015-06-14T07:53:19.000Z</time>
      </trkpt>
      <trkpt lat="48.02608" lon="0.64016">
        <ele>131.4</ele>
        <time>2015-06-14T07:53:22.000Z</time>
      </trkpt>
      <trkpt lat="48.02603" lon="0.64022">
        <ele>131.2</ele>
        <time>2015-06-14T07:53:26.000Z</time>
      </trkpt>
      <trkpt lat="48.02595" lon="0.64025">
        <ele>131.1</ele>
        <time>2015-06-14T07:53:32.000Z</time>
      </trkpt>
      <trkpt lat="48.02588" lon="0.64026">
        <ele>131</ele>
        <time>2015-06-14T07:53:38.000Z</time>
      </trkpt>
      <trkpt lat="48.0258" lon="0.64029">
        <ele>131</ele>
        <time>2015-06-14T07:53:43.000Z</time>
      </trkpt>
      <trkpt lat="48.02578" lon="0.6403">
        <ele>131</ele>
        <time>2015-06-14T07:53:44.000Z</time>
      </trkpt>
      <trkpt lat="48.02571" lon="0.64032">
        <ele>131.1</ele>
        <time>2015-06-14T07:53:48.000Z</time>
      </trkpt>
      <trkpt lat="48.02566" lon="0.64033">
        <ele>131.1</ele>
        <time>2015-06-14T07:53:53.000Z</time>
      </trkpt>
      <trkpt lat="48.02559" lon="0.64042">
        <ele>131.5</ele>
        <time>2015-06-14T07:54:00.000Z</time>
      </trkpt>
      <trkpt lat="48.02557" lon="0.64048">
        <ele>131.7</ele>
        <time>2015-06-14T07:54:03.000Z</time>
      </trkpt>
      <trkpt lat="48.02554" lon="0.64064">
        <ele>132</ele>
        <time>2015-06-14T07:54:12.000Z</time>
      </trkpt>
      <trkpt lat="48.02554" lon="0.64066">
        <ele>132</ele>
        <time>2015-06-14T07:54:13.000Z</time>
      </trkpt>
      <trkpt lat="48.02551" lon="0.64076">
        <ele>132.1</ele>
        <time>2015-06-14T07:54:19.000Z</time>
      </trkpt>
      <trkpt lat="48.02551" lon="0.64077">
        <ele>132.1</ele>
        <time>2015-06-14T07:54:20.000Z</time>
      </trkpt>
      <trkpt lat="48.02549" lon="0.64085">
        <ele>132.2</ele>
        <time>2015-06-14T07:54:24.000Z</time>
      </trkpt>
      <trkpt lat="48.02547" lon="0.64096">
        <ele>132.3</ele>
        <time>2015-06-14T07:54:30.000Z</time>
      </trkpt>
      <trkpt lat="48.02545" lon="0.64106">
        <ele>132.4</ele>
        <time>2015-06-14T07:54:35.000Z</time>
      </trkpt>
      <trkpt lat="48.02549" lon="0.64112">
        <ele>132.2</ele>
        <time>2015-06-14T07:54:40.000Z</time>
      </trkpt>
      <trkpt lat="48.02551" lon="0.64113">
        <ele>132.2</ele>
        <time>2015-06-14T07:54:42.000Z</time>
      </trkpt>
      <trkpt lat="48.02559" lon="0.64119">
        <ele>131.9</ele>
        <time>2015-06-14T07:54:49.000Z</time>
      </trkpt>
      <trkpt lat="48.0256" lon="0.64119">
        <ele>131.9</ele>
        <time>2015-06-14T07:54:50.000Z</time>
      </trkpt>
      <trkpt lat="48.02564" lon="0.64121">
        <ele>131.7</ele>
        <time>2015-06-14T07:54:54.000Z</time>
      </trkpt>
      <trkpt lat="48.02571" lon="0.64123">
        <ele>131.5</ele>
        <time>2015-06-14T07:55:00.000Z</time>
      </trkpt>
      <trkpt lat="48.0258" lon="0.64126">
        <ele>131.1</ele>
        <time>2015-06-14T07:55:09.000Z</time>
      </trkpt>
      <trkpt lat="48.0258" lon="0.64126">
        <ele>131.1</ele>
        <time>2015-06-14T07:55:10.000Z</time>
      </trkpt>
      <trkpt lat="48.0258" lon="0.64131">
        <ele>131.1</ele>
        <time>2015-06-14T07:55:12.000Z</time>
      </trkpt>
      <trkpt lat="48.0258" lon="0.64141">
        <ele>131.1</ele>
        <time>2015-06-14T07:55:18.000Z</time>
      </trkpt>
      <trkpt lat="48.02578" lon="0.64146">
        <ele>131.2</ele>
        <time>2015-06-14T07:55:22.000Z</time>
      </trkpt>
      <trkpt lat="48.02576" lon="0.64157">
        <ele>131.3</ele>
        <time>2015-06-14T07:55:29.000Z</time>
      </trkpt>
      <trkpt lat="48.02574" lon="0.64167">
        <ele>131.4</ele>
        <time>2015-06-14T07:55:35.000Z</time>
      </trkpt>
      <trkpt lat="48.02574" lon="0.6417">
        <ele>131.3</ele>
        <time>2015-06-14T07:55:37.000Z</time>
      </trkpt>
      <trkpt lat="48.02576" lon="0.64173">
        <ele>131.2</ele>
        <time>2015-06-14T07:55:39.000Z</time>
      </trkpt>
      <trkpt lat="48.02578" lon="0.64182">
        <ele>131.1</ele>
        <time>2015-06-14T07:55:44.000Z</time>
      </trkpt>
      <trkpt lat="48.02579" lon="0.64187">
        <ele>131</ele>
        <time>2015-06-14T07:55:46.000Z</time>
      </trkpt>
      <trkpt lat="48.02578" lon="0.64191">
        <ele>131</ele>
        <time>2015-06-14T07:55:48.000Z</time>
      </trkpt>
      <trkpt lat="48.02574" lon="0.642">
        <ele>130.6</ele>
        <time>2015-06-14T07:55:53.000Z</time>
      </trkpt>
      <trkpt lat="48.02574" lon="0.64209">
        <ele>129.9</ele>
        <time>2015-06-14T07:55:58.000Z</time>
      </trkpt>
      <trkpt lat="48.02572" lon="0.64219">
        <ele>129.2</ele>
        <time>2015-06-14T07:56:02.000Z</time>
      </trkpt>
      <trkpt lat="48.02572" lon="0.64227">
        <ele>128.7</ele>
        <time>2015-06-14T07:56:05.000Z</time>
      </trkpt>
      <trkpt lat="48.0257" lon="0.64237">
        <ele>127.9</ele>
        <time>2015-06-14T07:56:10.000Z</time>
      </trkpt>
      <trkpt lat="48.02568" lon="0.64245">
        <ele>127.4</ele>
        <time>2015-06-14T07:56:14.000Z</time>
      </trkpt>
      <trkpt lat="48.02568" lon="0.64252">
        <ele>126.8</ele>
        <time>2015-06-14T07:56:18.000Z</time>
      </trkpt>
      <trkpt lat="48.02567" lon="0.64253">
        <ele>126.7</ele>
        <time>2015-06-14T07:56:20.000Z</time>
      </trkpt>
      <trkpt lat="48.02559" lon="0.64256">
        <ele>126.5</ele>
        <time>2015-06-14T07:56:25.000Z</time>
      </trkpt>
      <trkpt lat="48.02551" lon="0.6426">
        <ele>126.3</ele>
        <time>2015-06-14T07:56:31.000Z</time>
      </trkpt>
      <trkpt lat="48.02548" lon="0.64261">
        <ele>126.2</ele>
        <time>2015-06-14T07:56:33.000Z</time>
      </trkpt>
      <trkpt lat="48.02538" lon="0.64263">
        <ele>126</ele>
        <time>2015-06-14T07:56:39.000Z</time>
      </trkpt>
      <trkpt lat="48.02534" lon="0.64264">
        <ele>126</ele>
        <time>2015-06-14T07:56:41.000Z</time>
      </trkpt>
      <trkpt lat="48.02526" lon="0.64265">
        <ele>125.9</ele>
        <time>2015-06-14T07:56:46.000Z</time>
      </trkpt>
      <trkpt lat="48.02518" lon="0.64265">
        <ele>126.1</ele>
        <time>2015-06-14T07:56:51.000Z</time>
      </trkpt>
      <trkpt lat="48.02517" lon="0.64265">
        <ele>126.1</ele>
        <time>2015-06-14T07:56:52.000Z</time>
      </trkpt>
      <trkpt lat="48.02517" lon="0.64265">
        <ele>126.1</ele>
        <time>2015-06-14T07:56:53.000Z</time>
      </trkpt>
      <trkpt lat="48.02514" lon="0.64264">
        <ele>126.2</ele>
        <time>2015-06-14T07:56:56.000Z</time>
      </trkpt>
      <trkpt lat="48.02512" lon="0.64264">
        <ele>126.3</ele>
        <time>2015-06-14T07:56:58.000Z</time>
      </trkpt>
      <trkpt lat="48.02506" lon="0.64264">
        <ele>126.4</ele>
        <time>2015-06-14T07:57:02.000Z</time>
      </trkpt>
      <trkpt lat="48.02501" lon="0.64265">
        <ele>126.4</ele>
        <time>2015-06-14T07:57:05.000Z</time>
      </trkpt>
      <trkpt lat="48.02492" lon="0.64268">
        <ele>126.5</ele>
        <time>2015-06-14T07:57:10.000Z</time>
      </trkpt>
      <trkpt lat="48.02487" lon="0.6427">
        <ele>126.6</ele>
        <time>2015-06-14T07:57:14.000Z</time>
      </trkpt>
      <trkpt lat="48.02477" lon="0.64271">
        <ele>126.9</ele>
        <time>2015-06-14T07:57:19.000Z</time>
      </trkpt>
      <trkpt lat="48.02475" lon="0.64272">
        <ele>126.9</ele>
        <time>2015-06-14T07:57:20.000Z</time>
      </trkpt>
      <trkpt lat="48.02465" lon="0.64274">
        <ele>127</ele>
        <time>2015-06-14T07:57:25.000Z</time>
      </trkpt>
      <trkpt lat="48.02463" lon="0.64275">
        <ele>127</ele>
        <time>2015-06-14T07:57:26.000Z</time>
      </trkpt>
      <trkpt lat="48.02455" lon="0.64275">
        <ele>127.1</ele>
        <time>2015-06-14T07:57:31.000Z</time>
      </trkpt>
      <trkpt lat="48.02447" lon="0.64275">
        <ele>127.1</ele>
        <time>2015-06-14T07:57:36.000Z</time>
      </trkpt>
      <trkpt lat="48.02445" lon="0.64276">
        <ele>127.1</ele>
        <time>2015-06-14T07:57:37.000Z</time>
      </trkpt>
      <trkpt lat="48.02434" lon="0.64277">
        <ele>127.8</ele>
        <time>2015-06-14T07:57:44.000Z</time>
      </trkpt>
      <trkpt lat="48.02423" lon="0.6428">
        <ele>128.6</ele>
        <time>2015-06-14T07:57:51.000Z</time>
      </trkpt>
      <trkpt lat="48.02411" lon="0.64282">
        <ele>129.2</ele>
        <time>2015-06-14T07:57:58.000Z</time>
      </trkpt>
      <trkpt lat="48.02399" lon="0.64285">
        <ele>129.6</ele>
        <time>2015-06-14T07:58:04.000Z</time>
      </trkpt>
      <trkpt lat="48.02392" lon="0.64284">
        <ele>129.9</ele>
        <time>2015-06-14T07:58:09.000Z</time>
      </trkpt>
      <trkpt lat="48.02384" lon="0.64285">
        <ele>130.2</ele>
        <time>2015-06-14T07:58:14.000Z</time>
      </trkpt>
      <trkpt lat="48.02369" lon="0.64286">
        <ele>130.7</ele>
        <time>2015-06-14T07:58:23.000Z</time>
      </trkpt>
      <trkpt lat="48.02356" lon="0.64286">
        <ele>131.2</ele>
        <time>2015-06-14T07:58:32.000Z</time>
      </trkpt>
      <trkpt lat="48.02352" lon="0.64285">
        <ele>131.3</ele>
        <time>2015-06-14T07:58:35.000Z</time>
      </trkpt>
      <trkpt lat="48.02348" lon="0.64292">
        <ele>131.5</ele>
        <time>2015-06-14T07:58:42.000Z</time>
      </trkpt>
      <trkpt lat="48.02347" lon="0.64294">
        <ele>131.5</ele>
        <time>2015-06-14T07:58:43.000Z</time>
      </trkpt>
      <trkpt lat="48.02345" lon="0.64307">
        <ele>131.6</ele>
        <time>2015-06-14T07:58:50.000Z</time>
      </trkpt>
      <trkpt lat="48.02343" lon="0.6432">
        <ele>132.2</ele>
        <time>2015-06-14T07:58:57.000Z</time>
      </trkpt>
      <trkpt lat="48.02342" lon="0.64321">
        <ele>132.2</ele>
        <time>2015-06-14T07:58:58.000Z</time>
      </trkpt>
      <trkpt lat="48.02339" lon="0.64327">
        <ele>132.6</ele>
        <time>2015-06-14T07:59:02.000Z</time>
      </trkpt>
      <trkpt lat="48.02332" lon="0.64336">
        <ele>133.1</ele>
        <time>2015-06-14T07:59:09.000Z</time>
      </trkpt>
      <trkpt lat="48.02331" lon="0.64337">
        <ele>133.2</ele>
        <time>2015-06-14T07:59:10.000Z</time>
      </trkpt>
      <trkpt lat="48.02327" lon="0.64343">
        <ele>133.5</ele>
        <time>2015-06-14T07:59:15.000Z</time>
      </trkpt>
      <trkpt lat="48.02325" lon="0.64349">
        <ele>133.7</ele>
        <time>2015-06-14T07:59:18.000Z</time>
      </trkpt>
      <trkpt lat="48.02322" lon="0.6436">
        <ele>134</ele>
        <time>2015-06-14T07:59:24.000Z</time>
      </trkpt>
      <trkpt lat="48.02318" lon="0.64375">
        <ele>134.5</ele>
        <time>2015-06-14T07:59:32.000Z</time>
      </trkpt>
      <trkpt lat="48.02317" lon="0.64377">
        <ele>134.6</ele>
        <time>2015-06-14T07:59:33.000Z</time>
      </trkpt>
      <trkpt lat="48.02314" lon="0.64381">
        <ele>134.7</ele>
        <time>2015-06-14T07:59:38.000Z</time>
      </trkpt>
      <trkpt lat="48.0231" lon="0.64385">
        <ele>134.9</ele>
        <time>2015-06-14T07:59:43.000Z</time>
      </trkpt>
      <trkpt lat="48.02311" lon="0.64383">
        <ele>134.8</ele>
        <time>2015-06-14T07:59:52.000Z</time>
      </trkpt>
      <trkpt lat="48.02315" lon="0.64378">
        <ele>134.6</ele>
        <time>2015-06-14T08:00:00.000Z</time>
      </trkpt>
      <trkpt lat="48.02316" lon="0.64373">
        <ele>134.4</ele>
        <time>2015-06-14T08:00:03.000Z</time>
      </trkpt>
      <trkpt lat="48.02317" lon="0.64366">
        <ele>134.2</ele>
        <time>2015-06-14T08:00:09.000Z</time>
      </trkpt>
      <trkpt lat="48.02317" lon="0.64361">
        <ele>134</ele>
        <time>2015-06-14T08:00:12.000Z</time>
      </trkpt>
      <trkpt lat="48.02322" lon="0.6435">
        <ele>133.8</ele>
        <time>2015-06-14T08:00:20.000Z</time>
      </trkpt>
      <trkpt lat="48.02323" lon="0.64346">
        <ele>133.6</ele>
        <time>2015-06-14T08:00:23.000Z</time>
      </trkpt>
      <trkpt lat="48.02327" lon="0.64333">
        <ele>133.2</ele>
        <time>2015-06-14T08:00:31.000Z</time>
      </trkpt>
      <trkpt lat="48.02327" lon="0.64332">
        <ele>133.1</ele>
        <time>2015-06-14T08:00:32.000Z</time>
      </trkpt>
      <trkpt lat="48.02327" lon="0.64329">
        <ele>133.1</ele>
        <time>2015-06-14T08:00:37.000Z</time>
      </trkpt>
      <trkpt lat="48.02326" lon="0.64329">
        <ele>133.1</ele>
        <time>2015-06-14T08:00:38.000Z</time>
      </trkpt>
      <trkpt lat="48.02321" lon="0.64326">
        <ele>133.2</ele>
        <time>2015-06-14T08:00:42.000Z</time>
      </trkpt>
      <trkpt lat="48.02316" lon="0.64324">
        <ele>133.3</ele>
        <time>2015-06-14T08:00:47.000Z</time>
      </trkpt>
      <trkpt lat="48.0231" lon="0.64323">
        <ele>133.5</ele>
        <time>2015-06-14T08:00:52.000Z</time>
      </trkpt>
      <trkpt lat="48.02307" lon="0.64324">
        <ele>133.6</ele>
        <time>2015-06-14T08:00:54.000Z</time>
      </trkpt>
      <trkpt lat="48.02302" lon="0.64323">
        <ele>133.8</ele>
        <time>2015-06-14T08:00:58.000Z</time>
      </trkpt>
      <trkpt lat="48.0229" lon="0.6432">
        <ele>134.4</ele>
        <time>2015-06-14T08:01:06.000Z</time>
      </trkpt>
      <trkpt lat="48.02282" lon="0.64316">
        <ele>134.6</ele>
        <time>2015-06-14T08:01:12.000Z</time>
      </trkpt>
      <trkpt lat="48.02275" lon="0.64311">
        <ele>134.7</ele>
        <time>2015-06-14T08:01:18.000Z</time>
      </trkpt>
      <trkpt lat="48.02267" lon="0.64306">
        <ele>135.1</ele>
        <time>2015-06-14T08:01:24.000Z</time>
      </trkpt>
      <trkpt lat="48.02264" lon="0.64304">
        <ele>135.4</ele>
        <time>2015-06-14T08:01:27.000Z</time>
      </trkpt>
      <trkpt lat="48.0226" lon="0.64301">
        <ele>135.7</ele>
        <time>2015-06-14T08:01:31.000Z</time>
      </trkpt>
      <trkpt lat="48.02259" lon="0.64299">
        <ele>135.8</ele>
        <time>2015-06-14T08:01:33.000Z</time>
      </trkpt>
      <trkpt lat="48.02253" lon="0.64296">
        <ele>136</ele>
        <time>2015-06-14T08:01:37.000Z</time>
      </trkpt>
      <trkpt lat="48.02248" lon="0.64292">
        <ele>136.2</ele>
        <time>2015-06-14T08:01:41.000Z</time>
      </trkpt>
      <trkpt lat="48.02246" lon="0.64291">
        <ele>136.3</ele>
        <time>2015-06-14T08:01:42.000Z</time>
      </trkpt>
      <trkpt lat="48.02237" lon="0.64287">
        <ele>136.9</ele>
        <time>2015-06-14T08:01:48.000Z</time>
      </trkpt>
      <trkpt lat="48.02229" lon="0.64282">
        <ele>137.4</ele>
        <time>2015-06-14T08:01:54.000Z</time>
      </trkpt>
      <trkpt lat="48.02221" lon="0.64276">
        <ele>138.1</ele>
        <time>2015-06-14T08:02:02.000Z</time>
      </trkpt>
      <trkpt lat="48.02219" lon="0.64276">
        <ele>138.2</ele>
        <time>2015-06-14T08:02:04.000Z</time>
      </trkpt>
      <trkpt lat="48.02211" lon="0.64271">
        <ele>138.6</ele>
        <time>2015-06-14T08:02:10.000Z</time>
      </trkpt>
      <trkpt lat="48.022" lon="0.64264">
        <ele>139.1</ele>
        <time>2015-06-14T08:02:19.000Z</time>
      </trkpt>
      <trkpt lat="48.02192" lon="0.6426">
        <ele>139.5</ele>
        <time>2015-06-14T08:02:25.000Z</time>
      </trkpt>
      <trkpt lat="48.0219" lon="0.64259">
        <ele>139.7</ele>
        <time>2015-06-14T08:02:27.000Z</time>
      </trkpt>
      <trkpt lat="48.02186" lon="0.64257">
        <ele>139.8</ele>
        <time>2015-06-14T08:02:30.000Z</time>
      </trkpt>
      <trkpt lat="48.02179" lon="0.64255">
        <ele>140.3</ele>
        <time>2015-06-14T08:02:36.000Z</time>
      </trkpt>
      <trkpt lat="48.02174" lon="0.64253">
        <ele>140.6</ele>
        <time>2015-06-14T08:02:39.000Z</time>
      </trkpt>
      <trkpt lat="48.02167" lon="0.64248">
        <ele>141</ele>
        <time>2015-06-14T08:02:44.000Z</time>
      </trkpt>
      <trkpt lat="48.02164" lon="0.64246">
        <ele>141.3</ele>
        <time>2015-06-14T08:02:46.000Z</time>
      </trkpt>
      <trkpt lat="48.02161" lon="0.64241">
        <ele>141.6</ele>
        <time>2015-06-14T08:02:49.000Z</time>
      </trkpt>
      <trkpt lat="48.02158" lon="0.64234">
        <ele>141.9</ele>
        <time>2015-06-14T08:02:53.000Z</time>
      </trkpt>
      <trkpt lat="48.02159" lon="0.64226">
        <ele>141.8</ele>
        <time>2015-06-14T08:02:58.000Z</time>
      </trkpt>
      <trkpt lat="48.0216" lon="0.64215">
        <ele>141.8</ele>
        <time>2015-06-14T08:03:03.000Z</time>
      </trkpt>
      <trkpt lat="48.02159" lon="0.64204">
        <ele>142</ele>
        <time>2015-06-14T08:03:08.000Z</time>
      </trkpt>
      <trkpt lat="48.02161" lon="0.64192">
        <ele>141.9</ele>
        <time>2015-06-14T08:03:14.000Z</time>
      </trkpt>
      <trkpt lat="48.02162" lon="0.64181">
        <ele>142.1</ele>
        <time>2015-06-14T08:03:19.000Z</time>
      </trkpt>
      <trkpt lat="48.02163" lon="0.64172">
        <ele>142.2</ele>
        <time>2015-06-14T08:03:23.000Z</time>
      </trkpt>
      <trkpt lat="48.02166" lon="0.64157">
        <ele>142.5</ele>
        <time>2015-06-14T08:03:30.000Z</time>
      </trkpt>
      <trkpt lat="48.02168" lon="0.64141">
        <ele>142.8</ele>
        <time>2015-06-14T08:03:37.000Z</time>
      </trkpt>
      <trkpt lat="48.02172" lon="0.64123">
        <ele>143.2</ele>
        <time>2015-06-14T08:03:45.000Z</time>
      </trkpt>
      <trkpt lat="48.02174" lon="0.64117">
        <ele>143.3</ele>
        <time>2015-06-14T08:03:48.000Z</time>
      </trkpt>
      <trkpt lat="48.02176" lon="0.64108">
        <ele>143.4</ele>
        <time>2015-06-14T08:03:52.000Z</time>
      </trkpt>
      <trkpt lat="48.02177" lon="0.64095">
        <ele>143.8</ele>
        <time>2015-06-14T08:03:58.000Z</time>
      </trkpt>
      <trkpt lat="48.02178" lon="0.64093">
        <ele>143.9</ele>
        <time>2015-06-14T08:03:59.000Z</time>
      </trkpt>
      <trkpt lat="48.02183" lon="0.6408">
        <ele>144</ele>
        <time>2015-06-14T08:04:06.000Z</time>
      </trkpt>
      <trkpt lat="48.02184" lon="0.64075">
        <ele>144.1</ele>
        <time>2015-06-14T08:04:08.000Z</time>
      </trkpt>
      <trkpt lat="48.02185" lon="0.64071">
        <ele>144.1</ele>
        <time>2015-06-14T08:04:11.000Z</time>
      </trkpt>
      <trkpt lat="48.02187" lon="0.64068">
        <ele>144</ele>
        <time>2015-06-14T08:04:13.000Z</time>
      </trkpt>
      <trkpt lat="48.0219" lon="0.64061">
        <ele>144.2</ele>
        <time>2015-06-14T08:04:17.000Z</time>
      </trkpt>
      <trkpt lat="48.02193" lon="0.64056">
        <ele>144.1</ele>
        <time>2015-06-14T08:04:20.000Z</time>
      </trkpt>
      <trkpt lat="48.02198" lon="0.64048">
        <ele>144.1</ele>
        <time>2015-06-14T08:04:25.000Z</time>
      </trkpt>
      <trkpt lat="48.02201" lon="0.64042">
        <ele>144.1</ele>
        <time>2015-06-14T08:04:28.000Z</time>
      </trkpt>
      <trkpt lat="48.02204" lon="0.6403">
        <ele>144.5</ele>
        <time>2015-06-14T08:04:34.000Z</time>
      </trkpt>
      <trkpt lat="48.02207" lon="0.64016">
        <ele>145.2</ele>
        <time>2015-06-14T08:04:41.000Z</time>
      </trkpt>
      <trkpt lat="48.02209" lon="0.64004">
        <ele>145.7</ele>
        <time>2015-06-14T08:04:47.000Z</time>
      </trkpt>
      <trkpt lat="48.02209" lon="0.64002">
        <ele>145.8</ele>
        <time>2015-06-14T08:04:48.000Z</time>
      </trkpt>
      <trkpt lat="48.02213" lon="0.63991">
        <ele>146.2</ele>
        <time>2015-06-14T08:04:54.000Z</time>
      </trkpt>
      <trkpt lat="48.02217" lon="0.63978">
        <ele>146.8</ele>
        <time>2015-06-14T08:05:01.000Z</time>
      </trkpt>
      <trkpt lat="48.02221" lon="0.6397">
        <ele>147.1</ele>
        <time>2015-06-14T08:05:06.000Z</time>
      </trkpt>
      <trkpt lat="48.02224" lon="0.63962">
        <ele>147.2</ele>
        <time>2015-06-14T08:05:11.000Z</time>
      </trkpt>
      <trkpt lat="48.02226" lon="0.63955">
        <ele>147.3</ele>
        <time>2015-06-14T08:05:15.000Z</time>
      </trkpt>
      <trkpt lat="48.02228" lon="0.63952">
        <ele>147.3</ele>
        <time>2015-06-14T08:05:17.000Z</time>
      </trkpt>
      <trkpt lat="48.02229" lon="0.63949">
        <ele>147.3</ele>
        <time>2015-06-14T08:05:19.000Z</time>
      </trkpt>
      <trkpt lat="48.02233" lon="0.63939">
        <ele>147.5</ele>
        <time>2015-06-14T08:05:24.000Z</time>
      </trkpt>
      <trkpt lat="48.02237" lon="0.63926">
        <ele>147.6</ele>
        <time>2015-06-14T08:05:30.000Z</time>
      </trkpt>
      <trkpt lat="48.02242" lon="0.63917">
        <ele>147.6</ele>
        <time>2015-06-14T08:05:35.000Z</time>
      </trkpt>
      <trkpt lat="48.02243" lon="0.63915">
        <ele>147.5</ele>
        <time>2015-06-14T08:05:36.000Z</time>
      </trkpt>
      <trkpt lat="48.02244" lon="0.63912">
        <ele>147.4</ele>
        <time>2015-06-14T08:05:38.000Z</time>
      </trkpt>
      <trkpt lat="48.02247" lon="0.63902">
        <ele>147.2</ele>
        <time>2015-06-14T08:05:43.000Z</time>
      </trkpt>
      <trkpt lat="48.02248" lon="0.639">
        <ele>147.2</ele>
        <time>2015-06-14T08:05:44.000Z</time>
      </trkpt>
      <trkpt lat="48.02253" lon="0.63887">
        <ele>146.9</ele>
        <time>2015-06-14T08:05:51.000Z</time>
      </trkpt>
      <trkpt lat="48.02254" lon="0.63884">
        <ele>146.8</ele>
        <time>2015-06-14T08:05:52.000Z</time>
      </trkpt>
      <trkpt lat="48.02253" lon="0.63878">
        <ele>146.8</ele>
        <time>2015-06-14T08:05:56.000Z</time>
      </trkpt>
      <trkpt lat="48.02251" lon="0.63874">
        <ele>146.9</ele>
        <time>2015-06-14T08:05:59.000Z</time>
      </trkpt>
      <trkpt lat="48.02247" lon="0.6387">
        <ele>147.3</ele>
        <time>2015-06-14T08:06:04.000Z</time>
      </trkpt>
      <trkpt lat="48.02242" lon="0.63863">
        <ele>147.9</ele>
        <time>2015-06-14T08:06:10.000Z</time>
      </trkpt>
      <trkpt lat="48.02237" lon="0.63857">
        <ele>148.4</ele>
        <time>2015-06-14T08:06:15.000Z</time>
      </trkpt>
      <trkpt lat="48.02233" lon="0.63851">
        <ele>148.8</ele>
        <time>2015-06-14T08:06:20.000Z</time>
      </trkpt>
      <trkpt lat="48.0223" lon="0.63849">
        <ele>149.2</ele>
        <time>2015-06-14T08:06:23.000Z</time>
      </trkpt>
      <trkpt lat="48.02223" lon="0.6384">
        <ele>149.9</ele>
        <time>2015-06-14T08:06:30.000Z</time>
      </trkpt>
      <trkpt lat="48.0222" lon="0.63836">
        <ele>150.2</ele>
        <time>2015-06-14T08:06:34.000Z</time>
      </trkpt>
      <trkpt lat="48.0221" lon="0.63826">
        <ele>150.7</ele>
        <time>2015-06-14T08:06:43.000Z</time>
      </trkpt>
      <trkpt lat="48.02205" lon="0.63821">
        <ele>151.1</ele>
        <time>2015-06-14T08:06:48.000Z</time>
      </trkpt>
      <trkpt lat="48.022" lon="0.63816">
        <ele>151.5</ele>
        <time>2015-06-14T08:06:54.000Z</time>
      </trkpt>
      <trkpt lat="48.02197" lon="0.63813">
        <ele>151.7</ele>
        <time>2015-06-14T08:06:57.000Z</time>
      </trkpt>
      <trkpt lat="48.02193" lon="0.63815">
        <ele>152.1</ele>
        <time>2015-06-14T08:07:02.000Z</time>
      </trkpt>
      <trkpt lat="48.02191" lon="0.63818">
        <ele>152.2</ele>
        <time>2015-06-14T08:07:04.000Z</time>
      </trkpt>
      <trkpt lat="48.02189" lon="0.63822">
        <ele>152.3</ele>
        <time>2015-06-14T08:07:07.000Z</time>
      </trkpt>
      <trkpt lat="48.02187" lon="0.63825">
        <ele>152.3</ele>
        <time>2015-06-14T08:07:09.000Z</time>
      </trkpt>
      <trkpt lat="48.02183" lon="0.63835">
        <ele>152.3</ele>
        <time>2015-06-14T08:07:16.000Z</time>
      </trkpt>
      <trkpt lat="48.02183" lon="0.63836">
        <ele>152.3</ele>
        <time>2015-06-14T08:07:17.000Z</time>
      </trkpt>
      <trkpt lat="48.02178" lon="0.63848">
        <ele>152.1</ele>
        <time>2015-06-14T08:07:24.000Z</time>
      </trkpt>
      <trkpt lat="48.02173" lon="0.63858">
        <ele>151.9</ele>
        <time>2015-06-14T08:07:30.000Z</time>
      </trkpt>
      <trkpt lat="48.0217" lon="0.63866">
        <ele>151.9</ele>
        <time>2015-06-14T08:07:35.000Z</time>
      </trkpt>
      <trkpt lat="48.02167" lon="0.63876">
        <ele>152</ele>
        <time>2015-06-14T08:07:40.000Z</time>
      </trkpt>
      <trkpt lat="48.02164" lon="0.6388">
        <ele>152.1</ele>
        <time>2015-06-14T08:07:43.000Z</time>
      </trkpt>
      <trkpt lat="48.02159" lon="0.63892">
        <ele>152.2</ele>
        <time>2015-06-14T08:07:49.000Z</time>
      </trkpt>
      <trkpt lat="48.02155" lon="0.63903">
        <ele>151.9</ele>
        <time>2015-06-14T08:07:55.000Z</time>
      </trkpt>
      <trkpt lat="48.02154" lon="0.63905">
        <ele>151.9</ele>
        <time>2015-06-14T08:07:56.000Z</time>
      </trkpt>
      <trkpt lat="48.02153" lon="0.63907">
        <ele>151.9</ele>
        <time>2015-06-14T08:07:57.000Z</time>
      </trkpt>
      <trkpt lat="48.0215" lon="0.63916">
        <ele>151.7</ele>
        <time>2015-06-14T08:08:02.000Z</time>
      </trkpt>
      <trkpt lat="48.02148" lon="0.6392">
        <ele>151.6</ele>
        <time>2015-06-14T08:08:05.000Z</time>
      </trkpt>
      <trkpt lat="48.02142" lon="0.6393">
        <ele>151.8</ele>
        <time>2015-06-14T08:08:12.000Z</time>
      </trkpt>
      <trkpt lat="48.02141" lon="0.63931">
        <ele>151.9</ele>
        <time>2015-06-14T08:08:13.000Z</time>
      </trkpt>
      <trkpt lat="48.0214" lon="0.63933">
        <ele>152</ele>
        <time>2015-06-14T08:08:15.000Z</time>
      </trkpt>
      <trkpt lat="48.02136" lon="0.63947">
        <ele>152.2</ele>
        <time>2015-06-14T08:08:23.000Z</time>
      </trkpt>
      <trkpt lat="48.0213" lon="0.63965">
        <ele>152.2</ele>
        <time>2015-06-14T08:08:32.000Z</time>
      </trkpt>
      <trkpt lat="48.0213" lon="0.63967">
        <ele>152.2</ele>
        <time>2015-06-14T08:08:33.000Z</time>
      </trkpt>
      <trkpt lat="48.02127" lon="0.63972">
        <ele>152.3</ele>
        <time>2015-06-14T08:08:37.000Z</time>
      </trkpt>
      <trkpt lat="48.0212" lon="0.6398">
        <ele>153</ele>
        <time>2015-06-14T08:08:44.000Z</time>
      </trkpt>
      <trkpt lat="48.02117" lon="0.63985">
        <ele>153.3</ele>
        <time>2015-06-14T08:08:51.000Z</time>
      </trkpt>
      <trkpt lat="48.02114" lon="0.63988">
        <ele>153.7</ele>
        <time>2015-06-14T08:08:54.000Z</time>
      </trkpt>
      <trkpt lat="48.02107" lon="0.63996">
        <ele>154.6</ele>
        <time>2015-06-14T08:09:00.000Z</time>
      </trkpt>
      <trkpt lat="48.02106" lon="0.64003">
        <ele>154.7</ele>
        <time>2015-06-14T08:09:04.000Z</time>
      </trkpt>
      <trkpt lat="48.02104" lon="0.64007">
        <ele>154.7</ele>
        <time>2015-06-14T08:09:06.000Z</time>
      </trkpt>
      <trkpt lat="48.02103" lon="0.64011">
        <ele>154.7</ele>
        <time>2015-06-14T08:09:08.000Z</time>
      </trkpt>
      <trkpt lat="48.02102" lon="0.64022">
        <ele>154.6</ele>
        <time>2015-06-14T08:09:13.000Z</time>
      </trkpt>
      <trkpt lat="48.021" lon="0.64029">
        <ele>154.5</ele>
        <time>2015-06-14T08:09:16.000Z</time>
      </trkpt>
      <trkpt lat="48.021" lon="0.64033">
        <ele>154.4</ele>
        <time>2015-06-14T08:09:18.000Z</time>
      </trkpt>
      <trkpt lat="48.02099" lon="0.64038">
        <ele>154.4</ele>
        <time>2015-06-14T08:09:21.000Z</time>
      </trkpt>
      <trkpt lat="48.02093" lon="0.64048">
        <ele>154.9</ele>
        <time>2015-06-14T08:09:27.000Z</time>
      </trkpt>
      <trkpt lat="48.02089" lon="0.64053">
        <ele>155.3</ele>
        <time>2015-06-14T08:09:30.000Z</time>
      </trkpt>
      <trkpt lat="48.02084" lon="0.64058">
        <ele>155.7</ele>
        <time>2015-06-14T08:09:34.000Z</time>
      </trkpt>
      <trkpt lat="48.02081" lon="0.64063">
        <ele>155.9</ele>
        <time>2015-06-14T08:09:39.000Z</time>
      </trkpt>
      <trkpt lat="48.02078" lon="0.6407">
        <ele>156</ele>
        <time>2015-06-14T08:09:43.000Z</time>
      </trkpt>
      <trkpt lat="48.02077" lon="0.64076">
        <ele>155.7</ele>
        <time>2015-06-14T08:09:47.000Z</time>
      </trkpt>
      <trkpt lat="48.02079" lon="0.64078">
        <ele>155.1</ele>
        <time>2015-06-14T08:09:49.000Z</time>
      </trkpt>
      <trkpt lat="48.02083" lon="0.64084">
        <ele>154</ele>
        <time>2015-06-14T08:09:53.000Z</time>
      </trkpt>
      <trkpt lat="48.02084" lon="0.64085">
        <ele>153.8</ele>
        <time>2015-06-14T08:09:54.000Z</time>
      </trkpt>
      <trkpt lat="48.02089" lon="0.6409">
        <ele>153.2</ele>
        <time>2015-06-14T08:10:00.000Z</time>
      </trkpt>
      <trkpt lat="48.02089" lon="0.64091">
        <ele>153.1</ele>
        <time>2015-06-14T08:10:01.000Z</time>
      </trkpt>
      <trkpt lat="48.02095" lon="0.64097">
        <ele>152.2</ele>
        <time>2015-06-14T08:10:07.000Z</time>
      </trkpt>
      <trkpt lat="48.021" lon="0.64102">
        <ele>151.5</ele>
        <time>2015-06-14T08:10:10.000Z</time>
      </trkpt>
      <trkpt lat="48.02101" lon="0.64106">
        <ele>151.3</ele>
        <time>2015-06-14T08:10:13.000Z</time>
      </trkpt>
      <trkpt lat="48.02103" lon="0.64117">
        <ele>150.8</ele>
        <time>2015-06-14T08:10:18.000Z</time>
      </trkpt>
      <trkpt lat="48.02103" lon="0.64119">
        <ele>150.8</ele>
        <time>2015-06-14T08:10:19.000Z</time>
      </trkpt>
      <trkpt lat="48.02105" lon="0.64129">
        <ele>150.6</ele>
        <time>2015-06-14T08:10:24.000Z</time>
      </trkpt>
      <trkpt lat="48.02108" lon="0.64135">
        <ele>150.3</ele>
        <time>2015-06-14T08:10:28.000Z</time>
      </trkpt>
      <trkpt lat="48.0211" lon="0.64134">
        <ele>150.1</ele>
        <time>2015-06-14T08:10:31.000Z</time>
      </trkpt>
      <trkpt lat="48.02114" lon="0.64137">
        <ele>149.6</ele>
        <time>2015-06-14T08:10:36.000Z</time>
      </trkpt>
      <trkpt lat="48.02117" lon="0.6414">
        <ele>149.2</ele>
        <time>2015-06-14T08:10:39.000Z</time>
      </trkpt>
      <trkpt lat="48.0212" lon="0.64148">
        <ele>148.4</ele>
        <time>2015-06-14T08:10:44.000Z</time>
      </trkpt>
      <trkpt lat="48.02123" lon="0.6416">
        <ele>147.5</ele>
        <time>2015-06-14T08:10:50.000Z</time>
      </trkpt>
      <trkpt lat="48.02124" lon="0.64166">
        <ele>147.2</ele>
        <time>2015-06-14T08:10:53.000Z</time>
      </trkpt>
      <trkpt lat="48.02124" lon="0.64177">
        <ele>146.9</ele>
        <time>2015-06-14T08:10:59.000Z</time>
      </trkpt>
      <trkpt lat="48.02125" lon="0.64183">
        <ele>146.7</ele>
        <time>2015-06-14T08:11:02.000Z</time>
      </trkpt>
      <trkpt lat="48.02127" lon="0.64203">
        <ele>146</ele>
        <time>2015-06-14T08:11:12.000Z</time>
      </trkpt>
      <trkpt lat="48.02128" lon="0.64208">
        <ele>145.7</ele>
        <time>2015-06-14T08:11:14.000Z</time>
      </trkpt>
      <trkpt lat="48.0213" lon="0.64224">
        <ele>144.9</ele>
        <time>2015-06-14T08:11:22.000Z</time>
      </trkpt>
      <trkpt lat="48.0213" lon="0.64238">
        <ele>145</ele>
        <time>2015-06-14T08:11:28.000Z</time>
      </trkpt>
      <trkpt lat="48.0213" lon="0.64239">
        <ele>144.9</ele>
        <time>2015-06-14T08:11:29.000Z</time>
      </trkpt>
      <trkpt lat="48.0213" lon="0.6424">
        <ele>144.9</ele>
        <time>2015-06-14T08:11:30.000Z</time>
      </trkpt>
      <trkpt lat="48.0213" lon="0.64252">
        <ele>144.9</ele>
        <time>2015-06-14T08:11:35.000Z</time>
      </trkpt>
      <trkpt lat="48.02129" lon="0.64261">
        <ele>144.9</ele>
        <time>2015-06-14T08:11:39.000Z</time>
      </trkpt>
      <trkpt lat="48.02127" lon="0.64272">
        <ele>145</ele>
        <time>2015-06-14T08:11:44.000Z</time>
      </trkpt>
      <trkpt lat="48.02124" lon="0.64283">
        <ele>145</ele>
        <time>2015-06-14T08:11:49.000Z</time>
      </trkpt>
      <trkpt lat="48.02123" lon="0.64286">
        <ele>145</ele>
        <time>2015-06-14T08:11:51.000Z</time>
      </trkpt>
      <trkpt lat="48.02119" lon="0.64285">
        <ele>145.2</ele>
        <time>2015-06-14T08:11:55.000Z</time>
      </trkpt>
      <trkpt lat="48.02115" lon="0.64282">
        <ele>145.6</ele>
        <time>2015-06-14T08:12:00.000Z</time>
      </trkpt>
      <trkpt lat="48.02108" lon="0.64284">
        <ele>145.9</ele>
        <time>2015-06-14T08:12:07.000Z</time>
      </trkpt>
      <trkpt lat="48.02101" lon="0.64293">
        <ele>145.8</ele>
        <time>2015-06-14T08:12:14.000Z</time>
      </trkpt>
      <trkpt lat="48.02094" lon="0.6429">
        <ele>146.2</ele>
        <time>2015-06-14T08:12:20.000Z</time>
      </trkpt>
      <trkpt lat="48.02093" lon="0.64291">
        <ele>146.2</ele>
        <time>2015-06-14T08:12:21.000Z</time>
      </trkpt>
      <trkpt lat="48.02088" lon="0.64298">
        <ele>146.1</ele>
        <time>2015-06-14T08:12:26.000Z</time>
      </trkpt>
      <trkpt lat="48.02079" lon="0.64307">
        <ele>146</ele>
        <time>2015-06-14T08:12:32.000Z</time>
      </trkpt>
      <trkpt lat="48.02064" lon="0.64316">
        <ele>145.9</ele>
        <time>2015-06-14T08:12:42.000Z</time>
      </trkpt>
      <trkpt lat="48.02053" lon="0.64318">
        <ele>146</ele>
        <time>2015-06-14T08:12:49.000Z</time>
      </trkpt>
      <trkpt lat="48.02046" lon="0.6432">
        <ele>146.2</ele>
        <time>2015-06-14T08:12:54.000Z</time>
      </trkpt>
      <trkpt lat="48.02043" lon="0.64325">
        <ele>146.1</ele>
        <time>2015-06-14T08:12:58.000Z</time>
      </trkpt>
      <trkpt lat="48.02042" lon="0.64342">
        <ele>145.7</ele>
        <time>2015-06-14T08:13:07.000Z</time>
      </trkpt>
      <trkpt lat="48.02042" lon="0.64343">
        <ele>145.6</ele>
        <time>2015-06-14T08:13:08.000Z</time>
      </trkpt>
      <trkpt lat="48.02044" lon="0.64351">
        <ele>145.4</ele>
        <time>2015-06-14T08:13:12.000Z</time>
      </trkpt>
      <trkpt lat="48.02045" lon="0.64356">
        <ele>145.2</ele>
        <time>2015-06-14T08:13:15.000Z</time>
      </trkpt>
      <trkpt lat="48.02049" lon="0.64366">
        <ele>144.8</ele>
        <time>2015-06-14T08:13:20.000Z</time>
      </trkpt>
      <trkpt lat="48.0205" lon="0.64367">
        <ele>144.8</ele>
        <time>2015-06-14T08:13:21.000Z</time>
      </trkpt>
      <trkpt lat="48.0205" lon="0.64369">
        <ele>144.7</ele>
        <time>2015-06-14T08:13:22.000Z</time>
      </trkpt>
      <trkpt lat="48.02053" lon="0.64375">
        <ele>144.5</ele>
        <time>2015-06-14T08:13:26.000Z</time>
      </trkpt>
      <trkpt lat="48.02054" lon="0.64382">
        <ele>144.3</ele>
        <time>2015-06-14T08:13:29.000Z</time>
      </trkpt>
      <trkpt lat="48.02054" lon="0.64387">
        <ele>144.1</ele>
        <time>2015-06-14T08:13:31.000Z</time>
      </trkpt>
      <trkpt lat="48.02055" lon="0.64393">
        <ele>143.9</ele>
        <time>2015-06-14T08:13:34.000Z</time>
      </trkpt>
      <trkpt lat="48.02057" lon="0.64405">
        <ele>143.4</ele>
        <time>2015-06-14T08:13:40.000Z</time>
      </trkpt>
      <trkpt lat="48.02062" lon="0.64421">
        <ele>142.8</ele>
        <time>2015-06-14T08:13:48.000Z</time>
      </trkpt>
      <trkpt lat="48.02065" lon="0.6444">
        <ele>142.7</ele>
        <time>2015-06-14T08:13:56.000Z</time>
      </trkpt>
      <trkpt lat="48.02068" lon="0.64459">
        <ele>142.1</ele>
        <time>2015-06-14T08:14:04.000Z</time>
      </trkpt>
      <trkpt lat="48.02071" lon="0.64476">
        <ele>141.4</ele>
        <time>2015-06-14T08:14:12.000Z</time>
      </trkpt>
      <trkpt lat="48.02072" lon="0.64479">
        <ele>141.4</ele>
        <time>2015-06-14T08:14:14.000Z</time>
      </trkpt>
      <trkpt lat="48.02074" lon="0.64488">
        <ele>141.3</ele>
        <time>2015-06-14T08:14:20.000Z</time>
      </trkpt>
      <trkpt lat="48.02074" lon="0.6449">
        <ele>141.3</ele>
        <time>2015-06-14T08:14:21.000Z</time>
      </trkpt>
      <trkpt lat="48.02074" lon="0.64493">
        <ele>141.3</ele>
        <time>2015-06-14T08:14:22.000Z</time>
      </trkpt>
      <trkpt lat="48.02074" lon="0.64499">
        <ele>141.3</ele>
        <time>2015-06-14T08:14:25.000Z</time>
      </trkpt>
      <trkpt lat="48.02075" lon="0.64503">
        <ele>141.2</ele>
        <time>2015-06-14T08:14:27.000Z</time>
      </trkpt>
      <trkpt lat="48.02078" lon="0.6452">
        <ele>140.6</ele>
        <time>2015-06-14T08:14:35.000Z</time>
      </trkpt>
      <trkpt lat="48.02081" lon="0.64526">
        <ele>140.3</ele>
        <time>2015-06-14T08:14:38.000Z</time>
      </trkpt>
      <trkpt lat="48.02084" lon="0.64535">
        <ele>139.8</ele>
        <time>2015-06-14T08:14:43.000Z</time>
      </trkpt>
      <trkpt lat="48.02086" lon="0.64547">
        <ele>139.4</ele>
        <time>2015-06-14T08:14:49.000Z</time>
      </trkpt>
      <trkpt lat="48.02086" lon="0.6455">
        <ele>139.3</ele>
        <time>2015-06-14T08:14:50.000Z</time>
      </trkpt>
      <trkpt lat="48.02089" lon="0.64566">
        <ele>139.1</ele>
        <time>2015-06-14T08:14:57.000Z</time>
      </trkpt>
      <trkpt lat="48.0209" lon="0.64573">
        <ele>139.1</ele>
        <time>2015-06-14T08:15:00.000Z</time>
      </trkpt>
      <trkpt lat="48.02093" lon="0.64586">
        <ele>138.9</ele>
        <time>2015-06-14T08:15:06.000Z</time>
      </trkpt>
      <trkpt lat="48.02095" lon="0.64598">
        <ele>138.5</ele>
        <time>2015-06-14T08:15:12.000Z</time>
      </trkpt>
      <trkpt lat="48.02093" lon="0.64605">
        <ele>138.2</ele>
        <time>2015-06-14T08:15:15.000Z</time>
      </trkpt>
      <trkpt lat="48.02089" lon="0.64613">
        <ele>137.9</ele>
        <time>2015-06-14T08:15:19.000Z</time>
      </trkpt>
      <trkpt lat="48.02086" lon="0.64619">
        <ele>137.7</ele>
        <time>2015-06-14T08:15:22.000Z</time>
      </trkpt>
      <trkpt lat="48.0208" lon="0.6462">
        <ele>137.7</ele>
        <time>2015-06-14T08:15:26.000Z</time>
      </trkpt>
      <trkpt lat="48.02067" lon="0.64614">
        <ele>137.9</ele>
        <time>2015-06-14T08:15:37.000Z</time>
      </trkpt>
      <trkpt lat="48.02056" lon="0.64616">
        <ele>137.8</ele>
        <time>2015-06-14T08:15:45.000Z</time>
      </trkpt>
      <trkpt lat="48.02051" lon="0.64615">
        <ele>137.9</ele>
        <time>2015-06-14T08:15:50.000Z</time>
      </trkpt>
      <trkpt lat="48.02046" lon="0.64613">
        <ele>137.9</ele>
        <time>2015-06-14T08:15:54.000Z</time>
      </trkpt>
      <trkpt lat="48.02037" lon="0.64613">
        <ele>137.9</ele>
        <time>2015-06-14T08:16:02.000Z</time>
      </trkpt>
      <trkpt lat="48.02036" lon="0.64612">
        <ele>138</ele>
        <time>2015-06-14T08:16:03.000Z</time>
      </trkpt>
      <trkpt lat="48.02031" lon="0.64603">
        <ele>138.3</ele>
        <time>2015-06-14T08:16:11.000Z</time>
      </trkpt>
      <trkpt lat="48.02028" lon="0.64595">
        <ele>138.6</ele>
        <time>2015-06-14T08:16:21.000Z</time>
      </trkpt>
      <trkpt lat="48.02023" lon="0.64594">
        <ele>138.5</ele>
        <time>2015-06-14T08:16:27.000Z</time>
      </trkpt>
      <trkpt lat="48.02022" lon="0.64595">
        <ele>138.5</ele>
        <time>2015-06-14T08:16:28.000Z</time>
      </trkpt>
      <trkpt lat="48.02018" lon="0.64597">
        <ele>138.3</ele>
        <time>2015-06-14T08:16:32.000Z</time>
      </trkpt>
      <trkpt lat="48.02013" lon="0.64589">
        <ele>138.4</ele>
        <time>2015-06-14T08:16:39.000Z</time>
      </trkpt>
      <trkpt lat="48.02012" lon="0.64585">
        <ele>138.4</ele>
        <time>2015-06-14T08:16:42.000Z</time>
      </trkpt>
      <trkpt lat="48.02012" lon="0.64582">
        <ele>138.5</ele>
        <time>2015-06-14T08:16:48.000Z</time>
      </trkpt>
      <trkpt lat="48.02011" lon="0.64584">
        <ele>138.4</ele>
        <time>2015-06-14T08:16:56.000Z</time>
      </trkpt>
      <trkpt lat="48.02012" lon="0.64584">
        <ele>138.4</ele>
        <time>2015-06-14T08:17:38.000Z</time>
      </trkpt>
      <trkpt lat="48.02012" lon="0.64585">
        <ele>138.4</ele>
        <time>2015-06-14T08:18:17.000Z</time>
      </trkpt>
      <trkpt lat="48.02017" lon="0.64584">
        <ele>138.6</ele>
        <time>2015-06-14T08:18:25.000Z</time>
      </trkpt>
      <trkpt lat="48.0202" lon="0.64589">
        <ele>138.6</ele>
        <time>2015-06-14T08:18:30.000Z</time>
      </trkpt>
      <trkpt lat="48.02022" lon="0.64594">
        <ele>138.5</ele>
        <time>2015-06-14T08:18:33.000Z</time>
      </trkpt>
      <trkpt lat="48.02025" lon="0.64595">
        <ele>138.5</ele>
        <time>2015-06-14T08:18:38.000Z</time>
      </trkpt>
      <trkpt lat="48.02027" lon="0.64593">
        <ele>138.6</ele>
        <time>2015-06-14T08:18:42.000Z</time>
      </trkpt>
      <trkpt lat="48.02027" lon="0.64588">
        <ele>138.8</ele>
        <time>2015-06-14T08:18:47.000Z</time>
      </trkpt>
      <trkpt lat="48.02028" lon="0.64585">
        <ele>138.9</ele>
        <time>2015-06-14T08:18:52.000Z</time>
      </trkpt>
      <trkpt lat="48.02029" lon="0.64582">
        <ele>139.1</ele>
        <time>2015-06-14T08:19:51.000Z</time>
      </trkpt>
    </trkseg>
  </trk>
</gpx>